<?xml version="1.0" encoding="UTF-8"?>
<gpx xmlns:xsi="http://www.w3.org/2001/XMLSchema-instance" xmlns="http://www.topografix.com/GPX/1/0" version="1.0" xsi:schemaLocation="http://www.topografix.com/GPX/1/0 http://www.topografix.com/GPX/1/0/gpx.xsd" creator="gpx.py -- https://github.com/tkrajina/gpxpy">
<name>云南大理环洱海</name>
<desc>行者骑行软件</desc>
<author>行者骑行软件</author>
<url>http://www.imxingzhe.com</url>
<urlname>行者骑行软件</urlname>
<time>2014-08-12T07:41:49Z</time>
<keywords>行者骑行软件</keywords>
<distance>129.451</distance>
<trk>
<name>行者骑行软件</name>
<desc/>
<trkseg>
<trkpt lat="25.595" lon="100.222145">
<time>2014-08-12T15:41:49Z</time></trkpt>
<trkpt lat="25.596311" lon="100.222075">
<time>2014-08-12T15:41:50Z</time></trkpt>
<trkpt lat="25.596631" lon="100.222055">
<time>2014-08-12T15:41:51Z</time></trkpt>
<trkpt lat="25.597221" lon="100.222055">
<time>2014-08-12T15:41:52Z</time></trkpt>
<trkpt lat="25.597221" lon="100.222055">
<time>2014-08-12T15:41:53Z</time></trkpt>
<trkpt lat="25.598253" lon="100.223587">
<time>2014-08-12T15:41:54Z</time></trkpt>
<trkpt lat="25.598253" lon="100.223587">
<time>2014-08-12T15:41:55Z</time></trkpt>
<trkpt lat="25.598253" lon="100.223597">
<time>2014-08-12T15:41:56Z</time></trkpt>
<trkpt lat="25.598253" lon="100.223617">
<time>2014-08-12T15:41:57Z</time></trkpt>
<trkpt lat="25.598253" lon="100.223627">
<time>2014-08-12T15:41:58Z</time></trkpt>
<trkpt lat="25.598253" lon="100.223637">
<time>2014-08-12T15:41:59Z</time></trkpt>
<trkpt lat="25.598253" lon="100.223647">
<time>2014-08-12T15:42:00Z</time></trkpt>
<trkpt lat="25.598253" lon="100.223657">
<time>2014-08-12T15:42:01Z</time></trkpt>
<trkpt lat="25.598253" lon="100.223667">
<time>2014-08-12T15:42:02Z</time></trkpt>
<trkpt lat="25.598253" lon="100.223677">
<time>2014-08-12T15:42:03Z</time></trkpt>
<trkpt lat="25.598253" lon="100.223697">
<time>2014-08-12T15:42:04Z</time></trkpt>
<trkpt lat="25.598253" lon="100.223707">
<time>2014-08-12T15:42:05Z</time></trkpt>
<trkpt lat="25.598243" lon="100.223717">
<time>2014-08-12T15:42:06Z</time></trkpt>
<trkpt lat="25.598243" lon="100.223737">
<time>2014-08-12T15:42:07Z</time></trkpt>
<trkpt lat="25.598233" lon="100.223747">
<time>2014-08-12T15:42:08Z</time></trkpt>
<trkpt lat="25.598233" lon="100.223757">
<time>2014-08-12T15:42:09Z</time></trkpt>
<trkpt lat="25.598233" lon="100.223767">
<time>2014-08-12T15:42:10Z</time></trkpt>
<trkpt lat="25.597793" lon="100.224097">
<time>2014-08-12T15:42:11Z</time></trkpt>
<trkpt lat="25.597793" lon="100.224137">
<time>2014-08-12T15:42:12Z</time></trkpt>
<trkpt lat="25.597793" lon="100.224157">
<time>2014-08-12T15:42:13Z</time></trkpt>
<trkpt lat="25.597793" lon="100.224177">
<time>2014-08-12T15:42:14Z</time></trkpt>
<trkpt lat="25.597803" lon="100.224187">
<time>2014-08-12T15:42:15Z</time></trkpt>
<trkpt lat="25.597803" lon="100.224207">
<time>2014-08-12T15:42:16Z</time></trkpt>
<trkpt lat="25.597803" lon="100.224217">
<time>2014-08-12T15:42:17Z</time></trkpt>
<trkpt lat="25.597813" lon="100.224237">
<time>2014-08-12T15:42:18Z</time></trkpt>
<trkpt lat="25.597823" lon="100.224247">
<time>2014-08-12T15:42:19Z</time></trkpt>
<trkpt lat="25.597843" lon="100.224257">
<time>2014-08-12T15:42:20Z</time></trkpt>
<trkpt lat="25.597863" lon="100.224267">
<time>2014-08-12T15:42:21Z</time></trkpt>
<trkpt lat="25.597893" lon="100.224287">
<time>2014-08-12T15:42:22Z</time></trkpt>
<trkpt lat="25.597933" lon="100.224297">
<time>2014-08-12T15:42:23Z</time></trkpt>
<trkpt lat="25.597983" lon="100.224327">
<time>2014-08-12T15:42:24Z</time></trkpt>
<trkpt lat="25.597983" lon="100.224327">
<time>2014-08-12T15:42:25Z</time></trkpt>
<trkpt lat="25.598103" lon="100.224247">
<time>2014-08-12T15:42:26Z</time></trkpt>
<trkpt lat="25.598573" lon="100.223877">
<time>2014-08-12T15:42:27Z</time></trkpt>
<trkpt lat="25.598773" lon="100.223717">
<time>2014-08-12T15:42:28Z</time></trkpt>
<trkpt lat="25.599093" lon="100.223477">
<time>2014-08-12T15:42:29Z</time></trkpt>
<trkpt lat="25.599243" lon="100.223356">
<time>2014-08-12T15:42:30Z</time></trkpt>
<trkpt lat="25.599443" lon="100.223206">
<time>2014-08-12T15:42:31Z</time></trkpt>
<trkpt lat="25.599653" lon="100.223066">
<time>2014-08-12T15:42:32Z</time></trkpt>
<trkpt lat="25.599903" lon="100.222876">
<time>2014-08-12T15:42:33Z</time></trkpt>
<trkpt lat="25.600763" lon="100.222255">
<time>2014-08-12T15:42:34Z</time></trkpt>
<trkpt lat="25.601083" lon="100.221995">
<time>2014-08-12T15:42:35Z</time></trkpt>
<trkpt lat="25.601353" lon="100.221835">
<time>2014-08-12T15:42:36Z</time></trkpt>
<trkpt lat="25.602003" lon="100.221595">
<time>2014-08-12T15:42:37Z</time></trkpt>
<trkpt lat="25.602013" lon="100.221595">
<time>2014-08-12T15:42:38Z</time></trkpt>
<trkpt lat="25.602043" lon="100.221605">
<time>2014-08-12T15:42:39Z</time></trkpt>
<trkpt lat="25.602073" lon="100.221605">
<time>2014-08-12T15:42:40Z</time></trkpt>
<trkpt lat="25.602103" lon="100.221595">
<time>2014-08-12T15:42:41Z</time></trkpt>
<trkpt lat="25.602123" lon="100.221584">
<time>2014-08-12T15:42:42Z</time></trkpt>
<trkpt lat="25.602603" lon="100.221625">
<time>2014-08-12T15:42:43Z</time></trkpt>
<trkpt lat="25.602703" lon="100.221635">
<time>2014-08-12T15:42:44Z</time></trkpt>
<trkpt lat="25.602773" lon="100.221635">
<time>2014-08-12T15:42:45Z</time></trkpt>
<trkpt lat="25.602923" lon="100.221635">
<time>2014-08-12T15:42:46Z</time></trkpt>
<trkpt lat="25.603713" lon="100.221554">
<time>2014-08-12T15:42:47Z</time></trkpt>
<trkpt lat="25.603803" lon="100.221564">
<time>2014-08-12T15:42:48Z</time></trkpt>
<trkpt lat="25.603803" lon="100.221564">
<time>2014-08-12T15:42:49Z</time></trkpt>
<trkpt lat="25.604204" lon="100.221524">
<time>2014-08-12T15:42:50Z</time></trkpt>
<trkpt lat="25.605504" lon="100.221394">
<time>2014-08-12T15:42:51Z</time></trkpt>
<trkpt lat="25.606154" lon="100.221334">
<time>2014-08-12T15:42:52Z</time></trkpt>
<trkpt lat="25.606494" lon="100.221304">
<time>2014-08-12T15:42:53Z</time></trkpt>
<trkpt lat="25.607995" lon="100.221224">
<time>2014-08-12T15:42:54Z</time></trkpt>
<trkpt lat="25.608075" lon="100.221204">
<time>2014-08-12T15:42:55Z</time></trkpt>
<trkpt lat="25.608765" lon="100.221054">
<time>2014-08-12T15:42:56Z</time></trkpt>
<trkpt lat="25.608925" lon="100.221024">
<time>2014-08-12T15:42:57Z</time></trkpt>
<trkpt lat="25.609645" lon="100.220904">
<time>2014-08-12T15:42:58Z</time></trkpt>
<trkpt lat="25.611606" lon="100.220573">
<time>2014-08-12T15:42:59Z</time></trkpt>
<trkpt lat="25.611656" lon="100.220553">
<time>2014-08-12T15:43:00Z</time></trkpt>
<trkpt lat="25.611896" lon="100.220493">
<time>2014-08-12T15:43:01Z</time></trkpt>
<trkpt lat="25.612336" lon="100.220373">
<time>2014-08-12T15:43:02Z</time></trkpt>
<trkpt lat="25.613016" lon="100.220143">
<time>2014-08-12T15:43:03Z</time></trkpt>
<trkpt lat="25.613966" lon="100.219822">
<time>2014-08-12T15:43:04Z</time></trkpt>
<trkpt lat="25.614616" lon="100.219622">
<time>2014-08-12T15:43:05Z</time></trkpt>
<trkpt lat="25.615606" lon="100.219302">
<time>2014-08-12T15:43:06Z</time></trkpt>
<trkpt lat="25.616217" lon="100.219121">
<time>2014-08-12T15:43:07Z</time></trkpt>
<trkpt lat="25.617127" lon="100.218841">
<time>2014-08-12T15:43:08Z</time></trkpt>
<trkpt lat="25.617157" lon="100.218831">
<time>2014-08-12T15:43:09Z</time></trkpt>
<trkpt lat="25.617587" lon="100.218601">
<time>2014-08-12T15:43:10Z</time></trkpt>
<trkpt lat="25.617897" lon="100.218421">
<time>2014-08-12T15:43:11Z</time></trkpt>
<trkpt lat="25.619226" lon="100.21763">
<time>2014-08-12T15:43:12Z</time></trkpt>
<trkpt lat="25.619366" lon="100.217549">
<time>2014-08-12T15:43:13Z</time></trkpt>
<trkpt lat="25.620006" lon="100.217169">
<time>2014-08-12T15:43:14Z</time></trkpt>
<trkpt lat="25.620056" lon="100.217149">
<time>2014-08-12T15:43:15Z</time></trkpt>
<trkpt lat="25.620126" lon="100.217099">
<time>2014-08-12T15:43:16Z</time></trkpt>
<trkpt lat="25.620516" lon="100.216869">
<time>2014-08-12T15:43:17Z</time></trkpt>
<trkpt lat="25.621176" lon="100.216468">
<time>2014-08-12T15:43:18Z</time></trkpt>
<trkpt lat="25.622116" lon="100.215897">
<time>2014-08-12T15:43:19Z</time></trkpt>
<trkpt lat="25.622576" lon="100.215627">
<time>2014-08-12T15:43:20Z</time></trkpt>
<trkpt lat="25.622576" lon="100.215627">
<time>2014-08-12T15:43:21Z</time></trkpt>
<trkpt lat="25.622596" lon="100.215597">
<time>2014-08-12T15:43:22Z</time></trkpt>
<trkpt lat="25.623245" lon="100.215216">
<time>2014-08-12T15:43:23Z</time></trkpt>
<trkpt lat="25.623335" lon="100.215156">
<time>2014-08-12T15:43:24Z</time></trkpt>
<trkpt lat="25.623435" lon="100.215086">
<time>2014-08-12T15:43:25Z</time></trkpt>
<trkpt lat="25.624095" lon="100.214616">
<time>2014-08-12T15:43:26Z</time></trkpt>
<trkpt lat="25.624765" lon="100.214095">
<time>2014-08-12T15:43:27Z</time></trkpt>
<trkpt lat="25.624925" lon="100.213975">
<time>2014-08-12T15:43:28Z</time></trkpt>
<trkpt lat="25.624965" lon="100.213945">
<time>2014-08-12T15:43:29Z</time></trkpt>
<trkpt lat="25.625465" lon="100.213584">
<time>2014-08-12T15:43:30Z</time></trkpt>
<trkpt lat="25.626534" lon="100.212903">
<time>2014-08-12T15:43:31Z</time></trkpt>
<trkpt lat="25.627244" lon="100.212513">
<time>2014-08-12T15:43:32Z</time></trkpt>
<trkpt lat="25.627324" lon="100.212463">
<time>2014-08-12T15:43:33Z</time></trkpt>
<trkpt lat="25.627674" lon="100.212262">
<time>2014-08-12T15:43:34Z</time></trkpt>
<trkpt lat="25.627954" lon="100.212112">
<time>2014-08-12T15:43:35Z</time></trkpt>
<trkpt lat="25.628324" lon="100.211912">
<time>2014-08-12T15:43:36Z</time></trkpt>
<trkpt lat="25.629653" lon="100.211181">
<time>2014-08-12T15:43:37Z</time></trkpt>
<trkpt lat="25.630823" lon="100.21054">
<time>2014-08-12T15:43:38Z</time></trkpt>
<trkpt lat="25.630913" lon="100.21049">
<time>2014-08-12T15:43:39Z</time></trkpt>
<trkpt lat="25.632183" lon="100.209789">
<time>2014-08-12T15:43:40Z</time></trkpt>
<trkpt lat="25.632433" lon="100.209649">
<time>2014-08-12T15:43:41Z</time></trkpt>
<trkpt lat="25.632883" lon="100.209398">
<time>2014-08-12T15:43:42Z</time></trkpt>
<trkpt lat="25.634112" lon="100.208717">
<time>2014-08-12T15:43:43Z</time></trkpt>
<trkpt lat="25.634502" lon="100.208497">
<time>2014-08-12T15:43:44Z</time></trkpt>
<trkpt lat="25.635842" lon="100.207756">
<time>2014-08-12T15:43:45Z</time></trkpt>
<trkpt lat="25.636412" lon="100.207425">
<time>2014-08-12T15:43:46Z</time></trkpt>
<trkpt lat="25.637441" lon="100.206834">
<time>2014-08-12T15:43:47Z</time></trkpt>
<trkpt lat="25.637821" lon="100.206604">
<time>2014-08-12T15:43:48Z</time></trkpt>
<trkpt lat="25.639111" lon="100.205843">
<time>2014-08-12T15:43:49Z</time></trkpt>
<trkpt lat="25.64079" lon="100.204821">
<time>2014-08-12T15:43:50Z</time></trkpt>
<trkpt lat="25.6409" lon="100.204771">
<time>2014-08-12T15:43:51Z</time></trkpt>
<trkpt lat="25.6409" lon="100.204771">
<time>2014-08-12T15:43:52Z</time></trkpt>
<trkpt lat="25.640932" lon="100.205943">
<time>2014-08-12T15:43:53Z</time></trkpt>
<trkpt lat="25.640992" lon="100.206423">
<time>2014-08-12T15:43:54Z</time></trkpt>
<trkpt lat="25.641074" lon="100.207185">
<time>2014-08-12T15:43:55Z</time></trkpt>
<trkpt lat="25.641124" lon="100.207826">
<time>2014-08-12T15:43:56Z</time></trkpt>
<trkpt lat="25.641276" lon="100.208867">
<time>2014-08-12T15:43:57Z</time></trkpt>
<trkpt lat="25.641387" lon="100.209718">
<time>2014-08-12T15:43:58Z</time></trkpt>
<trkpt lat="25.641448" lon="100.210059">
<time>2014-08-12T15:43:59Z</time></trkpt>
<trkpt lat="25.641518" lon="100.210449">
<time>2014-08-12T15:44:00Z</time></trkpt>
<trkpt lat="25.641599" lon="100.21098">
<time>2014-08-12T15:44:01Z</time></trkpt>
<trkpt lat="25.641599" lon="100.21101">
<time>2014-08-12T15:44:02Z</time></trkpt>
<trkpt lat="25.641631" lon="100.212232">
<time>2014-08-12T15:44:03Z</time></trkpt>
<trkpt lat="25.641641" lon="100.212803">
<time>2014-08-12T15:44:04Z</time></trkpt>
<trkpt lat="25.641652" lon="100.213494">
<time>2014-08-12T15:44:05Z</time></trkpt>
<trkpt lat="25.641684" lon="100.214705">
<time>2014-08-12T15:44:06Z</time></trkpt>
<trkpt lat="25.641695" lon="100.215797">
<time>2014-08-12T15:44:07Z</time></trkpt>
<trkpt lat="25.641695" lon="100.215797">
<time>2014-08-12T15:44:08Z</time></trkpt>
<trkpt lat="25.642385" lon="100.215456">
<time>2014-08-12T15:44:09Z</time></trkpt>
<trkpt lat="25.642945" lon="100.215066">
<time>2014-08-12T15:44:10Z</time></trkpt>
<trkpt lat="25.643145" lon="100.214936">
<time>2014-08-12T15:44:11Z</time></trkpt>
<trkpt lat="25.643355" lon="100.214845">
<time>2014-08-12T15:44:12Z</time></trkpt>
<trkpt lat="25.643975" lon="100.214575">
<time>2014-08-12T15:44:13Z</time></trkpt>
<trkpt lat="25.644165" lon="100.214525">
<time>2014-08-12T15:44:14Z</time></trkpt>
<trkpt lat="25.644905" lon="100.214295">
<time>2014-08-12T15:44:15Z</time></trkpt>
<trkpt lat="25.645775" lon="100.214054">
<time>2014-08-12T15:44:16Z</time></trkpt>
<trkpt lat="25.646165" lon="100.213994">
<time>2014-08-12T15:44:17Z</time></trkpt>
<trkpt lat="25.646405" lon="100.213964">
<time>2014-08-12T15:44:18Z</time></trkpt>
<trkpt lat="25.646465" lon="100.213964">
<time>2014-08-12T15:44:19Z</time></trkpt>
<trkpt lat="25.647235" lon="100.213934">
<time>2014-08-12T15:44:20Z</time></trkpt>
<trkpt lat="25.647646" lon="100.213924">
<time>2014-08-12T15:44:21Z</time></trkpt>
<trkpt lat="25.648186" lon="100.213844">
<time>2014-08-12T15:44:22Z</time></trkpt>
<trkpt lat="25.648786" lon="100.213654">
<time>2014-08-12T15:44:23Z</time></trkpt>
<trkpt lat="25.649356" lon="100.213504">
<time>2014-08-12T15:44:24Z</time></trkpt>
<trkpt lat="25.649806" lon="100.213443">
<time>2014-08-12T15:44:25Z</time></trkpt>
<trkpt lat="25.650106" lon="100.213443">
<time>2014-08-12T15:44:26Z</time></trkpt>
<trkpt lat="25.650356" lon="100.213413">
<time>2014-08-12T15:44:27Z</time></trkpt>
<trkpt lat="25.650716" lon="100.213303">
<time>2014-08-12T15:44:28Z</time></trkpt>
<trkpt lat="25.651336" lon="100.212963">
<time>2014-08-12T15:44:29Z</time></trkpt>
<trkpt lat="25.651696" lon="100.212823">
<time>2014-08-12T15:44:30Z</time></trkpt>
<trkpt lat="25.652276" lon="100.212732">
<time>2014-08-12T15:44:31Z</time></trkpt>
<trkpt lat="25.652547" lon="100.212752">
<time>2014-08-12T15:44:32Z</time></trkpt>
<trkpt lat="25.652817" lon="100.212823">
<time>2014-08-12T15:44:33Z</time></trkpt>
<trkpt lat="25.653237" lon="100.213003">
<time>2014-08-12T15:44:34Z</time></trkpt>
<trkpt lat="25.653598" lon="100.213163">
<time>2014-08-12T15:44:35Z</time></trkpt>
<trkpt lat="25.653708" lon="100.213213">
<time>2014-08-12T15:44:36Z</time></trkpt>
<trkpt lat="25.654258" lon="100.213163">
<time>2014-08-12T15:44:37Z</time></trkpt>
<trkpt lat="25.654788" lon="100.213033">
<time>2014-08-12T15:44:38Z</time></trkpt>
<trkpt lat="25.655088" lon="100.213093">
<time>2014-08-12T15:44:39Z</time></trkpt>
<trkpt lat="25.655428" lon="100.213113">
<time>2014-08-12T15:44:40Z</time></trkpt>
<trkpt lat="25.656078" lon="100.212852">
<time>2014-08-12T15:44:41Z</time></trkpt>
<trkpt lat="25.656468" lon="100.212712">
<time>2014-08-12T15:44:42Z</time></trkpt>
<trkpt lat="25.656659" lon="100.212652">
<time>2014-08-12T15:44:43Z</time></trkpt>
<trkpt lat="25.656999" lon="100.212682">
<time>2014-08-12T15:44:44Z</time></trkpt>
<trkpt lat="25.657589" lon="100.212592">
<time>2014-08-12T15:44:45Z</time></trkpt>
<trkpt lat="25.657789" lon="100.212582">
<time>2014-08-12T15:44:46Z</time></trkpt>
<trkpt lat="25.658199" lon="100.212572">
<time>2014-08-12T15:44:47Z</time></trkpt>
<trkpt lat="25.658529" lon="100.212582">
<time>2014-08-12T15:44:48Z</time></trkpt>
<trkpt lat="25.65888" lon="100.212602">
<time>2014-08-12T15:44:49Z</time></trkpt>
<trkpt lat="25.65913" lon="100.212492">
<time>2014-08-12T15:44:50Z</time></trkpt>
<trkpt lat="25.659429" lon="100.212222">
<time>2014-08-12T15:44:51Z</time></trkpt>
<trkpt lat="25.659749" lon="100.212091">
<time>2014-08-12T15:44:52Z</time></trkpt>
<trkpt lat="25.660159" lon="100.211991">
<time>2014-08-12T15:44:53Z</time></trkpt>
<trkpt lat="25.66038" lon="100.212021">
<time>2014-08-12T15:44:54Z</time></trkpt>
<trkpt lat="25.66071" lon="100.212011">
<time>2014-08-12T15:44:55Z</time></trkpt>
<trkpt lat="25.66104" lon="100.212021">
<time>2014-08-12T15:44:56Z</time></trkpt>
<trkpt lat="25.66137" lon="100.211981">
<time>2014-08-12T15:44:57Z</time></trkpt>
<trkpt lat="25.66163" lon="100.211781">
<time>2014-08-12T15:44:58Z</time></trkpt>
<trkpt lat="25.66219" lon="100.21147">
<time>2014-08-12T15:44:59Z</time></trkpt>
<trkpt lat="25.66226" lon="100.21143">
<time>2014-08-12T15:45:00Z</time></trkpt>
<trkpt lat="25.66249" lon="100.21134">
<time>2014-08-12T15:45:01Z</time></trkpt>
<trkpt lat="25.66253" lon="100.2113">
<time>2014-08-12T15:45:02Z</time></trkpt>
<trkpt lat="25.66254" lon="100.21127">
<time>2014-08-12T15:45:03Z</time></trkpt>
<trkpt lat="25.66253" lon="100.21124">
<time>2014-08-12T15:45:04Z</time></trkpt>
<trkpt lat="25.662218" lon="100.210108">
<time>2014-08-12T15:45:05Z</time></trkpt>
<trkpt lat="25.662218" lon="100.210108">
<time>2014-08-12T15:45:06Z</time></trkpt>
<trkpt lat="25.662398" lon="100.210048">
<time>2014-08-12T15:45:07Z</time></trkpt>
<trkpt lat="25.662788" lon="100.209908">
<time>2014-08-12T15:45:08Z</time></trkpt>
<trkpt lat="25.663138" lon="100.209788">
<time>2014-08-12T15:45:09Z</time></trkpt>
<trkpt lat="25.663258" lon="100.209758">
<time>2014-08-12T15:45:10Z</time></trkpt>
<trkpt lat="25.663338" lon="100.209748">
<time>2014-08-12T15:45:11Z</time></trkpt>
<trkpt lat="25.663408" lon="100.209738">
<time>2014-08-12T15:45:12Z</time></trkpt>
<trkpt lat="25.663468" lon="100.209748">
<time>2014-08-12T15:45:13Z</time></trkpt>
<trkpt lat="25.663548" lon="100.209758">
<time>2014-08-12T15:45:14Z</time></trkpt>
<trkpt lat="25.663618" lon="100.209788">
<time>2014-08-12T15:45:15Z</time></trkpt>
<trkpt lat="25.663708" lon="100.209838">
<time>2014-08-12T15:45:16Z</time></trkpt>
<trkpt lat="25.663919" lon="100.210098">
<time>2014-08-12T15:45:17Z</time></trkpt>
<trkpt lat="25.663959" lon="100.210138">
<time>2014-08-12T15:45:18Z</time></trkpt>
<trkpt lat="25.663989" lon="100.210168">
<time>2014-08-12T15:45:19Z</time></trkpt>
<trkpt lat="25.664009" lon="100.210189">
<time>2014-08-12T15:45:20Z</time></trkpt>
<trkpt lat="25.664049" lon="100.210199">
<time>2014-08-12T15:45:21Z</time></trkpt>
<trkpt lat="25.664079" lon="100.210209">
<time>2014-08-12T15:45:22Z</time></trkpt>
<trkpt lat="25.664109" lon="100.210209">
<time>2014-08-12T15:45:23Z</time></trkpt>
<trkpt lat="25.664139" lon="100.210209">
<time>2014-08-12T15:45:24Z</time></trkpt>
<trkpt lat="25.664169" lon="100.210209">
<time>2014-08-12T15:45:25Z</time></trkpt>
<trkpt lat="25.664209" lon="100.210199">
<time>2014-08-12T15:45:26Z</time></trkpt>
<trkpt lat="25.664269" lon="100.210189">
<time>2014-08-12T15:45:27Z</time></trkpt>
<trkpt lat="25.664389" lon="100.210128">
<time>2014-08-12T15:45:28Z</time></trkpt>
<trkpt lat="25.664519" lon="100.210068">
<time>2014-08-12T15:45:29Z</time></trkpt>
<trkpt lat="25.665059" lon="100.209748">
<time>2014-08-12T15:45:30Z</time></trkpt>
<trkpt lat="25.665429" lon="100.209487">
<time>2014-08-12T15:45:31Z</time></trkpt>
<trkpt lat="25.665519" lon="100.209427">
<time>2014-08-12T15:45:32Z</time></trkpt>
<trkpt lat="25.665579" lon="100.209357">
<time>2014-08-12T15:45:33Z</time></trkpt>
<trkpt lat="25.665629" lon="100.209307">
<time>2014-08-12T15:45:34Z</time></trkpt>
<trkpt lat="25.665669" lon="100.209257">
<time>2014-08-12T15:45:35Z</time></trkpt>
<trkpt lat="25.665798" lon="100.209047">
<time>2014-08-12T15:45:36Z</time></trkpt>
<trkpt lat="25.665808" lon="100.209037">
<time>2014-08-12T15:45:37Z</time></trkpt>
<trkpt lat="25.665828" lon="100.209007">
<time>2014-08-12T15:45:38Z</time></trkpt>
<trkpt lat="25.665858" lon="100.208977">
<time>2014-08-12T15:45:39Z</time></trkpt>
<trkpt lat="25.665888" lon="100.208957">
<time>2014-08-12T15:45:40Z</time></trkpt>
<trkpt lat="25.665928" lon="100.208947">
<time>2014-08-12T15:45:41Z</time></trkpt>
<trkpt lat="25.665968" lon="100.208927">
<time>2014-08-12T15:45:42Z</time></trkpt>
<trkpt lat="25.665998" lon="100.208927">
<time>2014-08-12T15:45:43Z</time></trkpt>
<trkpt lat="25.666008" lon="100.208927">
<time>2014-08-12T15:45:44Z</time></trkpt>
<trkpt lat="25.666058" lon="100.208917">
<time>2014-08-12T15:45:45Z</time></trkpt>
<trkpt lat="25.666108" lon="100.208907">
<time>2014-08-12T15:45:46Z</time></trkpt>
<trkpt lat="25.666439" lon="100.208867">
<time>2014-08-12T15:45:47Z</time></trkpt>
<trkpt lat="25.666649" lon="100.208836">
<time>2014-08-12T15:45:48Z</time></trkpt>
<trkpt lat="25.666689" lon="100.208836">
<time>2014-08-12T15:45:49Z</time></trkpt>
<trkpt lat="25.666849" lon="100.208806">
<time>2014-08-12T15:45:50Z</time></trkpt>
<trkpt lat="25.666949" lon="100.208776">
<time>2014-08-12T15:45:51Z</time></trkpt>
<trkpt lat="25.667039" lon="100.208736">
<time>2014-08-12T15:45:52Z</time></trkpt>
<trkpt lat="25.667229" lon="100.208586">
<time>2014-08-12T15:45:53Z</time></trkpt>
<trkpt lat="25.667488" lon="100.208396">
<time>2014-08-12T15:45:54Z</time></trkpt>
<trkpt lat="25.667928" lon="100.208065">
<time>2014-08-12T15:45:55Z</time></trkpt>
<trkpt lat="25.668378" lon="100.207735">
<time>2014-08-12T15:45:56Z</time></trkpt>
<trkpt lat="25.668828" lon="100.207474">
<time>2014-08-12T15:45:57Z</time></trkpt>
<trkpt lat="25.669278" lon="100.207214">
<time>2014-08-12T15:45:58Z</time></trkpt>
<trkpt lat="25.670008" lon="100.206793">
<time>2014-08-12T15:45:59Z</time></trkpt>
<trkpt lat="25.670008" lon="100.206793">
<time>2014-08-12T15:46:00Z</time></trkpt>
<trkpt lat="25.670028" lon="100.206853">
<time>2014-08-12T15:46:01Z</time></trkpt>
<trkpt lat="25.670078" lon="100.207024">
<time>2014-08-12T15:46:02Z</time></trkpt>
<trkpt lat="25.670118" lon="100.207154">
<time>2014-08-12T15:46:03Z</time></trkpt>
<trkpt lat="25.670128" lon="100.207344">
<time>2014-08-12T15:46:04Z</time></trkpt>
<trkpt lat="25.670139" lon="100.207474">
<time>2014-08-12T15:46:05Z</time></trkpt>
<trkpt lat="25.670119" lon="100.207594">
<time>2014-08-12T15:46:06Z</time></trkpt>
<trkpt lat="25.670099" lon="100.207765">
<time>2014-08-12T15:46:07Z</time></trkpt>
<trkpt lat="25.670099" lon="100.207895">
<time>2014-08-12T15:46:08Z</time></trkpt>
<trkpt lat="25.670099" lon="100.207895">
<time>2014-08-12T15:46:09Z</time></trkpt>
<trkpt lat="25.67202" lon="100.207534">
<time>2014-08-12T15:46:10Z</time></trkpt>
<trkpt lat="25.67343" lon="100.207314">
<time>2014-08-12T15:46:11Z</time></trkpt>
<trkpt lat="25.675091" lon="100.207154">
<time>2014-08-12T15:46:12Z</time></trkpt>
<trkpt lat="25.675191" lon="100.207094">
<time>2014-08-12T15:46:13Z</time></trkpt>
<trkpt lat="25.67527" lon="100.206923">
<time>2014-08-12T15:46:14Z</time></trkpt>
<trkpt lat="25.67527" lon="100.206923">
<time>2014-08-12T15:46:15Z</time></trkpt>
<trkpt lat="25.675831" lon="100.206993">
<time>2014-08-12T15:46:16Z</time></trkpt>
<trkpt lat="25.675931" lon="100.207013">
<time>2014-08-12T15:46:17Z</time></trkpt>
<trkpt lat="25.676041" lon="100.207104">
<time>2014-08-12T15:46:18Z</time></trkpt>
<trkpt lat="25.676541" lon="100.207184">
<time>2014-08-12T15:46:19Z</time></trkpt>
<trkpt lat="25.677122" lon="100.207324">
<time>2014-08-12T15:46:20Z</time></trkpt>
<trkpt lat="25.677272" lon="100.207364">
<time>2014-08-12T15:46:21Z</time></trkpt>
<trkpt lat="25.677702" lon="100.207464">
<time>2014-08-12T15:46:22Z</time></trkpt>
<trkpt lat="25.678253" lon="100.207594">
<time>2014-08-12T15:46:23Z</time></trkpt>
<trkpt lat="25.679403" lon="100.207454">
<time>2014-08-12T15:46:24Z</time></trkpt>
<trkpt lat="25.680134" lon="100.207334">
<time>2014-08-12T15:46:25Z</time></trkpt>
<trkpt lat="25.680504" lon="100.207184">
<time>2014-08-12T15:46:26Z</time></trkpt>
<trkpt lat="25.680794" lon="100.207073">
<time>2014-08-12T15:46:27Z</time></trkpt>
<trkpt lat="25.681744" lon="100.206983">
<time>2014-08-12T15:46:28Z</time></trkpt>
<trkpt lat="25.682144" lon="100.206973">
<time>2014-08-12T15:46:29Z</time></trkpt>
<trkpt lat="25.682204" lon="100.207043">
<time>2014-08-12T15:46:30Z</time></trkpt>
<trkpt lat="25.682574" lon="100.206993">
<time>2014-08-12T15:46:31Z</time></trkpt>
<trkpt lat="25.683614" lon="100.206643">
<time>2014-08-12T15:46:32Z</time></trkpt>
<trkpt lat="25.684444" lon="100.206182">
<time>2014-08-12T15:46:33Z</time></trkpt>
<trkpt lat="25.685084" lon="100.205871">
<time>2014-08-12T15:46:34Z</time></trkpt>
<trkpt lat="25.685084" lon="100.205871">
<time>2014-08-12T15:46:35Z</time></trkpt>
<trkpt lat="25.685134" lon="100.205992">
<time>2014-08-12T15:46:36Z</time></trkpt>
<trkpt lat="25.685154" lon="100.206022">
<time>2014-08-12T15:46:37Z</time></trkpt>
<trkpt lat="25.685194" lon="100.206062">
<time>2014-08-12T15:46:38Z</time></trkpt>
<trkpt lat="25.685255" lon="100.206082">
<time>2014-08-12T15:46:39Z</time></trkpt>
<trkpt lat="25.685295" lon="100.206072">
<time>2014-08-12T15:46:40Z</time></trkpt>
<trkpt lat="25.686275" lon="100.205781">
<time>2014-08-12T15:46:41Z</time></trkpt>
<trkpt lat="25.687085" lon="100.205541">
<time>2014-08-12T15:46:42Z</time></trkpt>
<trkpt lat="25.687245" lon="100.205511">
<time>2014-08-12T15:46:43Z</time></trkpt>
<trkpt lat="25.687355" lon="100.205491">
<time>2014-08-12T15:46:44Z</time></trkpt>
<trkpt lat="25.687505" lon="100.205501">
<time>2014-08-12T15:46:45Z</time></trkpt>
<trkpt lat="25.687745" lon="100.205521">
<time>2014-08-12T15:46:46Z</time></trkpt>
<trkpt lat="25.688015" lon="100.205531">
<time>2014-08-12T15:46:47Z</time></trkpt>
<trkpt lat="25.688155" lon="100.205531">
<time>2014-08-12T15:46:48Z</time></trkpt>
<trkpt lat="25.688315" lon="100.205531">
<time>2014-08-12T15:46:49Z</time></trkpt>
<trkpt lat="25.688666" lon="100.205521">
<time>2014-08-12T15:46:50Z</time></trkpt>
<trkpt lat="25.689036" lon="100.205511">
<time>2014-08-12T15:46:51Z</time></trkpt>
<trkpt lat="25.689056" lon="100.205511">
<time>2014-08-12T15:46:52Z</time></trkpt>
<trkpt lat="25.689146" lon="100.205511">
<time>2014-08-12T15:46:53Z</time></trkpt>
<trkpt lat="25.689446" lon="100.205551">
<time>2014-08-12T15:46:54Z</time></trkpt>
<trkpt lat="25.689646" lon="100.205581">
<time>2014-08-12T15:46:55Z</time></trkpt>
<trkpt lat="25.689736" lon="100.205581">
<time>2014-08-12T15:46:56Z</time></trkpt>
<trkpt lat="25.689776" lon="100.205551">
<time>2014-08-12T15:46:57Z</time></trkpt>
<trkpt lat="25.689796" lon="100.205531">
<time>2014-08-12T15:46:58Z</time></trkpt>
<trkpt lat="25.689786" lon="100.205481">
<time>2014-08-12T15:46:59Z</time></trkpt>
<trkpt lat="25.689776" lon="100.20534">
<time>2014-08-12T15:47:00Z</time></trkpt>
<trkpt lat="25.689756" lon="100.20527">
<time>2014-08-12T15:47:01Z</time></trkpt>
<trkpt lat="25.689756" lon="100.20524">
<time>2014-08-12T15:47:02Z</time></trkpt>
<trkpt lat="25.689776" lon="100.2052">
<time>2014-08-12T15:47:03Z</time></trkpt>
<trkpt lat="25.689796" lon="100.20517">
<time>2014-08-12T15:47:04Z</time></trkpt>
<trkpt lat="25.689866" lon="100.20516">
<time>2014-08-12T15:47:05Z</time></trkpt>
<trkpt lat="25.690026" lon="100.20516">
<time>2014-08-12T15:47:06Z</time></trkpt>
<trkpt lat="25.690726" lon="100.20515">
<time>2014-08-12T15:47:07Z</time></trkpt>
<trkpt lat="25.690796" lon="100.20515">
<time>2014-08-12T15:47:08Z</time></trkpt>
<trkpt lat="25.690866" lon="100.20512">
<time>2014-08-12T15:47:09Z</time></trkpt>
<trkpt lat="25.690876" lon="100.20512">
<time>2014-08-12T15:47:10Z</time></trkpt>
<trkpt lat="25.690876" lon="100.20512">
<time>2014-08-12T15:47:11Z</time></trkpt>
<trkpt lat="25.690875" lon="100.204559">
<time>2014-08-12T15:47:12Z</time></trkpt>
<trkpt lat="25.690915" lon="100.204419">
<time>2014-08-12T15:47:13Z</time></trkpt>
<trkpt lat="25.690975" lon="100.204329">
<time>2014-08-12T15:47:14Z</time></trkpt>
<trkpt lat="25.691045" lon="100.204299">
<time>2014-08-12T15:47:15Z</time></trkpt>
<trkpt lat="25.691155" lon="100.204289">
<time>2014-08-12T15:47:16Z</time></trkpt>
<trkpt lat="25.692376" lon="100.204649">
<time>2014-08-12T15:47:17Z</time></trkpt>
<trkpt lat="25.692376" lon="100.204649">
<time>2014-08-12T15:47:18Z</time></trkpt>
<trkpt lat="25.692226" lon="100.204479">
<time>2014-08-12T15:47:19Z</time></trkpt>
<trkpt lat="25.692186" lon="100.204449">
<time>2014-08-12T15:47:20Z</time></trkpt>
<trkpt lat="25.692166" lon="100.204399">
<time>2014-08-12T15:47:21Z</time></trkpt>
<trkpt lat="25.692156" lon="100.204349">
<time>2014-08-12T15:47:22Z</time></trkpt>
<trkpt lat="25.692136" lon="100.204269">
<time>2014-08-12T15:47:23Z</time></trkpt>
<trkpt lat="25.691894" lon="100.203147">
<time>2014-08-12T15:47:24Z</time></trkpt>
<trkpt lat="25.691612" lon="100.201865">
<time>2014-08-12T15:47:25Z</time></trkpt>
<trkpt lat="25.691551" lon="100.201594">
<time>2014-08-12T15:47:26Z</time></trkpt>
<trkpt lat="25.691551" lon="100.201594">
<time>2014-08-12T15:47:27Z</time></trkpt>
<trkpt lat="25.693451" lon="100.200933">
<time>2014-08-12T15:47:28Z</time></trkpt>
<trkpt lat="25.694661" lon="100.200592">
<time>2014-08-12T15:47:29Z</time></trkpt>
<trkpt lat="25.694671" lon="100.200592">
<time>2014-08-12T15:47:30Z</time></trkpt>
<trkpt lat="25.694681" lon="100.200603">
<time>2014-08-12T15:47:31Z</time></trkpt>
<trkpt lat="25.694691" lon="100.200603">
<time>2014-08-12T15:47:32Z</time></trkpt>
<trkpt lat="25.694731" lon="100.200603">
<time>2014-08-12T15:47:33Z</time></trkpt>
<trkpt lat="25.695161" lon="100.200462">
<time>2014-08-12T15:47:34Z</time></trkpt>
<trkpt lat="25.695461" lon="100.200342">
<time>2014-08-12T15:47:35Z</time></trkpt>
<trkpt lat="25.695681" lon="100.200242">
<time>2014-08-12T15:47:36Z</time></trkpt>
<trkpt lat="25.695891" lon="100.200152">
<time>2014-08-12T15:47:37Z</time></trkpt>
<trkpt lat="25.696111" lon="100.199991">
<time>2014-08-12T15:47:38Z</time></trkpt>
<trkpt lat="25.696391" lon="100.199831">
<time>2014-08-12T15:47:39Z</time></trkpt>
<trkpt lat="25.696681" lon="100.199661">
<time>2014-08-12T15:47:40Z</time></trkpt>
<trkpt lat="25.696761" lon="100.199631">
<time>2014-08-12T15:47:41Z</time></trkpt>
<trkpt lat="25.696881" lon="100.199551">
<time>2014-08-12T15:47:42Z</time></trkpt>
<trkpt lat="25.696961" lon="100.199501">
<time>2014-08-12T15:47:43Z</time></trkpt>
<trkpt lat="25.697191" lon="100.19938">
<time>2014-08-12T15:47:44Z</time></trkpt>
<trkpt lat="25.697261" lon="100.19934">
<time>2014-08-12T15:47:45Z</time></trkpt>
<trkpt lat="25.697691" lon="100.19908">
<time>2014-08-12T15:47:46Z</time></trkpt>
<trkpt lat="25.697801" lon="100.19902">
<time>2014-08-12T15:47:47Z</time></trkpt>
<trkpt lat="25.697861" lon="100.19896">
<time>2014-08-12T15:47:48Z</time></trkpt>
<trkpt lat="25.69795" lon="100.198819">
<time>2014-08-12T15:47:49Z</time></trkpt>
<trkpt lat="25.69804" lon="100.198639">
<time>2014-08-12T15:47:50Z</time></trkpt>
<trkpt lat="25.69816" lon="100.198449">
<time>2014-08-12T15:47:51Z</time></trkpt>
<trkpt lat="25.69855" lon="100.198218">
<time>2014-08-12T15:47:52Z</time></trkpt>
<trkpt lat="25.69896" lon="100.197978">
<time>2014-08-12T15:47:53Z</time></trkpt>
<trkpt lat="25.69912" lon="100.197868">
<time>2014-08-12T15:47:54Z</time></trkpt>
<trkpt lat="25.699229" lon="100.197777">
<time>2014-08-12T15:47:55Z</time></trkpt>
<trkpt lat="25.699239" lon="100.197767">
<time>2014-08-12T15:47:56Z</time></trkpt>
<trkpt lat="25.699369" lon="100.197687">
<time>2014-08-12T15:47:57Z</time></trkpt>
<trkpt lat="25.699709" lon="100.197517">
<time>2014-08-12T15:47:58Z</time></trkpt>
<trkpt lat="25.699839" lon="100.197467">
<time>2014-08-12T15:47:59Z</time></trkpt>
<trkpt lat="25.700159" lon="100.197357">
<time>2014-08-12T15:48:00Z</time></trkpt>
<trkpt lat="25.700159" lon="100.197357">
<time>2014-08-12T15:48:01Z</time></trkpt>
<trkpt lat="25.700279" lon="100.197266">
<time>2014-08-12T15:48:02Z</time></trkpt>
<trkpt lat="25.700349" lon="100.197206">
<time>2014-08-12T15:48:03Z</time></trkpt>
<trkpt lat="25.700629" lon="100.197026">
<time>2014-08-12T15:48:04Z</time></trkpt>
<trkpt lat="25.700829" lon="100.196916">
<time>2014-08-12T15:48:05Z</time></trkpt>
<trkpt lat="25.701029" lon="100.196816">
<time>2014-08-12T15:48:06Z</time></trkpt>
<trkpt lat="25.701129" lon="100.196746">
<time>2014-08-12T15:48:07Z</time></trkpt>
<trkpt lat="25.701149" lon="100.196675">
<time>2014-08-12T15:48:08Z</time></trkpt>
<trkpt lat="25.701158" lon="100.196555">
<time>2014-08-12T15:48:09Z</time></trkpt>
<trkpt lat="25.701158" lon="100.196495">
<time>2014-08-12T15:48:10Z</time></trkpt>
<trkpt lat="25.701198" lon="100.196455">
<time>2014-08-12T15:48:11Z</time></trkpt>
<trkpt lat="25.701338" lon="100.196415">
<time>2014-08-12T15:48:12Z</time></trkpt>
<trkpt lat="25.701488" lon="100.196395">
<time>2014-08-12T15:48:13Z</time></trkpt>
<trkpt lat="25.701728" lon="100.196365">
<time>2014-08-12T15:48:14Z</time></trkpt>
<trkpt lat="25.701829" lon="100.196335">
<time>2014-08-12T15:48:15Z</time></trkpt>
<trkpt lat="25.702288" lon="100.196104">
<time>2014-08-12T15:48:16Z</time></trkpt>
<trkpt lat="25.702438" lon="100.195994">
<time>2014-08-12T15:48:17Z</time></trkpt>
<trkpt lat="25.702588" lon="100.195894">
<time>2014-08-12T15:48:18Z</time></trkpt>
<trkpt lat="25.702668" lon="100.195854">
<time>2014-08-12T15:48:19Z</time></trkpt>
<trkpt lat="25.702818" lon="100.195794">
<time>2014-08-12T15:48:20Z</time></trkpt>
<trkpt lat="25.702928" lon="100.195714">
<time>2014-08-12T15:48:21Z</time></trkpt>
<trkpt lat="25.702938" lon="100.195643">
<time>2014-08-12T15:48:22Z</time></trkpt>
<trkpt lat="25.702928" lon="100.195563">
<time>2014-08-12T15:48:23Z</time></trkpt>
<trkpt lat="25.702847" lon="100.195183">
<time>2014-08-12T15:48:24Z</time></trkpt>
<trkpt lat="25.702837" lon="100.195133">
<time>2014-08-12T15:48:25Z</time></trkpt>
<trkpt lat="25.702757" lon="100.194872">
<time>2014-08-12T15:48:26Z</time></trkpt>
<trkpt lat="25.702656" lon="100.194652">
<time>2014-08-12T15:48:27Z</time></trkpt>
<trkpt lat="25.702505" lon="100.194181">
<time>2014-08-12T15:48:28Z</time></trkpt>
<trkpt lat="25.702435" lon="100.19378">
<time>2014-08-12T15:48:29Z</time></trkpt>
<trkpt lat="25.702414" lon="100.193399">
<time>2014-08-12T15:48:30Z</time></trkpt>
<trkpt lat="25.702393" lon="100.193129">
<time>2014-08-12T15:48:31Z</time></trkpt>
<trkpt lat="25.702383" lon="100.193029">
<time>2014-08-12T15:48:32Z</time></trkpt>
<trkpt lat="25.702353" lon="100.192818">
<time>2014-08-12T15:48:33Z</time></trkpt>
<trkpt lat="25.702303" lon="100.192598">
<time>2014-08-12T15:48:34Z</time></trkpt>
<trkpt lat="25.702252" lon="100.192397">
<time>2014-08-12T15:48:35Z</time></trkpt>
<trkpt lat="25.702202" lon="100.192257">
<time>2014-08-12T15:48:36Z</time></trkpt>
<trkpt lat="25.702202" lon="100.192247">
<time>2014-08-12T15:48:37Z</time></trkpt>
<trkpt lat="25.702202" lon="100.192247">
<time>2014-08-12T15:48:38Z</time></trkpt>
<trkpt lat="25.703911" lon="100.191446">
<time>2014-08-12T15:48:39Z</time></trkpt>
<trkpt lat="25.704321" lon="100.191255">
<time>2014-08-12T15:48:40Z</time></trkpt>
<trkpt lat="25.706401" lon="100.190323">
<time>2014-08-12T15:48:41Z</time></trkpt>
<trkpt lat="25.706971" lon="100.190053">
<time>2014-08-12T15:48:42Z</time></trkpt>
<trkpt lat="25.707531" lon="100.189782">
<time>2014-08-12T15:48:43Z</time></trkpt>
<trkpt lat="25.7081" lon="100.189512">
<time>2014-08-12T15:48:44Z</time></trkpt>
<trkpt lat="25.70862" lon="100.189241">
<time>2014-08-12T15:48:45Z</time></trkpt>
<trkpt lat="25.70913" lon="100.188981">
<time>2014-08-12T15:48:46Z</time></trkpt>
<trkpt lat="25.70964" lon="100.18874">
<time>2014-08-12T15:48:47Z</time></trkpt>
<trkpt lat="25.71093" lon="100.188169">
<time>2014-08-12T15:48:48Z</time></trkpt>
<trkpt lat="25.711379" lon="100.187959">
<time>2014-08-12T15:48:49Z</time></trkpt>
<trkpt lat="25.712579" lon="100.187397">
<time>2014-08-12T15:48:50Z</time></trkpt>
<trkpt lat="25.712639" lon="100.187367">
<time>2014-08-12T15:48:51Z</time></trkpt>
<trkpt lat="25.714779" lon="100.186355">
<time>2014-08-12T15:48:52Z</time></trkpt>
<trkpt lat="25.715348" lon="100.186085">
<time>2014-08-12T15:48:53Z</time></trkpt>
<trkpt lat="25.715918" lon="100.185814">
<time>2014-08-12T15:48:54Z</time></trkpt>
<trkpt lat="25.716488" lon="100.185534">
<time>2014-08-12T15:48:55Z</time></trkpt>
<trkpt lat="25.717498" lon="100.185053">
<time>2014-08-12T15:48:56Z</time></trkpt>
<trkpt lat="25.717558" lon="100.185033">
<time>2014-08-12T15:48:57Z</time></trkpt>
<trkpt lat="25.727444" lon="100.180132">
<time>2014-08-12T15:48:58Z</time></trkpt>
<trkpt lat="25.727444" lon="100.180132">
<time>2014-08-12T15:48:59Z</time></trkpt>
<trkpt lat="25.727624" lon="100.180152">
<time>2014-08-12T15:49:00Z</time></trkpt>
<trkpt lat="25.727895" lon="100.180213">
<time>2014-08-12T15:49:01Z</time></trkpt>
<trkpt lat="25.728245" lon="100.180383">
<time>2014-08-12T15:49:02Z</time></trkpt>
<trkpt lat="25.728596" lon="100.180623">
<time>2014-08-12T15:49:03Z</time></trkpt>
<trkpt lat="25.728766" lon="100.180663">
<time>2014-08-12T15:49:04Z</time></trkpt>
<trkpt lat="25.728956" lon="100.180673">
<time>2014-08-12T15:49:05Z</time></trkpt>
<trkpt lat="25.729156" lon="100.180673">
<time>2014-08-12T15:49:06Z</time></trkpt>
<trkpt lat="25.729416" lon="100.180623">
<time>2014-08-12T15:49:07Z</time></trkpt>
<trkpt lat="25.729696" lon="100.180543">
<time>2014-08-12T15:49:08Z</time></trkpt>
<trkpt lat="25.729866" lon="100.180493">
<time>2014-08-12T15:49:09Z</time></trkpt>
<trkpt lat="25.730077" lon="100.180513">
<time>2014-08-12T15:49:10Z</time></trkpt>
<trkpt lat="25.730257" lon="100.180563">
<time>2014-08-12T15:49:11Z</time></trkpt>
<trkpt lat="25.730427" lon="100.180623">
<time>2014-08-12T15:49:12Z</time></trkpt>
<trkpt lat="25.730427" lon="100.180623">
<time>2014-08-12T15:49:13Z</time></trkpt>
<trkpt lat="25.730637" lon="100.180673">
<time>2014-08-12T15:49:14Z</time></trkpt>
<trkpt lat="25.730797" lon="100.180683">
<time>2014-08-12T15:49:15Z</time></trkpt>
<trkpt lat="25.730887" lon="100.180633">
<time>2014-08-12T15:49:16Z</time></trkpt>
<trkpt lat="25.730927" lon="100.180563">
<time>2014-08-12T15:49:17Z</time></trkpt>
<trkpt lat="25.730957" lon="100.180443">
<time>2014-08-12T15:49:18Z</time></trkpt>
<trkpt lat="25.731007" lon="100.180403">
<time>2014-08-12T15:49:19Z</time></trkpt>
<trkpt lat="25.731157" lon="100.180343">
<time>2014-08-12T15:49:20Z</time></trkpt>
<trkpt lat="25.731177" lon="100.180303">
<time>2014-08-12T15:49:21Z</time></trkpt>
<trkpt lat="25.731217" lon="100.180142">
<time>2014-08-12T15:49:22Z</time></trkpt>
<trkpt lat="25.731266" lon="100.179862">
<time>2014-08-12T15:49:23Z</time></trkpt>
<trkpt lat="25.731316" lon="100.179621">
<time>2014-08-12T15:49:24Z</time></trkpt>
<trkpt lat="25.731345" lon="100.179451">
<time>2014-08-12T15:49:25Z</time></trkpt>
<trkpt lat="25.731365" lon="100.179271">
<time>2014-08-12T15:49:26Z</time></trkpt>
<trkpt lat="25.731385" lon="100.17914">
<time>2014-08-12T15:49:27Z</time></trkpt>
<trkpt lat="25.731395" lon="100.17906">
<time>2014-08-12T15:49:28Z</time></trkpt>
<trkpt lat="25.731415" lon="100.17902">
<time>2014-08-12T15:49:29Z</time></trkpt>
<trkpt lat="25.731515" lon="100.17899">
<time>2014-08-12T15:49:30Z</time></trkpt>
<trkpt lat="25.731555" lon="100.17894">
<time>2014-08-12T15:49:31Z</time></trkpt>
<trkpt lat="25.731574" lon="100.17878">
<time>2014-08-12T15:49:32Z</time></trkpt>
<trkpt lat="25.731573" lon="100.178198">
<time>2014-08-12T15:49:33Z</time></trkpt>
<trkpt lat="25.731563" lon="100.178008">
<time>2014-08-12T15:49:34Z</time></trkpt>
<trkpt lat="25.731533" lon="100.177958">
<time>2014-08-12T15:49:35Z</time></trkpt>
<trkpt lat="25.731483" lon="100.177948">
<time>2014-08-12T15:49:36Z</time></trkpt>
<trkpt lat="25.731232" lon="100.177938">
<time>2014-08-12T15:49:37Z</time></trkpt>
<trkpt lat="25.731172" lon="100.177928">
<time>2014-08-12T15:49:38Z</time></trkpt>
<trkpt lat="25.731132" lon="100.177898">
<time>2014-08-12T15:49:39Z</time></trkpt>
<trkpt lat="25.731082" lon="100.177838">
<time>2014-08-12T15:49:40Z</time></trkpt>
<trkpt lat="25.730781" lon="100.177497">
<time>2014-08-12T15:49:41Z</time></trkpt>
<trkpt lat="25.730631" lon="100.177306">
<time>2014-08-12T15:49:42Z</time></trkpt>
<trkpt lat="25.73034" lon="100.176856">
<time>2014-08-12T15:49:43Z</time></trkpt>
<trkpt lat="25.730189" lon="100.176635">
<time>2014-08-12T15:49:44Z</time></trkpt>
<trkpt lat="25.729858" lon="100.176214">
<time>2014-08-12T15:49:45Z</time></trkpt>
<trkpt lat="25.729598" lon="100.175873">
<time>2014-08-12T15:49:46Z</time></trkpt>
<trkpt lat="25.729487" lon="100.175773">
<time>2014-08-12T15:49:47Z</time></trkpt>
<trkpt lat="25.729167" lon="100.175543">
<time>2014-08-12T15:49:48Z</time></trkpt>
<trkpt lat="25.729097" lon="100.175473">
<time>2014-08-12T15:49:49Z</time></trkpt>
<trkpt lat="25.728845" lon="100.174861">
<time>2014-08-12T15:49:50Z</time></trkpt>
<trkpt lat="25.728554" lon="100.17438">
<time>2014-08-12T15:49:51Z</time></trkpt>
<trkpt lat="25.728384" lon="100.1741">
<time>2014-08-12T15:49:52Z</time></trkpt>
<trkpt lat="25.728313" lon="100.17405">
<time>2014-08-12T15:49:53Z</time></trkpt>
<trkpt lat="25.728233" lon="100.17406">
<time>2014-08-12T15:49:54Z</time></trkpt>
<trkpt lat="25.728143" lon="100.1741">
<time>2014-08-12T15:49:55Z</time></trkpt>
<trkpt lat="25.728054" lon="100.17416">
<time>2014-08-12T15:49:56Z</time></trkpt>
<trkpt lat="25.727884" lon="100.17431">
<time>2014-08-12T15:49:57Z</time></trkpt>
<trkpt lat="25.727594" lon="100.174621">
<time>2014-08-12T15:49:58Z</time></trkpt>
<trkpt lat="25.727524" lon="100.174691">
<time>2014-08-12T15:49:59Z</time></trkpt>
<trkpt lat="25.727434" lon="100.174681">
<time>2014-08-12T15:50:00Z</time></trkpt>
<trkpt lat="25.727354" lon="100.174601">
<time>2014-08-12T15:50:01Z</time></trkpt>
<trkpt lat="25.727043" lon="100.17415">
<time>2014-08-12T15:50:02Z</time></trkpt>
<trkpt lat="25.726792" lon="100.173799">
<time>2014-08-12T15:50:03Z</time></trkpt>
<trkpt lat="25.726622" lon="100.173549">
<time>2014-08-12T15:50:04Z</time></trkpt>
<trkpt lat="25.726271" lon="100.173128">
<time>2014-08-12T15:50:05Z</time></trkpt>
<trkpt lat="25.72594" lon="100.172717">
<time>2014-08-12T15:50:06Z</time></trkpt>
<trkpt lat="25.725559" lon="100.172256">
<time>2014-08-12T15:50:07Z</time></trkpt>
<trkpt lat="25.725458" lon="100.172146">
<time>2014-08-12T15:50:08Z</time></trkpt>
<trkpt lat="25.725177" lon="100.171775">
<time>2014-08-12T15:50:09Z</time></trkpt>
<trkpt lat="25.724816" lon="100.171304">
<time>2014-08-12T15:50:10Z</time></trkpt>
<trkpt lat="25.724545" lon="100.170933">
<time>2014-08-12T15:50:11Z</time></trkpt>
<trkpt lat="25.724375" lon="100.170713">
<time>2014-08-12T15:50:12Z</time></trkpt>
<trkpt lat="25.724034" lon="100.170272">
<time>2014-08-12T15:50:13Z</time></trkpt>
<trkpt lat="25.723763" lon="100.169931">
<time>2014-08-12T15:50:14Z</time></trkpt>
<trkpt lat="25.723492" lon="100.16956">
<time>2014-08-12T15:50:15Z</time></trkpt>
<trkpt lat="25.723302" lon="100.16933">
<time>2014-08-12T15:50:16Z</time></trkpt>
<trkpt lat="25.723191" lon="100.16921">
<time>2014-08-12T15:50:17Z</time></trkpt>
<trkpt lat="25.722821" lon="100.168879">
<time>2014-08-12T15:50:18Z</time></trkpt>
<trkpt lat="25.7227" lon="100.168759">
<time>2014-08-12T15:50:19Z</time></trkpt>
<trkpt lat="25.722359" lon="100.168388">
<time>2014-08-12T15:50:20Z</time></trkpt>
<trkpt lat="25.722139" lon="100.168137">
<time>2014-08-12T15:50:21Z</time></trkpt>
<trkpt lat="25.721828" lon="100.167747">
<time>2014-08-12T15:50:22Z</time></trkpt>
<trkpt lat="25.721627" lon="100.167486">
<time>2014-08-12T15:50:23Z</time></trkpt>
<trkpt lat="25.721306" lon="100.167105">
<time>2014-08-12T15:50:24Z</time></trkpt>
<trkpt lat="25.721006" lon="100.166755">
<time>2014-08-12T15:50:25Z</time></trkpt>
<trkpt lat="25.720725" lon="100.166404">
<time>2014-08-12T15:50:26Z</time></trkpt>
<trkpt lat="25.720544" lon="100.166193">
<time>2014-08-12T15:50:27Z</time></trkpt>
<trkpt lat="25.720214" lon="100.165903">
<time>2014-08-12T15:50:28Z</time></trkpt>
<trkpt lat="25.719743" lon="100.165532">
<time>2014-08-12T15:50:29Z</time></trkpt>
<trkpt lat="25.719382" lon="100.165221">
<time>2014-08-12T15:50:30Z</time></trkpt>
<trkpt lat="25.719041" lon="100.164861">
<time>2014-08-12T15:50:31Z</time></trkpt>
<trkpt lat="25.71871" lon="100.16451">
<time>2014-08-12T15:50:32Z</time></trkpt>
<trkpt lat="25.7186" lon="100.16441">
<time>2014-08-12T15:50:33Z</time></trkpt>
<trkpt lat="25.71848" lon="100.16433">
<time>2014-08-12T15:50:34Z</time></trkpt>
<trkpt lat="25.718339" lon="100.164289">
<time>2014-08-12T15:50:35Z</time></trkpt>
<trkpt lat="25.717919" lon="100.164209">
<time>2014-08-12T15:50:36Z</time></trkpt>
<trkpt lat="25.717639" lon="100.164149">
<time>2014-08-12T15:50:37Z</time></trkpt>
<trkpt lat="25.717098" lon="100.164009">
<time>2014-08-12T15:50:38Z</time></trkpt>
<trkpt lat="25.716818" lon="100.163939">
<time>2014-08-12T15:50:39Z</time></trkpt>
<trkpt lat="25.716418" lon="100.163949">
<time>2014-08-12T15:50:40Z</time></trkpt>
<trkpt lat="25.716077" lon="100.163919">
<time>2014-08-12T15:50:41Z</time></trkpt>
<trkpt lat="25.715597" lon="100.163778">
<time>2014-08-12T15:50:42Z</time></trkpt>
<trkpt lat="25.715337" lon="100.163698">
<time>2014-08-12T15:50:43Z</time></trkpt>
<trkpt lat="25.714976" lon="100.163568">
<time>2014-08-12T15:50:44Z</time></trkpt>
<trkpt lat="25.714806" lon="100.163558">
<time>2014-08-12T15:50:45Z</time></trkpt>
<trkpt lat="25.714616" lon="100.163558">
<time>2014-08-12T15:50:46Z</time></trkpt>
<trkpt lat="25.714176" lon="100.163588">
<time>2014-08-12T15:50:47Z</time></trkpt>
<trkpt lat="25.714026" lon="100.163588">
<time>2014-08-12T15:50:48Z</time></trkpt>
<trkpt lat="25.713916" lon="100.163578">
<time>2014-08-12T15:50:49Z</time></trkpt>
<trkpt lat="25.713866" lon="100.163558">
<time>2014-08-12T15:50:50Z</time></trkpt>
<trkpt lat="25.713825" lon="100.163508">
<time>2014-08-12T15:50:51Z</time></trkpt>
<trkpt lat="25.713805" lon="100.163478">
<time>2014-08-12T15:50:52Z</time></trkpt>
<trkpt lat="25.713805" lon="100.163478">
<time>2014-08-12T15:50:53Z</time></trkpt>
<trkpt lat="25.714005" lon="100.163368">
<time>2014-08-12T15:50:54Z</time></trkpt>
<trkpt lat="25.714485" lon="100.163147">
<time>2014-08-12T15:50:55Z</time></trkpt>
<trkpt lat="25.714815" lon="100.163007">
<time>2014-08-12T15:50:56Z</time></trkpt>
<trkpt lat="25.715975" lon="100.162496">
<time>2014-08-12T15:50:57Z</time></trkpt>
<trkpt lat="25.717014" lon="100.162015">
<time>2014-08-12T15:50:58Z</time></trkpt>
<trkpt lat="25.717774" lon="100.161644">
<time>2014-08-12T15:50:59Z</time></trkpt>
<trkpt lat="25.718464" lon="100.161273">
<time>2014-08-12T15:51:00Z</time></trkpt>
<trkpt lat="25.719334" lon="100.160832">
<time>2014-08-12T15:51:01Z</time></trkpt>
<trkpt lat="25.720303" lon="100.160321">
<time>2014-08-12T15:51:02Z</time></trkpt>
<trkpt lat="25.721323" lon="100.15977">
<time>2014-08-12T15:51:03Z</time></trkpt>
<trkpt lat="25.721962" lon="100.159409">
<time>2014-08-12T15:51:04Z</time></trkpt>
<trkpt lat="25.722902" lon="100.158908">
<time>2014-08-12T15:51:05Z</time></trkpt>
<trkpt lat="25.723082" lon="100.158808">
<time>2014-08-12T15:51:06Z</time></trkpt>
<trkpt lat="25.723952" lon="100.158367">
<time>2014-08-12T15:51:07Z</time></trkpt>
<trkpt lat="25.724741" lon="100.157926">
<time>2014-08-12T15:51:08Z</time></trkpt>
<trkpt lat="25.725221" lon="100.157656">
<time>2014-08-12T15:51:09Z</time></trkpt>
<trkpt lat="25.725691" lon="100.157385">
<time>2014-08-12T15:51:10Z</time></trkpt>
<trkpt lat="25.726071" lon="100.157175">
<time>2014-08-12T15:51:11Z</time></trkpt>
<trkpt lat="25.726471" lon="100.156964">
<time>2014-08-12T15:51:12Z</time></trkpt>
<trkpt lat="25.72717" lon="100.156583">
<time>2014-08-12T15:51:13Z</time></trkpt>
<trkpt lat="25.72875" lon="100.155712">
<time>2014-08-12T15:51:14Z</time></trkpt>
<trkpt lat="25.729249" lon="100.155431">
<time>2014-08-12T15:51:15Z</time></trkpt>
<trkpt lat="25.730499" lon="100.15476">
<time>2014-08-12T15:51:16Z</time></trkpt>
<trkpt lat="25.732038" lon="100.153908">
<time>2014-08-12T15:51:17Z</time></trkpt>
<trkpt lat="25.733348" lon="100.153176">
<time>2014-08-12T15:51:18Z</time></trkpt>
<trkpt lat="25.734457" lon="100.152565">
<time>2014-08-12T15:51:19Z</time></trkpt>
<trkpt lat="25.735547" lon="100.151954">
<time>2014-08-12T15:51:20Z</time></trkpt>
<trkpt lat="25.735987" lon="100.151723">
<time>2014-08-12T15:51:21Z</time></trkpt>
<trkpt lat="25.736576" lon="100.151413">
<time>2014-08-12T15:51:22Z</time></trkpt>
<trkpt lat="25.737596" lon="100.150832">
<time>2014-08-12T15:51:23Z</time></trkpt>
<trkpt lat="25.738976" lon="100.15011">
<time>2014-08-12T15:51:24Z</time></trkpt>
<trkpt lat="25.740115" lon="100.149509">
<time>2014-08-12T15:51:25Z</time></trkpt>
<trkpt lat="25.740165" lon="100.149479">
<time>2014-08-12T15:51:26Z</time></trkpt>
<trkpt lat="25.741065" lon="100.149008">
<time>2014-08-12T15:51:27Z</time></trkpt>
<trkpt lat="25.741625" lon="100.148697">
<time>2014-08-12T15:51:28Z</time></trkpt>
<trkpt lat="25.742125" lon="100.148447">
<time>2014-08-12T15:51:29Z</time></trkpt>
<trkpt lat="25.742664" lon="100.148166">
<time>2014-08-12T15:51:30Z</time></trkpt>
<trkpt lat="25.743414" lon="100.147685">
<time>2014-08-12T15:51:31Z</time></trkpt>
<trkpt lat="25.744164" lon="100.147215">
<time>2014-08-12T15:51:32Z</time></trkpt>
<trkpt lat="25.744484" lon="100.147004">
<time>2014-08-12T15:51:33Z</time></trkpt>
<trkpt lat="25.745633" lon="100.146403">
<time>2014-08-12T15:51:34Z</time></trkpt>
<trkpt lat="25.747033" lon="100.145692">
<time>2014-08-12T15:51:35Z</time></trkpt>
<trkpt lat="25.748113" lon="100.145141">
<time>2014-08-12T15:51:36Z</time></trkpt>
<trkpt lat="25.750022" lon="100.144169">
<time>2014-08-12T15:51:37Z</time></trkpt>
<trkpt lat="25.754131" lon="100.141915">
<time>2014-08-12T15:51:38Z</time></trkpt>
<trkpt lat="25.754421" lon="100.141754">
<time>2014-08-12T15:51:39Z</time></trkpt>
<trkpt lat="25.75775" lon="100.139891">
<time>2014-08-12T15:51:40Z</time></trkpt>
<trkpt lat="25.75823" lon="100.139631">
<time>2014-08-12T15:51:41Z</time></trkpt>
<trkpt lat="25.761439" lon="100.137938">
<time>2014-08-12T15:51:42Z</time></trkpt>
<trkpt lat="25.761859" lon="100.137767">
<time>2014-08-12T15:51:43Z</time></trkpt>
<trkpt lat="25.762079" lon="100.137707">
<time>2014-08-12T15:51:44Z</time></trkpt>
<trkpt lat="25.762119" lon="100.137697">
<time>2014-08-12T15:51:45Z</time></trkpt>
<trkpt lat="25.76232" lon="100.137667">
<time>2014-08-12T15:51:46Z</time></trkpt>
<trkpt lat="25.7625" lon="100.137657">
<time>2014-08-12T15:51:47Z</time></trkpt>
<trkpt lat="25.76341" lon="100.137597">
<time>2014-08-12T15:51:48Z</time></trkpt>
<trkpt lat="25.766182" lon="100.137447">
<time>2014-08-12T15:51:49Z</time></trkpt>
<trkpt lat="25.767452" lon="100.137376">
<time>2014-08-12T15:51:50Z</time></trkpt>
<trkpt lat="25.769593" lon="100.137276">
<time>2014-08-12T15:51:51Z</time></trkpt>
<trkpt lat="25.771905" lon="100.137166">
<time>2014-08-12T15:51:52Z</time></trkpt>
<trkpt lat="25.772365" lon="100.137136">
<time>2014-08-12T15:51:53Z</time></trkpt>
<trkpt lat="25.772835" lon="100.137116">
<time>2014-08-12T15:51:54Z</time></trkpt>
<trkpt lat="25.773696" lon="100.137076">
<time>2014-08-12T15:51:55Z</time></trkpt>
<trkpt lat="25.773776" lon="100.137076">
<time>2014-08-12T15:51:56Z</time></trkpt>
<trkpt lat="25.774376" lon="100.137026">
<time>2014-08-12T15:51:57Z</time></trkpt>
<trkpt lat="25.774826" lon="100.137006">
<time>2014-08-12T15:51:58Z</time></trkpt>
<trkpt lat="25.775276" lon="100.136966">
<time>2014-08-12T15:51:59Z</time></trkpt>
<trkpt lat="25.775687" lon="100.136936">
<time>2014-08-12T15:52:00Z</time></trkpt>
<trkpt lat="25.776147" lon="100.136895">
<time>2014-08-12T15:52:01Z</time></trkpt>
<trkpt lat="25.777117" lon="100.136825">
<time>2014-08-12T15:52:02Z</time></trkpt>
<trkpt lat="25.777768" lon="100.136785">
<time>2014-08-12T15:52:03Z</time></trkpt>
<trkpt lat="25.778208" lon="100.136745">
<time>2014-08-12T15:52:04Z</time></trkpt>
<trkpt lat="25.778668" lon="100.136705">
<time>2014-08-12T15:52:05Z</time></trkpt>
<trkpt lat="25.779108" lon="100.136675">
<time>2014-08-12T15:52:06Z</time></trkpt>
<trkpt lat="25.779569" lon="100.136645">
<time>2014-08-12T15:52:07Z</time></trkpt>
<trkpt lat="25.780009" lon="100.136605">
<time>2014-08-12T15:52:08Z</time></trkpt>
<trkpt lat="25.780459" lon="100.136575">
<time>2014-08-12T15:52:09Z</time></trkpt>
<trkpt lat="25.780919" lon="100.136535">
<time>2014-08-12T15:52:10Z</time></trkpt>
<trkpt lat="25.7814" lon="100.136495">
<time>2014-08-12T15:52:11Z</time></trkpt>
<trkpt lat="25.7818" lon="100.136455">
<time>2014-08-12T15:52:12Z</time></trkpt>
<trkpt lat="25.78225" lon="100.136425">
<time>2014-08-12T15:52:13Z</time></trkpt>
<trkpt lat="25.78273" lon="100.136394">
<time>2014-08-12T15:52:14Z</time></trkpt>
<trkpt lat="25.783551" lon="100.136334">
<time>2014-08-12T15:52:15Z</time></trkpt>
<trkpt lat="25.783701" lon="100.136324">
<time>2014-08-12T15:52:16Z</time></trkpt>
<trkpt lat="25.784021" lon="100.136294">
<time>2014-08-12T15:52:17Z</time></trkpt>
<trkpt lat="25.784421" lon="100.136254">
<time>2014-08-12T15:52:18Z</time></trkpt>
<trkpt lat="25.784891" lon="100.136224">
<time>2014-08-12T15:52:19Z</time></trkpt>
<trkpt lat="25.785331" lon="100.136184">
<time>2014-08-12T15:52:20Z</time></trkpt>
<trkpt lat="25.785782" lon="100.136154">
<time>2014-08-12T15:52:21Z</time></trkpt>
<trkpt lat="25.786182" lon="100.136124">
<time>2014-08-12T15:52:22Z</time></trkpt>
<trkpt lat="25.786662" lon="100.136074">
<time>2014-08-12T15:52:23Z</time></trkpt>
<trkpt lat="25.786962" lon="100.136054">
<time>2014-08-12T15:52:24Z</time></trkpt>
<trkpt lat="25.787182" lon="100.136034">
<time>2014-08-12T15:52:25Z</time></trkpt>
<trkpt lat="25.787793" lon="100.135994">
<time>2014-08-12T15:52:26Z</time></trkpt>
<trkpt lat="25.787843" lon="100.135994">
<time>2014-08-12T15:52:27Z</time></trkpt>
<trkpt lat="25.788273" lon="100.135964">
<time>2014-08-12T15:52:28Z</time></trkpt>
<trkpt lat="25.788743" lon="100.135934">
<time>2014-08-12T15:52:29Z</time></trkpt>
<trkpt lat="25.789184" lon="100.135904">
<time>2014-08-12T15:52:30Z</time></trkpt>
<trkpt lat="25.789644" lon="100.135863">
<time>2014-08-12T15:52:31Z</time></trkpt>
<trkpt lat="25.789784" lon="100.135853">
<time>2014-08-12T15:52:32Z</time></trkpt>
<trkpt lat="25.790064" lon="100.135823">
<time>2014-08-12T15:52:33Z</time></trkpt>
<trkpt lat="25.790104" lon="100.135823">
<time>2014-08-12T15:52:34Z</time></trkpt>
<trkpt lat="25.790564" lon="100.135783">
<time>2014-08-12T15:52:35Z</time></trkpt>
<trkpt lat="25.791024" lon="100.135743">
<time>2014-08-12T15:52:36Z</time></trkpt>
<trkpt lat="25.791545" lon="100.135703">
<time>2014-08-12T15:52:37Z</time></trkpt>
<trkpt lat="25.791825" lon="100.135683">
<time>2014-08-12T15:52:38Z</time></trkpt>
<trkpt lat="25.792695" lon="100.135613">
<time>2014-08-12T15:52:39Z</time></trkpt>
<trkpt lat="25.793406" lon="100.135573">
<time>2014-08-12T15:52:40Z</time></trkpt>
<trkpt lat="25.793556" lon="100.135563">
<time>2014-08-12T15:52:41Z</time></trkpt>
<trkpt lat="25.793836" lon="100.135543">
<time>2014-08-12T15:52:42Z</time></trkpt>
<trkpt lat="25.794306" lon="100.135503">
<time>2014-08-12T15:52:43Z</time></trkpt>
<trkpt lat="25.794576" lon="100.135483">
<time>2014-08-12T15:52:44Z</time></trkpt>
<trkpt lat="25.795017" lon="100.135453">
<time>2014-08-12T15:52:45Z</time></trkpt>
<trkpt lat="25.795497" lon="100.135423">
<time>2014-08-12T15:52:46Z</time></trkpt>
<trkpt lat="25.795947" lon="100.135383">
<time>2014-08-12T15:52:47Z</time></trkpt>
<trkpt lat="25.796317" lon="100.135362">
<time>2014-08-12T15:52:48Z</time></trkpt>
<trkpt lat="25.796777" lon="100.135322">
<time>2014-08-12T15:52:49Z</time></trkpt>
<trkpt lat="25.797218" lon="100.135282">
<time>2014-08-12T15:52:50Z</time></trkpt>
<trkpt lat="25.797688" lon="100.135262">
<time>2014-08-12T15:52:51Z</time></trkpt>
<trkpt lat="25.798218" lon="100.135232">
<time>2014-08-12T15:52:52Z</time></trkpt>
<trkpt lat="25.798598" lon="100.135192">
<time>2014-08-12T15:52:53Z</time></trkpt>
<trkpt lat="25.798999" lon="100.135162">
<time>2014-08-12T15:52:54Z</time></trkpt>
<trkpt lat="25.799079" lon="100.135152">
<time>2014-08-12T15:52:55Z</time></trkpt>
<trkpt lat="25.799479" lon="100.135132">
<time>2014-08-12T15:52:56Z</time></trkpt>
<trkpt lat="25.800079" lon="100.135092">
<time>2014-08-12T15:52:57Z</time></trkpt>
<trkpt lat="25.800539" lon="100.135062">
<time>2014-08-12T15:52:58Z</time></trkpt>
<trkpt lat="25.801" lon="100.135022">
<time>2014-08-12T15:52:59Z</time></trkpt>
<trkpt lat="25.8011" lon="100.135012">
<time>2014-08-12T15:53:00Z</time></trkpt>
<trkpt lat="25.80148" lon="100.134992">
<time>2014-08-12T15:53:01Z</time></trkpt>
<trkpt lat="25.80202" lon="100.134952">
<time>2014-08-12T15:53:02Z</time></trkpt>
<trkpt lat="25.803041" lon="100.134872">
<time>2014-08-12T15:53:03Z</time></trkpt>
<trkpt lat="25.803511" lon="100.134831">
<time>2014-08-12T15:53:04Z</time></trkpt>
<trkpt lat="25.803931" lon="100.134811">
<time>2014-08-12T15:53:05Z</time></trkpt>
<trkpt lat="25.804392" lon="100.134781">
<time>2014-08-12T15:53:06Z</time></trkpt>
<trkpt lat="25.804872" lon="100.134751">
<time>2014-08-12T15:53:07Z</time></trkpt>
<trkpt lat="25.805172" lon="100.134731">
<time>2014-08-12T15:53:08Z</time></trkpt>
<trkpt lat="25.805342" lon="100.134721">
<time>2014-08-12T15:53:09Z</time></trkpt>
<trkpt lat="25.805822" lon="100.134691">
<time>2014-08-12T15:53:10Z</time></trkpt>
<trkpt lat="25.806353" lon="100.134671">
<time>2014-08-12T15:53:11Z</time></trkpt>
<trkpt lat="25.807013" lon="100.134631">
<time>2014-08-12T15:53:12Z</time></trkpt>
<trkpt lat="25.807483" lon="100.134601">
<time>2014-08-12T15:53:13Z</time></trkpt>
<trkpt lat="25.807963" lon="100.134581">
<time>2014-08-12T15:53:14Z</time></trkpt>
<trkpt lat="25.808444" lon="100.134561">
<time>2014-08-12T15:53:15Z</time></trkpt>
<trkpt lat="25.808894" lon="100.134531">
<time>2014-08-12T15:53:16Z</time></trkpt>
<trkpt lat="25.809394" lon="100.134511">
<time>2014-08-12T15:53:17Z</time></trkpt>
<trkpt lat="25.810185" lon="100.134451">
<time>2014-08-12T15:53:18Z</time></trkpt>
<trkpt lat="25.810515" lon="100.134431">
<time>2014-08-12T15:53:19Z</time></trkpt>
<trkpt lat="25.810675" lon="100.134421">
<time>2014-08-12T15:53:20Z</time></trkpt>
<trkpt lat="25.811125" lon="100.134391">
<time>2014-08-12T15:53:21Z</time></trkpt>
<trkpt lat="25.811586" lon="100.134361">
<time>2014-08-12T15:53:22Z</time></trkpt>
<trkpt lat="25.812086" lon="100.13432">
<time>2014-08-12T15:53:23Z</time></trkpt>
<trkpt lat="25.812576" lon="100.13429">
<time>2014-08-12T15:53:24Z</time></trkpt>
<trkpt lat="25.813026" lon="100.13426">
<time>2014-08-12T15:53:25Z</time></trkpt>
<trkpt lat="25.813497" lon="100.13423">
<time>2014-08-12T15:53:26Z</time></trkpt>
<trkpt lat="25.813957" lon="100.1342">
<time>2014-08-12T15:53:27Z</time></trkpt>
<trkpt lat="25.814417" lon="100.13417">
<time>2014-08-12T15:53:28Z</time></trkpt>
<trkpt lat="25.814877" lon="100.13413">
<time>2014-08-12T15:53:29Z</time></trkpt>
<trkpt lat="25.815217" lon="100.13411">
<time>2014-08-12T15:53:30Z</time></trkpt>
<trkpt lat="25.815227" lon="100.13411">
<time>2014-08-12T15:53:31Z</time></trkpt>
<trkpt lat="25.815688" lon="100.13409">
<time>2014-08-12T15:53:32Z</time></trkpt>
<trkpt lat="25.816128" lon="100.13406">
<time>2014-08-12T15:53:33Z</time></trkpt>
<trkpt lat="25.816608" lon="100.13405">
<time>2014-08-12T15:53:34Z</time></trkpt>
<trkpt lat="25.816778" lon="100.13405">
<time>2014-08-12T15:53:35Z</time></trkpt>
<trkpt lat="25.817009" lon="100.13403">
<time>2014-08-12T15:53:36Z</time></trkpt>
<trkpt lat="25.817439" lon="100.13402">
<time>2014-08-12T15:53:37Z</time></trkpt>
<trkpt lat="25.817589" lon="100.13401">
<time>2014-08-12T15:53:38Z</time></trkpt>
<trkpt lat="25.817889" lon="100.13399">
<time>2014-08-12T15:53:39Z</time></trkpt>
<trkpt lat="25.818339" lon="100.13396">
<time>2014-08-12T15:53:40Z</time></trkpt>
<trkpt lat="25.81879" lon="100.13392">
<time>2014-08-12T15:53:41Z</time></trkpt>
<trkpt lat="25.81925" lon="100.13389">
<time>2014-08-12T15:53:42Z</time></trkpt>
<trkpt lat="25.81968" lon="100.133839">
<time>2014-08-12T15:53:43Z</time></trkpt>
<trkpt lat="25.82008" lon="100.133809">
<time>2014-08-12T15:53:44Z</time></trkpt>
<trkpt lat="25.82053" lon="100.133759">
<time>2014-08-12T15:53:45Z</time></trkpt>
<trkpt lat="25.821191" lon="100.133719">
<time>2014-08-12T15:53:46Z</time></trkpt>
<trkpt lat="25.821831" lon="100.133689">
<time>2014-08-12T15:53:47Z</time></trkpt>
<trkpt lat="25.822472" lon="100.133669">
<time>2014-08-12T15:53:48Z</time></trkpt>
<trkpt lat="25.823022" lon="100.133669">
<time>2014-08-12T15:53:49Z</time></trkpt>
<trkpt lat="25.823822" lon="100.133659">
<time>2014-08-12T15:53:50Z</time></trkpt>
<trkpt lat="25.824273" lon="100.133669">
<time>2014-08-12T15:53:51Z</time></trkpt>
<trkpt lat="25.824723" lon="100.133649">
<time>2014-08-12T15:53:52Z</time></trkpt>
<trkpt lat="25.825183" lon="100.133649">
<time>2014-08-12T15:53:53Z</time></trkpt>
<trkpt lat="25.825864" lon="100.133609">
<time>2014-08-12T15:53:54Z</time></trkpt>
<trkpt lat="25.826104" lon="100.133589">
<time>2014-08-12T15:53:55Z</time></trkpt>
<trkpt lat="25.826324" lon="100.133569">
<time>2014-08-12T15:53:56Z</time></trkpt>
<trkpt lat="25.826634" lon="100.133549">
<time>2014-08-12T15:53:57Z</time></trkpt>
<trkpt lat="25.827364" lon="100.133469">
<time>2014-08-12T15:53:58Z</time></trkpt>
<trkpt lat="25.827505" lon="100.133439">
<time>2014-08-12T15:53:59Z</time></trkpt>
<trkpt lat="25.827585" lon="100.133429">
<time>2014-08-12T15:54:00Z</time></trkpt>
<trkpt lat="25.828695" lon="100.133288">
<time>2014-08-12T15:54:01Z</time></trkpt>
<trkpt lat="25.828975" lon="100.133258">
<time>2014-08-12T15:54:02Z</time></trkpt>
<trkpt lat="25.829465" lon="100.133178">
<time>2014-08-12T15:54:03Z</time></trkpt>
<trkpt lat="25.829886" lon="100.133138">
<time>2014-08-12T15:54:04Z</time></trkpt>
<trkpt lat="25.830056" lon="100.133138">
<time>2014-08-12T15:54:05Z</time></trkpt>
<trkpt lat="25.830436" lon="100.133118">
<time>2014-08-12T15:54:06Z</time></trkpt>
<trkpt lat="25.831196" lon="100.133058">
<time>2014-08-12T15:54:07Z</time></trkpt>
<trkpt lat="25.832517" lon="100.133008">
<time>2014-08-12T15:54:08Z</time></trkpt>
<trkpt lat="25.833238" lon="100.132988">
<time>2014-08-12T15:54:09Z</time></trkpt>
<trkpt lat="25.833348" lon="100.132988">
<time>2014-08-12T15:54:10Z</time></trkpt>
<trkpt lat="25.833598" lon="100.132968">
<time>2014-08-12T15:54:11Z</time></trkpt>
<trkpt lat="25.834038" lon="100.132948">
<time>2014-08-12T15:54:12Z</time></trkpt>
<trkpt lat="25.834238" lon="100.132938">
<time>2014-08-12T15:54:13Z</time></trkpt>
<trkpt lat="25.835289" lon="100.132888">
<time>2014-08-12T15:54:14Z</time></trkpt>
<trkpt lat="25.835959" lon="100.132878">
<time>2014-08-12T15:54:15Z</time></trkpt>
<trkpt lat="25.83718" lon="100.132817">
<time>2014-08-12T15:54:16Z</time></trkpt>
<trkpt lat="25.83729" lon="100.132817">
<time>2014-08-12T15:54:17Z</time></trkpt>
<trkpt lat="25.838121" lon="100.132787">
<time>2014-08-12T15:54:18Z</time></trkpt>
<trkpt lat="25.838641" lon="100.132767">
<time>2014-08-12T15:54:19Z</time></trkpt>
<trkpt lat="25.838951" lon="100.132767">
<time>2014-08-12T15:54:20Z</time></trkpt>
<trkpt lat="25.840002" lon="100.132757">
<time>2014-08-12T15:54:21Z</time></trkpt>
<trkpt lat="25.841423" lon="100.132697">
<time>2014-08-12T15:54:22Z</time></trkpt>
<trkpt lat="25.842343" lon="100.132627">
<time>2014-08-12T15:54:23Z</time></trkpt>
<trkpt lat="25.843774" lon="100.132487">
<time>2014-08-12T15:54:24Z</time></trkpt>
<trkpt lat="25.844314" lon="100.132437">
<time>2014-08-12T15:54:25Z</time></trkpt>
<trkpt lat="25.845325" lon="100.132347">
<time>2014-08-12T15:54:26Z</time></trkpt>
<trkpt lat="25.845325" lon="100.132347">
<time>2014-08-12T15:54:27Z</time></trkpt>
<trkpt lat="25.845495" lon="100.132387">
<time>2014-08-12T15:54:28Z</time></trkpt>
<trkpt lat="25.845685" lon="100.132457">
<time>2014-08-12T15:54:29Z</time></trkpt>
<trkpt lat="25.846196" lon="100.132577">
<time>2014-08-12T15:54:30Z</time></trkpt>
<trkpt lat="25.846706" lon="100.132667">
<time>2014-08-12T15:54:31Z</time></trkpt>
<trkpt lat="25.847096" lon="100.132757">
<time>2014-08-12T15:54:32Z</time></trkpt>
<trkpt lat="25.847577" lon="100.132837">
<time>2014-08-12T15:54:33Z</time></trkpt>
<trkpt lat="25.847847" lon="100.132907">
<time>2014-08-12T15:54:34Z</time></trkpt>
<trkpt lat="25.848298" lon="100.133018">
<time>2014-08-12T15:54:35Z</time></trkpt>
<trkpt lat="25.848418" lon="100.133017">
<time>2014-08-12T15:54:36Z</time></trkpt>
<trkpt lat="25.848418" lon="100.133017">
<time>2014-08-12T15:54:37Z</time></trkpt>
<trkpt lat="25.84811" lon="100.135041">
<time>2014-08-12T15:54:38Z</time></trkpt>
<trkpt lat="25.847831" lon="100.135742">
<time>2014-08-12T15:54:39Z</time></trkpt>
<trkpt lat="25.846672" lon="100.137154">
<time>2014-08-12T15:54:40Z</time></trkpt>
<trkpt lat="25.843796" lon="100.14087">
<time>2014-08-12T15:54:41Z</time></trkpt>
<trkpt lat="25.843127" lon="100.141782">
<time>2014-08-12T15:54:42Z</time></trkpt>
<trkpt lat="25.842399" lon="100.143104">
<time>2014-08-12T15:54:43Z</time></trkpt>
<trkpt lat="25.841514" lon="100.146761">
<time>2014-08-12T15:54:44Z</time></trkpt>
<trkpt lat="25.841885" lon="100.147232">
<time>2014-08-12T15:54:45Z</time></trkpt>
<trkpt lat="25.842846" lon="100.147733">
<time>2014-08-12T15:54:46Z</time></trkpt>
<trkpt lat="25.843077" lon="100.147973">
<time>2014-08-12T15:54:47Z</time></trkpt>
<trkpt lat="25.843247" lon="100.147923">
<time>2014-08-12T15:54:48Z</time></trkpt>
<trkpt lat="25.843638" lon="100.148094">
<time>2014-08-12T15:54:49Z</time></trkpt>
<trkpt lat="25.843878" lon="100.148184">
<time>2014-08-12T15:54:50Z</time></trkpt>
<trkpt lat="25.844158" lon="100.148204">
<time>2014-08-12T15:54:51Z</time></trkpt>
<trkpt lat="25.844469" lon="100.148394">
<time>2014-08-12T15:54:52Z</time></trkpt>
<trkpt lat="25.84495" lon="100.148735">
<time>2014-08-12T15:54:53Z</time></trkpt>
<trkpt lat="25.84506" lon="100.148935">
<time>2014-08-12T15:54:54Z</time></trkpt>
<trkpt lat="25.84542" lon="100.148875">
<time>2014-08-12T15:54:55Z</time></trkpt>
<trkpt lat="25.84582" lon="100.148875">
<time>2014-08-12T15:54:56Z</time></trkpt>
<trkpt lat="25.84591" lon="100.148845">
<time>2014-08-12T15:54:57Z</time></trkpt>
<trkpt lat="25.846401" lon="100.149055">
<time>2014-08-12T15:54:58Z</time></trkpt>
<trkpt lat="25.846501" lon="100.149166">
<time>2014-08-12T15:54:59Z</time></trkpt>
<trkpt lat="25.847052" lon="100.149446">
<time>2014-08-12T15:55:00Z</time></trkpt>
<trkpt lat="25.847313" lon="100.149566">
<time>2014-08-12T15:55:01Z</time></trkpt>
<trkpt lat="25.847784" lon="100.150318">
<time>2014-08-12T15:55:02Z</time></trkpt>
<trkpt lat="25.848134" lon="100.150258">
<time>2014-08-12T15:55:03Z</time></trkpt>
<trkpt lat="25.848324" lon="100.150298">
<time>2014-08-12T15:55:04Z</time></trkpt>
<trkpt lat="25.848505" lon="100.150428">
<time>2014-08-12T15:55:05Z</time></trkpt>
<trkpt lat="25.848615" lon="100.150398">
<time>2014-08-12T15:55:06Z</time></trkpt>
<trkpt lat="25.848786" lon="100.150959">
<time>2014-08-12T15:55:07Z</time></trkpt>
<trkpt lat="25.848826" lon="100.151099">
<time>2014-08-12T15:55:08Z</time></trkpt>
<trkpt lat="25.848896" lon="100.151149">
<time>2014-08-12T15:55:09Z</time></trkpt>
<trkpt lat="25.849257" lon="100.15129">
<time>2014-08-12T15:55:10Z</time></trkpt>
<trkpt lat="25.849767" lon="100.1515">
<time>2014-08-12T15:55:11Z</time></trkpt>
<trkpt lat="25.850118" lon="100.151791">
<time>2014-08-12T15:55:12Z</time></trkpt>
<trkpt lat="25.850629" lon="100.151981">
<time>2014-08-12T15:55:13Z</time></trkpt>
<trkpt lat="25.850859" lon="100.152051">
<time>2014-08-12T15:55:14Z</time></trkpt>
<trkpt lat="25.850999" lon="100.152031">
<time>2014-08-12T15:55:15Z</time></trkpt>
<trkpt lat="25.851169" lon="100.152021">
<time>2014-08-12T15:55:16Z</time></trkpt>
<trkpt lat="25.85167" lon="100.152191">
<time>2014-08-12T15:55:17Z</time></trkpt>
<trkpt lat="25.85168" lon="100.152071">
<time>2014-08-12T15:55:18Z</time></trkpt>
<trkpt lat="25.852389" lon="100.15151">
<time>2014-08-12T15:55:19Z</time></trkpt>
<trkpt lat="25.852739" lon="100.1513">
<time>2014-08-12T15:55:20Z</time></trkpt>
<trkpt lat="25.852989" lon="100.151219">
<time>2014-08-12T15:55:21Z</time></trkpt>
<trkpt lat="25.853189" lon="100.151169">
<time>2014-08-12T15:55:22Z</time></trkpt>
<trkpt lat="25.853349" lon="100.151179">
<time>2014-08-12T15:55:23Z</time></trkpt>
<trkpt lat="25.853549" lon="100.151079">
<time>2014-08-12T15:55:24Z</time></trkpt>
<trkpt lat="25.853829" lon="100.151089">
<time>2014-08-12T15:55:25Z</time></trkpt>
<trkpt lat="25.854259" lon="100.150899">
<time>2014-08-12T15:55:26Z</time></trkpt>
<trkpt lat="25.854449" lon="100.150819">
<time>2014-08-12T15:55:27Z</time></trkpt>
<trkpt lat="25.854629" lon="100.150718">
<time>2014-08-12T15:55:28Z</time></trkpt>
<trkpt lat="25.854809" lon="100.150678">
<time>2014-08-12T15:55:29Z</time></trkpt>
<trkpt lat="25.85494" lon="100.150698">
<time>2014-08-12T15:55:30Z</time></trkpt>
<trkpt lat="25.85544" lon="100.150548">
<time>2014-08-12T15:55:31Z</time></trkpt>
<trkpt lat="25.85563" lon="100.150488">
<time>2014-08-12T15:55:32Z</time></trkpt>
<trkpt lat="25.855709" lon="100.150278">
<time>2014-08-12T15:55:33Z</time></trkpt>
<trkpt lat="25.855709" lon="100.149957">
<time>2014-08-12T15:55:34Z</time></trkpt>
<trkpt lat="25.855688" lon="100.149376">
<time>2014-08-12T15:55:35Z</time></trkpt>
<trkpt lat="25.855688" lon="100.149376">
<time>2014-08-12T15:55:36Z</time></trkpt>
<trkpt lat="25.855698" lon="100.149386">
<time>2014-08-12T15:55:37Z</time></trkpt>
<trkpt lat="25.855778" lon="100.149376">
<time>2014-08-12T15:55:38Z</time></trkpt>
<trkpt lat="25.856008" lon="100.149366">
<time>2014-08-12T15:55:39Z</time></trkpt>
<trkpt lat="25.856238" lon="100.149316">
<time>2014-08-12T15:55:40Z</time></trkpt>
<trkpt lat="25.856468" lon="100.149306">
<time>2014-08-12T15:55:41Z</time></trkpt>
<trkpt lat="25.856548" lon="100.149306">
<time>2014-08-12T15:55:42Z</time></trkpt>
<trkpt lat="25.856678" lon="100.149336">
<time>2014-08-12T15:55:43Z</time></trkpt>
<trkpt lat="25.856749" lon="100.149426">
<time>2014-08-12T15:55:44Z</time></trkpt>
<trkpt lat="25.856779" lon="100.149546">
<time>2014-08-12T15:55:45Z</time></trkpt>
<trkpt lat="25.856789" lon="100.149736">
<time>2014-08-12T15:55:46Z</time></trkpt>
<trkpt lat="25.85678" lon="100.150007">
<time>2014-08-12T15:55:47Z</time></trkpt>
<trkpt lat="25.85679" lon="100.150207">
<time>2014-08-12T15:55:48Z</time></trkpt>
<trkpt lat="25.85682" lon="100.150298">
<time>2014-08-12T15:55:49Z</time></trkpt>
<trkpt lat="25.85687" lon="100.150368">
<time>2014-08-12T15:55:50Z</time></trkpt>
<trkpt lat="25.857011" lon="100.150488">
<time>2014-08-12T15:55:51Z</time></trkpt>
<trkpt lat="25.857151" lon="100.150648">
<time>2014-08-12T15:55:52Z</time></trkpt>
<trkpt lat="25.857231" lon="100.150788">
<time>2014-08-12T15:55:53Z</time></trkpt>
<trkpt lat="25.857282" lon="100.150979">
<time>2014-08-12T15:55:54Z</time></trkpt>
<trkpt lat="25.857342" lon="100.151159">
<time>2014-08-12T15:55:55Z</time></trkpt>
<trkpt lat="25.857382" lon="100.15134">
<time>2014-08-12T15:55:56Z</time></trkpt>
<trkpt lat="25.857413" lon="100.15148">
<time>2014-08-12T15:55:57Z</time></trkpt>
<trkpt lat="25.857403" lon="100.15171">
<time>2014-08-12T15:55:58Z</time></trkpt>
<trkpt lat="25.857344" lon="100.152161">
<time>2014-08-12T15:55:59Z</time></trkpt>
<trkpt lat="25.857324" lon="100.152261">
<time>2014-08-12T15:56:00Z</time></trkpt>
<trkpt lat="25.857304" lon="100.152482">
<time>2014-08-12T15:56:01Z</time></trkpt>
<trkpt lat="25.857285" lon="100.152672">
<time>2014-08-12T15:56:02Z</time></trkpt>
<trkpt lat="25.857426" lon="100.153343">
<time>2014-08-12T15:56:03Z</time></trkpt>
<trkpt lat="25.857437" lon="100.154035">
<time>2014-08-12T15:56:04Z</time></trkpt>
<trkpt lat="25.857978" lon="100.154125">
<time>2014-08-12T15:56:05Z</time></trkpt>
<trkpt lat="25.858528" lon="100.154225">
<time>2014-08-12T15:56:06Z</time></trkpt>
<trkpt lat="25.859079" lon="100.154325">
<time>2014-08-12T15:56:07Z</time></trkpt>
<trkpt lat="25.859629" lon="100.154426">
<time>2014-08-12T15:56:08Z</time></trkpt>
<trkpt lat="25.86012" lon="100.154566">
<time>2014-08-12T15:56:09Z</time></trkpt>
<trkpt lat="25.86062" lon="100.154716">
<time>2014-08-12T15:56:10Z</time></trkpt>
<trkpt lat="25.861121" lon="100.154856">
<time>2014-08-12T15:56:11Z</time></trkpt>
<trkpt lat="25.861712" lon="100.155037">
<time>2014-08-12T15:56:12Z</time></trkpt>
<trkpt lat="25.862322" lon="100.155137">
<time>2014-08-12T15:56:13Z</time></trkpt>
<trkpt lat="25.862943" lon="100.155247">
<time>2014-08-12T15:56:14Z</time></trkpt>
<trkpt lat="25.863153" lon="100.155337">
<time>2014-08-12T15:56:15Z</time></trkpt>
<trkpt lat="25.863594" lon="100.155377">
<time>2014-08-12T15:56:16Z</time></trkpt>
<trkpt lat="25.864034" lon="100.155407">
<time>2014-08-12T15:56:17Z</time></trkpt>
<trkpt lat="25.864574" lon="100.155417">
<time>2014-08-12T15:56:18Z</time></trkpt>
<trkpt lat="25.864624" lon="100.155377">
<time>2014-08-12T15:56:19Z</time></trkpt>
<trkpt lat="25.864574" lon="100.155037">
<time>2014-08-12T15:56:20Z</time></trkpt>
<trkpt lat="25.864443" lon="100.154546">
<time>2014-08-12T15:56:21Z</time></trkpt>
<trkpt lat="25.864411" lon="100.153924">
<time>2014-08-12T15:56:22Z</time></trkpt>
<trkpt lat="25.864451" lon="100.153413">
<time>2014-08-12T15:56:23Z</time></trkpt>
<trkpt lat="25.86449" lon="100.152912">
<time>2014-08-12T15:56:24Z</time></trkpt>
<trkpt lat="25.864549" lon="100.152371">
<time>2014-08-12T15:56:25Z</time></trkpt>
<trkpt lat="25.864568" lon="100.152101">
<time>2014-08-12T15:56:26Z</time></trkpt>
<trkpt lat="25.864487" lon="100.151199">
<time>2014-08-12T15:56:27Z</time></trkpt>
<trkpt lat="25.864487" lon="100.151199">
<time>2014-08-12T15:56:28Z</time></trkpt>
<trkpt lat="25.864356" lon="100.150909">
<time>2014-08-12T15:56:29Z</time></trkpt>
<trkpt lat="25.864245" lon="100.150548">
<time>2014-08-12T15:56:30Z</time></trkpt>
<trkpt lat="25.864155" lon="100.150257">
<time>2014-08-12T15:56:31Z</time></trkpt>
<trkpt lat="25.863994" lon="100.149796">
<time>2014-08-12T15:56:32Z</time></trkpt>
<trkpt lat="25.863863" lon="100.149396">
<time>2014-08-12T15:56:33Z</time></trkpt>
<trkpt lat="25.86359" lon="100.147332">
<time>2014-08-12T15:56:34Z</time></trkpt>
<trkpt lat="25.863488" lon="100.1465">
<time>2014-08-12T15:56:35Z</time></trkpt>
<trkpt lat="25.863346" lon="100.145518">
<time>2014-08-12T15:56:36Z</time></trkpt>
<trkpt lat="25.863265" lon="100.144687">
<time>2014-08-12T15:56:37Z</time></trkpt>
<trkpt lat="25.863163" lon="100.143815">
<time>2014-08-12T15:56:38Z</time></trkpt>
<trkpt lat="25.863103" lon="100.143354">
<time>2014-08-12T15:56:39Z</time></trkpt>
<trkpt lat="25.863082" lon="100.143104">
<time>2014-08-12T15:56:40Z</time></trkpt>
<trkpt lat="25.863122" lon="100.142924">
<time>2014-08-12T15:56:41Z</time></trkpt>
<trkpt lat="25.863262" lon="100.142663">
<time>2014-08-12T15:56:42Z</time></trkpt>
<trkpt lat="25.864031" lon="100.141782">
<time>2014-08-12T15:56:43Z</time></trkpt>
<trkpt lat="25.86496" lon="100.14075">
<time>2014-08-12T15:56:44Z</time></trkpt>
<trkpt lat="25.866119" lon="100.139437">
<time>2014-08-12T15:56:45Z</time></trkpt>
<trkpt lat="25.866438" lon="100.139057">
<time>2014-08-12T15:56:46Z</time></trkpt>
<trkpt lat="25.866438" lon="100.139057">
<time>2014-08-12T15:56:47Z</time></trkpt>
<trkpt lat="25.866137" lon="100.138416">
<time>2014-08-12T15:56:48Z</time></trkpt>
<trkpt lat="25.865505" lon="100.137144">
<time>2014-08-12T15:56:49Z</time></trkpt>
<trkpt lat="25.864933" lon="100.136022">
<time>2014-08-12T15:56:50Z</time></trkpt>
<trkpt lat="25.864421" lon="100.13512">
<time>2014-08-12T15:56:51Z</time></trkpt>
<trkpt lat="25.8639" lon="100.134169">
<time>2014-08-12T15:56:52Z</time></trkpt>
<trkpt lat="25.863849" lon="100.134089">
<time>2014-08-12T15:56:53Z</time></trkpt>
<trkpt lat="25.863177" lon="100.132917">
<time>2014-08-12T15:56:54Z</time></trkpt>
<trkpt lat="25.862987" lon="100.132617">
<time>2014-08-12T15:56:55Z</time></trkpt>
<trkpt lat="25.862515" lon="100.131835">
<time>2014-08-12T15:56:56Z</time></trkpt>
<trkpt lat="25.861603" lon="100.130624">
<time>2014-08-12T15:56:57Z</time></trkpt>
<trkpt lat="25.861533" lon="100.130533">
<time>2014-08-12T15:56:58Z</time></trkpt>
<trkpt lat="25.860972" lon="100.129792">
<time>2014-08-12T15:56:59Z</time></trkpt>
<trkpt lat="25.859679" lon="100.12809">
<time>2014-08-12T15:57:00Z</time></trkpt>
<trkpt lat="25.859579" lon="100.12796">
<time>2014-08-12T15:57:01Z</time></trkpt>
<trkpt lat="25.859579" lon="100.12796">
<time>2014-08-12T15:57:02Z</time></trkpt>
<trkpt lat="25.859809" lon="100.12787">
<time>2014-08-12T15:57:03Z</time></trkpt>
<trkpt lat="25.860949" lon="100.127219">
<time>2014-08-12T15:57:04Z</time></trkpt>
<trkpt lat="25.861869" lon="100.126728">
<time>2014-08-12T15:57:05Z</time></trkpt>
<trkpt lat="25.862509" lon="100.126398">
<time>2014-08-12T15:57:06Z</time></trkpt>
<trkpt lat="25.863439" lon="100.125897">
<time>2014-08-12T15:57:07Z</time></trkpt>
<trkpt lat="25.864239" lon="100.125487">
<time>2014-08-12T15:57:08Z</time></trkpt>
<trkpt lat="25.864909" lon="100.125136">
<time>2014-08-12T15:57:09Z</time></trkpt>
<trkpt lat="25.865159" lon="100.125026">
<time>2014-08-12T15:57:10Z</time></trkpt>
<trkpt lat="25.865439" lon="100.124866">
<time>2014-08-12T15:57:11Z</time></trkpt>
<trkpt lat="25.865819" lon="100.124655">
<time>2014-08-12T15:57:12Z</time></trkpt>
<trkpt lat="25.866349" lon="100.124365">
<time>2014-08-12T15:57:13Z</time></trkpt>
<trkpt lat="25.86975" lon="100.122573">
<time>2014-08-12T15:57:14Z</time></trkpt>
<trkpt lat="25.8712" lon="100.121822">
<time>2014-08-12T15:57:15Z</time></trkpt>
<trkpt lat="25.8718" lon="100.121592">
<time>2014-08-12T15:57:16Z</time></trkpt>
<trkpt lat="25.87231" lon="100.121451">
<time>2014-08-12T15:57:17Z</time></trkpt>
<trkpt lat="25.87285" lon="100.121361">
<time>2014-08-12T15:57:18Z</time></trkpt>
<trkpt lat="25.873301" lon="100.121311">
<time>2014-08-12T15:57:19Z</time></trkpt>
<trkpt lat="25.874391" lon="100.121251">
<time>2014-08-12T15:57:20Z</time></trkpt>
<trkpt lat="25.876403" lon="100.121151">
<time>2014-08-12T15:57:21Z</time></trkpt>
<trkpt lat="25.878064" lon="100.121071">
<time>2014-08-12T15:57:22Z</time></trkpt>
<trkpt lat="25.878444" lon="100.121081">
<time>2014-08-12T15:57:23Z</time></trkpt>
<trkpt lat="25.878824" lon="100.121111">
<time>2014-08-12T15:57:24Z</time></trkpt>
<trkpt lat="25.879355" lon="100.121241">
<time>2014-08-12T15:57:25Z</time></trkpt>
<trkpt lat="25.882047" lon="100.121872">
<time>2014-08-12T15:57:26Z</time></trkpt>
<trkpt lat="25.884349" lon="100.122472">
<time>2014-08-12T15:57:27Z</time></trkpt>
<trkpt lat="25.88488" lon="100.122542">
<time>2014-08-12T15:57:28Z</time></trkpt>
<trkpt lat="25.88509" lon="100.122512">
<time>2014-08-12T15:57:29Z</time></trkpt>
<trkpt lat="25.88629" lon="100.122152">
<time>2014-08-12T15:57:30Z</time></trkpt>
<trkpt lat="25.88629" lon="100.122152">
<time>2014-08-12T15:57:31Z</time></trkpt>
<trkpt lat="25.88634" lon="100.122102">
<time>2014-08-12T15:57:32Z</time></trkpt>
<trkpt lat="25.887931" lon="100.121561">
<time>2014-08-12T15:57:33Z</time></trkpt>
<trkpt lat="25.889151" lon="100.121141">
<time>2014-08-12T15:57:34Z</time></trkpt>
<trkpt lat="25.890272" lon="100.12075">
<time>2014-08-12T15:57:35Z</time></trkpt>
<trkpt lat="25.890922" lon="100.12051">
<time>2014-08-12T15:57:36Z</time></trkpt>
<trkpt lat="25.892832" lon="100.119789">
<time>2014-08-12T15:57:37Z</time></trkpt>
<trkpt lat="25.893853" lon="100.119389">
<time>2014-08-12T15:57:38Z</time></trkpt>
<trkpt lat="25.893943" lon="100.119389">
<time>2014-08-12T15:57:39Z</time></trkpt>
<trkpt lat="25.896354" lon="100.118358">
<time>2014-08-12T15:57:40Z</time></trkpt>
<trkpt lat="25.898284" lon="100.117447">
<time>2014-08-12T15:57:41Z</time></trkpt>
<trkpt lat="25.898724" lon="100.117226">
<time>2014-08-12T15:57:42Z</time></trkpt>
<trkpt lat="25.900105" lon="100.116526">
<time>2014-08-12T15:57:43Z</time></trkpt>
<trkpt lat="25.901255" lon="100.115995">
<time>2014-08-12T15:57:44Z</time></trkpt>
<trkpt lat="25.902325" lon="100.115405">
<time>2014-08-12T15:57:45Z</time></trkpt>
<trkpt lat="25.903155" lon="100.114984">
<time>2014-08-12T15:57:46Z</time></trkpt>
<trkpt lat="25.907397" lon="100.112842">
<time>2014-08-12T15:57:47Z</time></trkpt>
<trkpt lat="25.907787" lon="100.112642">
<time>2014-08-12T15:57:48Z</time></trkpt>
<trkpt lat="25.908997" lon="100.112072">
<time>2014-08-12T15:57:49Z</time></trkpt>
<trkpt lat="25.909998" lon="100.111551">
<time>2014-08-12T15:57:50Z</time></trkpt>
<trkpt lat="25.910818" lon="100.111141">
<time>2014-08-12T15:57:51Z</time></trkpt>
<trkpt lat="25.911899" lon="100.110591">
<time>2014-08-12T15:57:52Z</time></trkpt>
<trkpt lat="25.912939" lon="100.11006">
<time>2014-08-12T15:57:53Z</time></trkpt>
<trkpt lat="25.913549" lon="100.10977">
<time>2014-08-12T15:57:54Z</time></trkpt>
<trkpt lat="25.91431" lon="100.1094">
<time>2014-08-12T15:57:55Z</time></trkpt>
<trkpt lat="25.91584" lon="100.108719">
<time>2014-08-12T15:57:56Z</time></trkpt>
<trkpt lat="25.916581" lon="100.108399">
<time>2014-08-12T15:57:57Z</time></trkpt>
<trkpt lat="25.916681" lon="100.108349">
<time>2014-08-12T15:57:58Z</time></trkpt>
<trkpt lat="25.916921" lon="100.108239">
<time>2014-08-12T15:57:59Z</time></trkpt>
<trkpt lat="25.917291" lon="100.108079">
<time>2014-08-12T15:58:00Z</time></trkpt>
<trkpt lat="25.917651" lon="100.107929">
<time>2014-08-12T15:58:01Z</time></trkpt>
<trkpt lat="25.918001" lon="100.107769">
<time>2014-08-12T15:58:02Z</time></trkpt>
<trkpt lat="25.918362" lon="100.107619">
<time>2014-08-12T15:58:03Z</time></trkpt>
<trkpt lat="25.918702" lon="100.107468">
<time>2014-08-12T15:58:04Z</time></trkpt>
<trkpt lat="25.919062" lon="100.107308">
<time>2014-08-12T15:58:05Z</time></trkpt>
<trkpt lat="25.919192" lon="100.107258">
<time>2014-08-12T15:58:06Z</time></trkpt>
<trkpt lat="25.919402" lon="100.107168">
<time>2014-08-12T15:58:07Z</time></trkpt>
<trkpt lat="25.919752" lon="100.107018">
<time>2014-08-12T15:58:08Z</time></trkpt>
<trkpt lat="25.920102" lon="100.106868">
<time>2014-08-12T15:58:09Z</time></trkpt>
<trkpt lat="25.920443" lon="100.106718">
<time>2014-08-12T15:58:10Z</time></trkpt>
<trkpt lat="25.920783" lon="100.106578">
<time>2014-08-12T15:58:11Z</time></trkpt>
<trkpt lat="25.921063" lon="100.106438">
<time>2014-08-12T15:58:12Z</time></trkpt>
<trkpt lat="25.921413" lon="100.106288">
<time>2014-08-12T15:58:13Z</time></trkpt>
<trkpt lat="25.921743" lon="100.106138">
<time>2014-08-12T15:58:14Z</time></trkpt>
<trkpt lat="25.922063" lon="100.106008">
<time>2014-08-12T15:58:15Z</time></trkpt>
<trkpt lat="25.922133" lon="100.105978">
<time>2014-08-12T15:58:16Z</time></trkpt>
<trkpt lat="25.922384" lon="100.105868">
<time>2014-08-12T15:58:17Z</time></trkpt>
<trkpt lat="25.922664" lon="100.105737">
<time>2014-08-12T15:58:18Z</time></trkpt>
<trkpt lat="25.922994" lon="100.105597">
<time>2014-08-12T15:58:19Z</time></trkpt>
<trkpt lat="25.923134" lon="100.105537">
<time>2014-08-12T15:58:20Z</time></trkpt>
<trkpt lat="25.923274" lon="100.105457">
<time>2014-08-12T15:58:21Z</time></trkpt>
<trkpt lat="25.923564" lon="100.105317">
<time>2014-08-12T15:58:22Z</time></trkpt>
<trkpt lat="25.923824" lon="100.105207">
<time>2014-08-12T15:58:23Z</time></trkpt>
<trkpt lat="25.924064" lon="100.105077">
<time>2014-08-12T15:58:24Z</time></trkpt>
<trkpt lat="25.924285" lon="100.104967">
<time>2014-08-12T15:58:25Z</time></trkpt>
<trkpt lat="25.924525" lon="100.104847">
<time>2014-08-12T15:58:26Z</time></trkpt>
<trkpt lat="25.924735" lon="100.104727">
<time>2014-08-12T15:58:27Z</time></trkpt>
<trkpt lat="25.924925" lon="100.104627">
<time>2014-08-12T15:58:28Z</time></trkpt>
<trkpt lat="25.925115" lon="100.104517">
<time>2014-08-12T15:58:29Z</time></trkpt>
<trkpt lat="25.925315" lon="100.104427">
<time>2014-08-12T15:58:30Z</time></trkpt>
<trkpt lat="25.925525" lon="100.104327">
<time>2014-08-12T15:58:31Z</time></trkpt>
<trkpt lat="25.925755" lon="100.104207">
<time>2014-08-12T15:58:32Z</time></trkpt>
<trkpt lat="25.926015" lon="100.104057">
<time>2014-08-12T15:58:33Z</time></trkpt>
<trkpt lat="25.926296" lon="100.103907">
<time>2014-08-12T15:58:34Z</time></trkpt>
<trkpt lat="25.926586" lon="100.103747">
<time>2014-08-12T15:58:35Z</time></trkpt>
<trkpt lat="25.926836" lon="100.103586">
<time>2014-08-12T15:58:36Z</time></trkpt>
<trkpt lat="25.927086" lon="100.103386">
<time>2014-08-12T15:58:37Z</time></trkpt>
<trkpt lat="25.927226" lon="100.103256">
<time>2014-08-12T15:58:38Z</time></trkpt>
<trkpt lat="25.927336" lon="100.103146">
<time>2014-08-12T15:58:39Z</time></trkpt>
<trkpt lat="25.927446" lon="100.103016">
<time>2014-08-12T15:58:40Z</time></trkpt>
<trkpt lat="25.927526" lon="100.102896">
<time>2014-08-12T15:58:41Z</time></trkpt>
<trkpt lat="25.927876" lon="100.102346">
<time>2014-08-12T15:58:42Z</time></trkpt>
<trkpt lat="25.928096" lon="100.102006">
<time>2014-08-12T15:58:43Z</time></trkpt>
<trkpt lat="25.928306" lon="100.101686">
<time>2014-08-12T15:58:44Z</time></trkpt>
<trkpt lat="25.928426" lon="100.101536">
<time>2014-08-12T15:58:45Z</time></trkpt>
<trkpt lat="25.928577" lon="100.101366">
<time>2014-08-12T15:58:46Z</time></trkpt>
<trkpt lat="25.928847" lon="100.101116">
<time>2014-08-12T15:58:47Z</time></trkpt>
<trkpt lat="25.929137" lon="100.100876">
<time>2014-08-12T15:58:48Z</time></trkpt>
<trkpt lat="25.929447" lon="100.100616">
<time>2014-08-12T15:58:49Z</time></trkpt>
<trkpt lat="25.929737" lon="100.100375">
<time>2014-08-12T15:58:50Z</time></trkpt>
<trkpt lat="25.930057" lon="100.100105">
<time>2014-08-12T15:58:51Z</time></trkpt>
<trkpt lat="25.930307" lon="100.099875">
<time>2014-08-12T15:58:52Z</time></trkpt>
<trkpt lat="25.930598" lon="100.099615">
<time>2014-08-12T15:58:53Z</time></trkpt>
<trkpt lat="25.930938" lon="100.099295">
<time>2014-08-12T15:58:54Z</time></trkpt>
<trkpt lat="25.931098" lon="100.099145">
<time>2014-08-12T15:58:55Z</time></trkpt>
<trkpt lat="25.931198" lon="100.099045">
<time>2014-08-12T15:58:56Z</time></trkpt>
<trkpt lat="25.931468" lon="100.098785">
<time>2014-08-12T15:58:57Z</time></trkpt>
<trkpt lat="25.931728" lon="100.098535">
<time>2014-08-12T15:58:58Z</time></trkpt>
<trkpt lat="25.931989" lon="100.098295">
<time>2014-08-12T15:58:59Z</time></trkpt>
<trkpt lat="25.932259" lon="100.098035">
<time>2014-08-12T15:59:00Z</time></trkpt>
<trkpt lat="25.932529" lon="100.097775">
<time>2014-08-12T15:59:01Z</time></trkpt>
<trkpt lat="25.932759" lon="100.097565">
<time>2014-08-12T15:59:02Z</time></trkpt>
<trkpt lat="25.932989" lon="100.097345">
<time>2014-08-12T15:59:03Z</time></trkpt>
<trkpt lat="25.933139" lon="100.097205">
<time>2014-08-12T15:59:04Z</time></trkpt>
<trkpt lat="25.933269" lon="100.097085">
<time>2014-08-12T15:59:05Z</time></trkpt>
<trkpt lat="25.933419" lon="100.096975">
<time>2014-08-12T15:59:06Z</time></trkpt>
<trkpt lat="25.93354" lon="100.096905">
<time>2014-08-12T15:59:07Z</time></trkpt>
<trkpt lat="25.93383" lon="100.096745">
<time>2014-08-12T15:59:08Z</time></trkpt>
<trkpt lat="25.93411" lon="100.096605">
<time>2014-08-12T15:59:09Z</time></trkpt>
<trkpt lat="25.93416" lon="100.096585">
<time>2014-08-12T15:59:10Z</time></trkpt>
<trkpt lat="25.93442" lon="100.096465">
<time>2014-08-12T15:59:11Z</time></trkpt>
<trkpt lat="25.93471" lon="100.096335">
<time>2014-08-12T15:59:12Z</time></trkpt>
<trkpt lat="25.935001" lon="100.096205">
<time>2014-08-12T15:59:13Z</time></trkpt>
<trkpt lat="25.935301" lon="100.096075">
<time>2014-08-12T15:59:14Z</time></trkpt>
<trkpt lat="25.935601" lon="100.095935">
<time>2014-08-12T15:59:15Z</time></trkpt>
<trkpt lat="25.935911" lon="100.095795">
<time>2014-08-12T15:59:16Z</time></trkpt>
<trkpt lat="25.936051" lon="100.095735">
<time>2014-08-12T15:59:17Z</time></trkpt>
<trkpt lat="25.936221" lon="100.095665">
<time>2014-08-12T15:59:18Z</time></trkpt>
<trkpt lat="25.936362" lon="100.095605">
<time>2014-08-12T15:59:19Z</time></trkpt>
<trkpt lat="25.936542" lon="100.095545">
<time>2014-08-12T15:59:20Z</time></trkpt>
<trkpt lat="25.936682" lon="100.095515">
<time>2014-08-12T15:59:21Z</time></trkpt>
<trkpt lat="25.936832" lon="100.095505">
<time>2014-08-12T15:59:22Z</time></trkpt>
<trkpt lat="25.936992" lon="100.095525">
<time>2014-08-12T15:59:23Z</time></trkpt>
<trkpt lat="25.937102" lon="100.095555">
<time>2014-08-12T15:59:24Z</time></trkpt>
<trkpt lat="25.937232" lon="100.095595">
<time>2014-08-12T15:59:25Z</time></trkpt>
<trkpt lat="25.937302" lon="100.095635">
<time>2014-08-12T15:59:26Z</time></trkpt>
<trkpt lat="25.937362" lon="100.095675">
<time>2014-08-12T15:59:27Z</time></trkpt>
<trkpt lat="25.937442" lon="100.095735">
<time>2014-08-12T15:59:28Z</time></trkpt>
<trkpt lat="25.937572" lon="100.095835">
<time>2014-08-12T15:59:29Z</time></trkpt>
<trkpt lat="25.937813" lon="100.096065">
<time>2014-08-12T15:59:30Z</time></trkpt>
<trkpt lat="25.938073" lon="100.096315">
<time>2014-08-12T15:59:31Z</time></trkpt>
<trkpt lat="25.938323" lon="100.096555">
<time>2014-08-12T15:59:32Z</time></trkpt>
<trkpt lat="25.938483" lon="100.096705">
<time>2014-08-12T15:59:33Z</time></trkpt>
<trkpt lat="25.938633" lon="100.096855">
<time>2014-08-12T15:59:34Z</time></trkpt>
<trkpt lat="25.938783" lon="100.096955">
<time>2014-08-12T15:59:35Z</time></trkpt>
<trkpt lat="25.938943" lon="100.097065">
<time>2014-08-12T15:59:36Z</time></trkpt>
<trkpt lat="25.939053" lon="100.097125">
<time>2014-08-12T15:59:37Z</time></trkpt>
<trkpt lat="25.939254" lon="100.097215">
<time>2014-08-12T15:59:38Z</time></trkpt>
<trkpt lat="25.939424" lon="100.097265">
<time>2014-08-12T15:59:39Z</time></trkpt>
<trkpt lat="25.939594" lon="100.097315">
<time>2014-08-12T15:59:40Z</time></trkpt>
<trkpt lat="25.939744" lon="100.097345">
<time>2014-08-12T15:59:41Z</time></trkpt>
<trkpt lat="25.939914" lon="100.097395">
<time>2014-08-12T15:59:42Z</time></trkpt>
<trkpt lat="25.940264" lon="100.097475">
<time>2014-08-12T15:59:43Z</time></trkpt>
<trkpt lat="25.940574" lon="100.097555">
<time>2014-08-12T15:59:44Z</time></trkpt>
<trkpt lat="25.940915" lon="100.097655">
<time>2014-08-12T15:59:45Z</time></trkpt>
<trkpt lat="25.941245" lon="100.097735">
<time>2014-08-12T15:59:46Z</time></trkpt>
<trkpt lat="25.941585" lon="100.097815">
<time>2014-08-12T15:59:47Z</time></trkpt>
<trkpt lat="25.941905" lon="100.097895">
<time>2014-08-12T15:59:48Z</time></trkpt>
<trkpt lat="25.942206" lon="100.097985">
<time>2014-08-12T15:59:49Z</time></trkpt>
<trkpt lat="25.942506" lon="100.098065">
<time>2014-08-12T15:59:50Z</time></trkpt>
<trkpt lat="25.942796" lon="100.098135">
<time>2014-08-12T15:59:51Z</time></trkpt>
<trkpt lat="25.942946" lon="100.098165">
<time>2014-08-12T15:59:52Z</time></trkpt>
<trkpt lat="25.943076" lon="100.098205">
<time>2014-08-12T15:59:53Z</time></trkpt>
<trkpt lat="25.943166" lon="100.098235">
<time>2014-08-12T15:59:54Z</time></trkpt>
<trkpt lat="25.943276" lon="100.098305">
<time>2014-08-12T15:59:55Z</time></trkpt>
<trkpt lat="25.943366" lon="100.098375">
<time>2014-08-12T15:59:56Z</time></trkpt>
<trkpt lat="25.943446" lon="100.098465">
<time>2014-08-12T15:59:57Z</time></trkpt>
<trkpt lat="25.943497" lon="100.098555">
<time>2014-08-12T15:59:58Z</time></trkpt>
<trkpt lat="25.943567" lon="100.098695">
<time>2014-08-12T15:59:59Z</time></trkpt>
<trkpt lat="25.943657" lon="100.099055">
<time>2014-08-12T16:00:00Z</time></trkpt>
<trkpt lat="25.943717" lon="100.099305">
<time>2014-08-12T16:00:01Z</time></trkpt>
<trkpt lat="25.943767" lon="100.099495">
<time>2014-08-12T16:00:02Z</time></trkpt>
<trkpt lat="25.943767" lon="100.099495">
<time>2014-08-12T16:00:03Z</time></trkpt>
<trkpt lat="25.943447" lon="100.099695">
<time>2014-08-12T16:00:04Z</time></trkpt>
<trkpt lat="25.941966" lon="100.100305">
<time>2014-08-12T16:00:05Z</time></trkpt>
<trkpt lat="25.940975" lon="100.100755">
<time>2014-08-12T16:00:06Z</time></trkpt>
<trkpt lat="25.940034" lon="100.101235">
<time>2014-08-12T16:00:07Z</time></trkpt>
<trkpt lat="25.939744" lon="100.101415">
<time>2014-08-12T16:00:08Z</time></trkpt>
<trkpt lat="25.939484" lon="100.101465">
<time>2014-08-12T16:00:09Z</time></trkpt>
<trkpt lat="25.939274" lon="100.101496">
<time>2014-08-12T16:00:10Z</time></trkpt>
<trkpt lat="25.937793" lon="100.101546">
<time>2014-08-12T16:00:11Z</time></trkpt>
<trkpt lat="25.937503" lon="100.101606">
<time>2014-08-12T16:00:12Z</time></trkpt>
<trkpt lat="25.93368" lon="100.102656">
<time>2014-08-12T16:00:13Z</time></trkpt>
<trkpt lat="25.93303" lon="100.102866">
<time>2014-08-12T16:00:14Z</time></trkpt>
<trkpt lat="25.93285" lon="100.103016">
<time>2014-08-12T16:00:15Z</time></trkpt>
<trkpt lat="25.93273" lon="100.103206">
<time>2014-08-12T16:00:16Z</time></trkpt>
<trkpt lat="25.93263" lon="100.103406">
<time>2014-08-12T16:00:17Z</time></trkpt>
<trkpt lat="25.93255" lon="100.103666">
<time>2014-08-12T16:00:18Z</time></trkpt>
<trkpt lat="25.93256" lon="100.103866">
<time>2014-08-12T16:00:19Z</time></trkpt>
<trkpt lat="25.93264" lon="100.104037">
<time>2014-08-12T16:00:20Z</time></trkpt>
<trkpt lat="25.93276" lon="100.104167">
<time>2014-08-12T16:00:21Z</time></trkpt>
<trkpt lat="25.933191" lon="100.104387">
<time>2014-08-12T16:00:22Z</time></trkpt>
<trkpt lat="25.933761" lon="100.104617">
<time>2014-08-12T16:00:23Z</time></trkpt>
<trkpt lat="25.933941" lon="100.104787">
<time>2014-08-12T16:00:24Z</time></trkpt>
<trkpt lat="25.934061" lon="100.104977">
<time>2014-08-12T16:00:25Z</time></trkpt>
<trkpt lat="25.934171" lon="100.105167">
<time>2014-08-12T16:00:26Z</time></trkpt>
<trkpt lat="25.934272" lon="100.105537">
<time>2014-08-12T16:00:27Z</time></trkpt>
<trkpt lat="25.934422" lon="100.106988">
<time>2014-08-12T16:00:28Z</time></trkpt>
<trkpt lat="25.934502" lon="100.107178">
<time>2014-08-12T16:00:29Z</time></trkpt>
<trkpt lat="25.935604" lon="100.108559">
<time>2014-08-12T16:00:30Z</time></trkpt>
<trkpt lat="25.935784" lon="100.108709">
<time>2014-08-12T16:00:31Z</time></trkpt>
<trkpt lat="25.935904" lon="100.108789">
<time>2014-08-12T16:00:32Z</time></trkpt>
<trkpt lat="25.936725" lon="100.109109">
<time>2014-08-12T16:00:33Z</time></trkpt>
<trkpt lat="25.937476" lon="100.109159">
<time>2014-08-12T16:00:34Z</time></trkpt>
<trkpt lat="25.938356" lon="100.109219">
<time>2014-08-12T16:00:35Z</time></trkpt>
<trkpt lat="25.938746" lon="100.109279">
<time>2014-08-12T16:00:36Z</time></trkpt>
<trkpt lat="25.938887" lon="100.109359">
<time>2014-08-12T16:00:37Z</time></trkpt>
<trkpt lat="25.938977" lon="100.109479">
<time>2014-08-12T16:00:38Z</time></trkpt>
<trkpt lat="25.939157" lon="100.11007">
<time>2014-08-12T16:00:39Z</time></trkpt>
<trkpt lat="25.939217" lon="100.11039">
<time>2014-08-12T16:00:40Z</time></trkpt>
<trkpt lat="25.939089" lon="100.113102">
<time>2014-08-12T16:00:41Z</time></trkpt>
<trkpt lat="25.93905" lon="100.114183">
<time>2014-08-12T16:00:42Z</time></trkpt>
<trkpt lat="25.93911" lon="100.114483">
<time>2014-08-12T16:00:43Z</time></trkpt>
<trkpt lat="25.93917" lon="100.114633">
<time>2014-08-12T16:00:44Z</time></trkpt>
<trkpt lat="25.941844" lon="100.117756">
<time>2014-08-12T16:00:45Z</time></trkpt>
<trkpt lat="25.941965" lon="100.117936">
<time>2014-08-12T16:00:46Z</time></trkpt>
<trkpt lat="25.942055" lon="100.118156">
<time>2014-08-12T16:00:47Z</time></trkpt>
<trkpt lat="25.942025" lon="100.118436">
<time>2014-08-12T16:00:48Z</time></trkpt>
<trkpt lat="25.941866" lon="100.119027">
<time>2014-08-12T16:00:49Z</time></trkpt>
<trkpt lat="25.941706" lon="100.119227">
<time>2014-08-12T16:00:50Z</time></trkpt>
<trkpt lat="25.941546" lon="100.119387">
<time>2014-08-12T16:00:51Z</time></trkpt>
<trkpt lat="25.941226" lon="100.119528">
<time>2014-08-12T16:00:52Z</time></trkpt>
<trkpt lat="25.939395" lon="100.119868">
<time>2014-08-12T16:00:53Z</time></trkpt>
<trkpt lat="25.939195" lon="100.119918">
<time>2014-08-12T16:00:54Z</time></trkpt>
<trkpt lat="25.938154" lon="100.120349">
<time>2014-08-12T16:00:55Z</time></trkpt>
<trkpt lat="25.937984" lon="100.120469">
<time>2014-08-12T16:00:56Z</time></trkpt>
<trkpt lat="25.937914" lon="100.120649">
<time>2014-08-12T16:00:57Z</time></trkpt>
<trkpt lat="25.937436" lon="100.122611">
<time>2014-08-12T16:00:58Z</time></trkpt>
<trkpt lat="25.937328" lon="100.125024">
<time>2014-08-12T16:00:59Z</time></trkpt>
<trkpt lat="25.9373" lon="100.126606">
<time>2014-08-12T16:01:00Z</time></trkpt>
<trkpt lat="25.93726" lon="100.126716">
<time>2014-08-12T16:01:01Z</time></trkpt>
<trkpt lat="25.93721" lon="100.126776">
<time>2014-08-12T16:01:02Z</time></trkpt>
<trkpt lat="25.93708" lon="100.126896">
<time>2014-08-12T16:01:03Z</time></trkpt>
<trkpt lat="25.93699" lon="100.126967">
<time>2014-08-12T16:01:04Z</time></trkpt>
<trkpt lat="25.93567" lon="100.127678">
<time>2014-08-12T16:01:05Z</time></trkpt>
<trkpt lat="25.93531" lon="100.127788">
<time>2014-08-12T16:01:06Z</time></trkpt>
<trkpt lat="25.93416" lon="100.128108">
<time>2014-08-12T16:01:07Z</time></trkpt>
<trkpt lat="25.93401" lon="100.128218">
<time>2014-08-12T16:01:08Z</time></trkpt>
<trkpt lat="25.93389" lon="100.128359">
<time>2014-08-12T16:01:09Z</time></trkpt>
<trkpt lat="25.93318" lon="100.12916">
<time>2014-08-12T16:01:10Z</time></trkpt>
<trkpt lat="25.931651" lon="100.130632">
<time>2014-08-12T16:01:11Z</time></trkpt>
<trkpt lat="25.931351" lon="100.130942">
<time>2014-08-12T16:01:12Z</time></trkpt>
<trkpt lat="25.931101" lon="100.131123">
<time>2014-08-12T16:01:13Z</time></trkpt>
<trkpt lat="25.929281" lon="100.131904">
<time>2014-08-12T16:01:14Z</time></trkpt>
<trkpt lat="25.928201" lon="100.132354">
<time>2014-08-12T16:01:15Z</time></trkpt>
<trkpt lat="25.927911" lon="100.132395">
<time>2014-08-12T16:01:16Z</time></trkpt>
<trkpt lat="25.92694" lon="100.132405">
<time>2014-08-12T16:01:17Z</time></trkpt>
<trkpt lat="25.92678" lon="100.132465">
<time>2014-08-12T16:01:18Z</time></trkpt>
<trkpt lat="25.92639" lon="100.132735">
<time>2014-08-12T16:01:19Z</time></trkpt>
<trkpt lat="25.92631" lon="100.132885">
<time>2014-08-12T16:01:20Z</time></trkpt>
<trkpt lat="25.926121" lon="100.133727">
<time>2014-08-12T16:01:21Z</time></trkpt>
<trkpt lat="25.926122" lon="100.133867">
<time>2014-08-12T16:01:22Z</time></trkpt>
<trkpt lat="25.926152" lon="100.133987">
<time>2014-08-12T16:01:23Z</time></trkpt>
<trkpt lat="25.926362" lon="100.134398">
<time>2014-08-12T16:01:24Z</time></trkpt>
<trkpt lat="25.926443" lon="100.134468">
<time>2014-08-12T16:01:25Z</time></trkpt>
<trkpt lat="25.926733" lon="100.134608">
<time>2014-08-12T16:01:26Z</time></trkpt>
<trkpt lat="25.927414" lon="100.134758">
<time>2014-08-12T16:01:27Z</time></trkpt>
<trkpt lat="25.927584" lon="100.134768">
<time>2014-08-12T16:01:28Z</time></trkpt>
<trkpt lat="25.929645" lon="100.134257">
<time>2014-08-12T16:01:29Z</time></trkpt>
<trkpt lat="25.929885" lon="100.134227">
<time>2014-08-12T16:01:30Z</time></trkpt>
<trkpt lat="25.930275" lon="100.134177">
<time>2014-08-12T16:01:31Z</time></trkpt>
<trkpt lat="25.930895" lon="100.134087">
<time>2014-08-12T16:01:32Z</time></trkpt>
<trkpt lat="25.931105" lon="100.134067">
<time>2014-08-12T16:01:33Z</time></trkpt>
<trkpt lat="25.931736" lon="100.133997">
<time>2014-08-12T16:01:34Z</time></trkpt>
<trkpt lat="25.932336" lon="100.133917">
<time>2014-08-12T16:01:35Z</time></trkpt>
<trkpt lat="25.932546" lon="100.133907">
<time>2014-08-12T16:01:36Z</time></trkpt>
<trkpt lat="25.933166" lon="100.133887">
<time>2014-08-12T16:01:37Z</time></trkpt>
<trkpt lat="25.933767" lon="100.133857">
<time>2014-08-12T16:01:38Z</time></trkpt>
<trkpt lat="25.933957" lon="100.133857">
<time>2014-08-12T16:01:39Z</time></trkpt>
<trkpt lat="25.934137" lon="100.133897">
<time>2014-08-12T16:01:40Z</time></trkpt>
<trkpt lat="25.934307" lon="100.133997">
<time>2014-08-12T16:01:41Z</time></trkpt>
<trkpt lat="25.934458" lon="100.134137">
<time>2014-08-12T16:01:42Z</time></trkpt>
<trkpt lat="25.934919" lon="100.134568">
<time>2014-08-12T16:01:43Z</time></trkpt>
<trkpt lat="25.935239" lon="100.134858">
<time>2014-08-12T16:01:44Z</time></trkpt>
<trkpt lat="25.93555" lon="100.135149">
<time>2014-08-12T16:01:45Z</time></trkpt>
<trkpt lat="25.93571" lon="100.135279">
<time>2014-08-12T16:01:46Z</time></trkpt>
<trkpt lat="25.936051" lon="100.135499">
<time>2014-08-12T16:01:47Z</time></trkpt>
<trkpt lat="25.936401" lon="100.135689">
<time>2014-08-12T16:01:48Z</time></trkpt>
<trkpt lat="25.936912" lon="100.13597">
<time>2014-08-12T16:01:49Z</time></trkpt>
<trkpt lat="25.937443" lon="100.13626">
<time>2014-08-12T16:01:50Z</time></trkpt>
<trkpt lat="25.937964" lon="100.136551">
<time>2014-08-12T16:01:51Z</time></trkpt>
<trkpt lat="25.938494" lon="100.136841">
<time>2014-08-12T16:01:52Z</time></trkpt>
<trkpt lat="25.939015" lon="100.137122">
<time>2014-08-12T16:01:53Z</time></trkpt>
<trkpt lat="25.939536" lon="100.137412">
<time>2014-08-12T16:01:54Z</time></trkpt>
<trkpt lat="25.939756" lon="100.137532">
<time>2014-08-12T16:01:55Z</time></trkpt>
<trkpt lat="25.939756" lon="100.137532">
<time>2014-08-12T16:01:56Z</time></trkpt>
<trkpt lat="25.940589" lon="100.138995">
<time>2014-08-12T16:01:57Z</time></trkpt>
<trkpt lat="25.941381" lon="100.140027">
<time>2014-08-12T16:01:58Z</time></trkpt>
<trkpt lat="25.941642" lon="100.140247">
<time>2014-08-12T16:01:59Z</time></trkpt>
<trkpt lat="25.941862" lon="100.140407">
<time>2014-08-12T16:02:00Z</time></trkpt>
<trkpt lat="25.943624" lon="100.140998">
<time>2014-08-12T16:02:01Z</time></trkpt>
<trkpt lat="25.944225" lon="100.141068">
<time>2014-08-12T16:02:02Z</time></trkpt>
<trkpt lat="25.944785" lon="100.140908">
<time>2014-08-12T16:02:03Z</time></trkpt>
<trkpt lat="25.946624" lon="100.139816">
<time>2014-08-12T16:02:04Z</time></trkpt>
<trkpt lat="25.949304" lon="100.138293">
<time>2014-08-12T16:02:05Z</time></trkpt>
<trkpt lat="25.949874" lon="100.138103">
<time>2014-08-12T16:02:06Z</time></trkpt>
<trkpt lat="25.951215" lon="100.138083">
<time>2014-08-12T16:02:07Z</time></trkpt>
<trkpt lat="25.951645" lon="100.138183">
<time>2014-08-12T16:02:08Z</time></trkpt>
<trkpt lat="25.953048" lon="100.139195">
<time>2014-08-12T16:02:09Z</time></trkpt>
<trkpt lat="25.953479" lon="100.139706">
<time>2014-08-12T16:02:10Z</time></trkpt>
<trkpt lat="25.95367" lon="100.139936">
<time>2014-08-12T16:02:11Z</time></trkpt>
<trkpt lat="25.954292" lon="100.141038">
<time>2014-08-12T16:02:12Z</time></trkpt>
<trkpt lat="25.954472" lon="100.141228">
<time>2014-08-12T16:02:13Z</time></trkpt>
<trkpt lat="25.954873" lon="100.141409">
<time>2014-08-12T16:02:14Z</time></trkpt>
<trkpt lat="25.955093" lon="100.141409">
<time>2014-08-12T16:02:15Z</time></trkpt>
<trkpt lat="25.955923" lon="100.141228">
<time>2014-08-12T16:02:16Z</time></trkpt>
<trkpt lat="25.956143" lon="100.141128">
<time>2014-08-12T16:02:17Z</time></trkpt>
<trkpt lat="25.956313" lon="100.140968">
<time>2014-08-12T16:02:18Z</time></trkpt>
<trkpt lat="25.958191" lon="100.138794">
<time>2014-08-12T16:02:19Z</time></trkpt>
<trkpt lat="25.958651" lon="100.138463">
<time>2014-08-12T16:02:20Z</time></trkpt>
<trkpt lat="25.959171" lon="100.138293">
<time>2014-08-12T16:02:21Z</time></trkpt>
<trkpt lat="25.959441" lon="100.138323">
<time>2014-08-12T16:02:22Z</time></trkpt>
<trkpt lat="25.959792" lon="100.138533">
<time>2014-08-12T16:02:23Z</time></trkpt>
<trkpt lat="25.961276" lon="100.140597">
<time>2014-08-12T16:02:24Z</time></trkpt>
<trkpt lat="25.962098" lon="100.141328">
<time>2014-08-12T16:02:25Z</time></trkpt>
<trkpt lat="25.962709" lon="100.14206">
<time>2014-08-12T16:02:26Z</time></trkpt>
<trkpt lat="25.963221" lon="100.143071">
<time>2014-08-12T16:02:27Z</time></trkpt>
<trkpt lat="25.963464" lon="100.144814">
<time>2014-08-12T16:02:28Z</time></trkpt>
<trkpt lat="25.963736" lon="100.145886">
<time>2014-08-12T16:02:29Z</time></trkpt>
<trkpt lat="25.963988" lon="100.146958">
<time>2014-08-12T16:02:30Z</time></trkpt>
<trkpt lat="25.964179" lon="100.147299">
<time>2014-08-12T16:02:31Z</time></trkpt>
<trkpt lat="25.964389" lon="100.147509">
<time>2014-08-12T16:02:32Z</time></trkpt>
<trkpt lat="25.965491" lon="100.14796">
<time>2014-08-12T16:02:33Z</time></trkpt>
<trkpt lat="25.965861" lon="100.148301">
<time>2014-08-12T16:02:34Z</time></trkpt>
<trkpt lat="25.966022" lon="100.148611">
<time>2014-08-12T16:02:35Z</time></trkpt>
<trkpt lat="25.966103" lon="100.148912">
<time>2014-08-12T16:02:36Z</time></trkpt>
<trkpt lat="25.966057" lon="100.151637">
<time>2014-08-12T16:02:37Z</time></trkpt>
<trkpt lat="25.965928" lon="100.152289">
<time>2014-08-12T16:02:38Z</time></trkpt>
<trkpt lat="25.965291" lon="100.154132">
<time>2014-08-12T16:02:39Z</time></trkpt>
<trkpt lat="25.965112" lon="100.154443">
<time>2014-08-12T16:02:40Z</time></trkpt>
<trkpt lat="25.964862" lon="100.154603">
<time>2014-08-12T16:02:41Z</time></trkpt>
<trkpt lat="25.962672" lon="100.155325">
<time>2014-08-12T16:02:42Z</time></trkpt>
<trkpt lat="25.962191" lon="100.155325">
<time>2014-08-12T16:02:43Z</time></trkpt>
<trkpt lat="25.961681" lon="100.155285">
<time>2014-08-12T16:02:44Z</time></trkpt>
<trkpt lat="25.959438" lon="100.154343">
<time>2014-08-12T16:02:45Z</time></trkpt>
<trkpt lat="25.958737" lon="100.154223">
<time>2014-08-12T16:02:46Z</time></trkpt>
<trkpt lat="25.958166" lon="100.154133">
<time>2014-08-12T16:02:47Z</time></trkpt>
<trkpt lat="25.957645" lon="100.153872">
<time>2014-08-12T16:02:48Z</time></trkpt>
<trkpt lat="25.957244" lon="100.153431">
<time>2014-08-12T16:02:49Z</time></trkpt>
<trkpt lat="25.956983" lon="100.15299">
<time>2014-08-12T16:02:50Z</time></trkpt>
<trkpt lat="25.956763" lon="100.15275">
<time>2014-08-12T16:02:51Z</time></trkpt>
<trkpt lat="25.956503" lon="100.15269">
<time>2014-08-12T16:02:52Z</time></trkpt>
<trkpt lat="25.956232" lon="100.15277">
<time>2014-08-12T16:02:53Z</time></trkpt>
<trkpt lat="25.956033" lon="100.1529">
<time>2014-08-12T16:02:54Z</time></trkpt>
<trkpt lat="25.955154" lon="100.154203">
<time>2014-08-12T16:02:55Z</time></trkpt>
<trkpt lat="25.954895" lon="100.154503">
<time>2014-08-12T16:02:56Z</time></trkpt>
<trkpt lat="25.954595" lon="100.154744">
<time>2014-08-12T16:02:57Z</time></trkpt>
<trkpt lat="25.953775" lon="100.155085">
<time>2014-08-12T16:02:58Z</time></trkpt>
<trkpt lat="25.953595" lon="100.155275">
<time>2014-08-12T16:02:59Z</time></trkpt>
<trkpt lat="25.952767" lon="100.156638">
<time>2014-08-12T16:03:00Z</time></trkpt>
<trkpt lat="25.952289" lon="100.158">
<time>2014-08-12T16:03:01Z</time></trkpt>
<trkpt lat="25.95209" lon="100.158491">
<time>2014-08-12T16:03:02Z</time></trkpt>
<trkpt lat="25.95174" lon="100.158802">
<time>2014-08-12T16:03:03Z</time></trkpt>
<trkpt lat="25.95001" lon="100.159153">
<time>2014-08-12T16:03:04Z</time></trkpt>
<trkpt lat="25.94899" lon="100.159574">
<time>2014-08-12T16:03:05Z</time></trkpt>
<trkpt lat="25.9487" lon="100.159844">
<time>2014-08-12T16:03:06Z</time></trkpt>
<trkpt lat="25.948591" lon="100.160215">
<time>2014-08-12T16:03:07Z</time></trkpt>
<trkpt lat="25.948631" lon="100.160486">
<time>2014-08-12T16:03:08Z</time></trkpt>
<trkpt lat="25.949215" lon="100.16253">
<time>2014-08-12T16:03:09Z</time></trkpt>
<trkpt lat="25.949276" lon="100.162821">
<time>2014-08-12T16:03:10Z</time></trkpt>
<trkpt lat="25.949286" lon="100.163051">
<time>2014-08-12T16:03:11Z</time></trkpt>
<trkpt lat="25.949237" lon="100.163211">
<time>2014-08-12T16:03:12Z</time></trkpt>
<trkpt lat="25.947269" lon="100.165266">
<time>2014-08-12T16:03:13Z</time></trkpt>
<trkpt lat="25.945321" lon="100.16727">
<time>2014-08-12T16:03:14Z</time></trkpt>
<trkpt lat="25.944892" lon="100.1675">
<time>2014-08-12T16:03:15Z</time></trkpt>
<trkpt lat="25.944351" lon="100.167611">
<time>2014-08-12T16:03:16Z</time></trkpt>
<trkpt lat="25.94188" lon="100.167731">
<time>2014-08-12T16:03:17Z</time></trkpt>
<trkpt lat="25.94155" lon="100.167681">
<time>2014-08-12T16:03:18Z</time></trkpt>
<trkpt lat="25.941139" lon="100.167551">
<time>2014-08-12T16:03:19Z</time></trkpt>
<trkpt lat="25.940768" lon="100.16727">
<time>2014-08-12T16:03:20Z</time></trkpt>
<trkpt lat="25.939424" lon="100.165346">
<time>2014-08-12T16:03:21Z</time></trkpt>
<trkpt lat="25.939153" lon="100.165106">
<time>2014-08-12T16:03:22Z</time></trkpt>
<trkpt lat="25.938412" lon="100.164705">
<time>2014-08-12T16:03:23Z</time></trkpt>
<trkpt lat="25.937961" lon="100.164665">
<time>2014-08-12T16:03:24Z</time></trkpt>
<trkpt lat="25.937441" lon="100.164715">
<time>2014-08-12T16:03:25Z</time></trkpt>
<trkpt lat="25.936971" lon="100.165005">
<time>2014-08-12T16:03:26Z</time></trkpt>
<trkpt lat="25.936702" lon="100.165316">
<time>2014-08-12T16:03:27Z</time></trkpt>
<trkpt lat="25.935993" lon="100.166088">
<time>2014-08-12T16:03:28Z</time></trkpt>
<trkpt lat="25.935733" lon="100.166338">
<time>2014-08-12T16:03:29Z</time></trkpt>
<trkpt lat="25.935343" lon="100.166479">
<time>2014-08-12T16:03:30Z</time></trkpt>
<trkpt lat="25.933572" lon="100.166529">
<time>2014-08-12T16:03:31Z</time></trkpt>
<trkpt lat="25.933342" lon="100.166609">
<time>2014-08-12T16:03:32Z</time></trkpt>
<trkpt lat="25.932902" lon="100.166849">
<time>2014-08-12T16:03:33Z</time></trkpt>
<trkpt lat="25.932652" lon="100.16709">
<time>2014-08-12T16:03:34Z</time></trkpt>
<trkpt lat="25.932243" lon="100.167721">
<time>2014-08-12T16:03:35Z</time></trkpt>
<trkpt lat="25.932094" lon="100.168323">
<time>2014-08-12T16:03:36Z</time></trkpt>
<trkpt lat="25.932126" lon="100.168994">
<time>2014-08-12T16:03:37Z</time></trkpt>
<trkpt lat="25.932417" lon="100.169635">
<time>2014-08-12T16:03:38Z</time></trkpt>
<trkpt lat="25.932948" lon="100.170166">
<time>2014-08-12T16:03:39Z</time></trkpt>
<trkpt lat="25.933639" lon="100.170457">
<time>2014-08-12T16:03:40Z</time></trkpt>
<trkpt lat="25.934871" lon="100.170848">
<time>2014-08-12T16:03:41Z</time></trkpt>
<trkpt lat="25.934871" lon="100.170848">
<time>2014-08-12T16:03:42Z</time></trkpt>
<trkpt lat="25.934851" lon="100.170898">
<time>2014-08-12T16:03:43Z</time></trkpt>
<trkpt lat="25.934811" lon="100.171008">
<time>2014-08-12T16:03:44Z</time></trkpt>
<trkpt lat="25.934791" lon="100.171138">
<time>2014-08-12T16:03:45Z</time></trkpt>
<trkpt lat="25.934812" lon="100.171339">
<time>2014-08-12T16:03:46Z</time></trkpt>
<trkpt lat="25.934914" lon="100.172381">
<time>2014-08-12T16:03:47Z</time></trkpt>
<trkpt lat="25.934934" lon="100.172672">
<time>2014-08-12T16:03:48Z</time></trkpt>
<trkpt lat="25.934945" lon="100.172902">
<time>2014-08-12T16:03:49Z</time></trkpt>
<trkpt lat="25.934956" lon="100.173664">
<time>2014-08-12T16:03:50Z</time></trkpt>
<trkpt lat="25.934967" lon="100.173974">
<time>2014-08-12T16:03:51Z</time></trkpt>
<trkpt lat="25.934957" lon="100.174255">
<time>2014-08-12T16:03:52Z</time></trkpt>
<trkpt lat="25.934958" lon="100.174505">
<time>2014-08-12T16:03:53Z</time></trkpt>
<trkpt lat="25.934948" lon="100.174776">
<time>2014-08-12T16:03:54Z</time></trkpt>
<trkpt lat="25.934929" lon="100.175107">
<time>2014-08-12T16:03:55Z</time></trkpt>
<trkpt lat="25.9349" lon="100.175457">
<time>2014-08-12T16:03:56Z</time></trkpt>
<trkpt lat="25.93487" lon="100.175678">
<time>2014-08-12T16:03:57Z</time></trkpt>
<trkpt lat="25.934801" lon="100.176119">
<time>2014-08-12T16:03:58Z</time></trkpt>
<trkpt lat="25.934742" lon="100.17667">
<time>2014-08-12T16:03:59Z</time></trkpt>
<trkpt lat="25.934683" lon="100.177111">
<time>2014-08-12T16:04:00Z</time></trkpt>
<trkpt lat="25.934633" lon="100.177562">
<time>2014-08-12T16:04:01Z</time></trkpt>
<trkpt lat="25.934584" lon="100.177883">
<time>2014-08-12T16:04:02Z</time></trkpt>
<trkpt lat="25.934535" lon="100.178233">
<time>2014-08-12T16:04:03Z</time></trkpt>
<trkpt lat="25.934455" lon="100.178674">
<time>2014-08-12T16:04:04Z</time></trkpt>
<trkpt lat="25.934327" lon="100.179396">
<time>2014-08-12T16:04:05Z</time></trkpt>
<trkpt lat="25.934208" lon="100.179957">
<time>2014-08-12T16:04:06Z</time></trkpt>
<trkpt lat="25.934128" lon="100.180328">
<time>2014-08-12T16:04:07Z</time></trkpt>
<trkpt lat="25.934069" lon="100.180548">
<time>2014-08-12T16:04:08Z</time></trkpt>
<trkpt lat="25.934019" lon="100.180779">
<time>2014-08-12T16:04:09Z</time></trkpt>
<trkpt lat="25.93391" lon="100.181189">
<time>2014-08-12T16:04:10Z</time></trkpt>
<trkpt lat="25.93382" lon="100.18147">
<time>2014-08-12T16:04:11Z</time></trkpt>
<trkpt lat="25.933681" lon="100.181871">
<time>2014-08-12T16:04:12Z</time></trkpt>
<trkpt lat="25.933581" lon="100.182151">
<time>2014-08-12T16:04:13Z</time></trkpt>
<trkpt lat="25.933332" lon="100.182813">
<time>2014-08-12T16:04:14Z</time></trkpt>
<trkpt lat="25.933143" lon="100.183234">
<time>2014-08-12T16:04:15Z</time></trkpt>
<trkpt lat="25.933063" lon="100.183404">
<time>2014-08-12T16:04:16Z</time></trkpt>
<trkpt lat="25.932914" lon="100.183665">
<time>2014-08-12T16:04:17Z</time></trkpt>
<trkpt lat="25.932814" lon="100.183805">
<time>2014-08-12T16:04:18Z</time></trkpt>
<trkpt lat="25.932684" lon="100.183965">
<time>2014-08-12T16:04:19Z</time></trkpt>
<trkpt lat="25.932444" lon="100.184196">
<time>2014-08-12T16:04:20Z</time></trkpt>
<trkpt lat="25.932284" lon="100.184386">
<time>2014-08-12T16:04:21Z</time></trkpt>
<trkpt lat="25.932035" lon="100.184737">
<time>2014-08-12T16:04:22Z</time></trkpt>
<trkpt lat="25.931925" lon="100.184907">
<time>2014-08-12T16:04:23Z</time></trkpt>
<trkpt lat="25.931695" lon="100.185208">
<time>2014-08-12T16:04:24Z</time></trkpt>
<trkpt lat="25.931536" lon="100.185408">
<time>2014-08-12T16:04:25Z</time></trkpt>
<trkpt lat="25.931356" lon="100.185568">
<time>2014-08-12T16:04:26Z</time></trkpt>
<trkpt lat="25.931176" lon="100.185709">
<time>2014-08-12T16:04:27Z</time></trkpt>
<trkpt lat="25.930846" lon="100.185959">
<time>2014-08-12T16:04:28Z</time></trkpt>
<trkpt lat="25.930746" lon="100.186019">
<time>2014-08-12T16:04:29Z</time></trkpt>
<trkpt lat="25.930646" lon="100.186089">
<time>2014-08-12T16:04:30Z</time></trkpt>
<trkpt lat="25.930476" lon="100.18617">
<time>2014-08-12T16:04:31Z</time></trkpt>
<trkpt lat="25.930276" lon="100.18625">
<time>2014-08-12T16:04:32Z</time></trkpt>
<trkpt lat="25.930116" lon="100.1863">
<time>2014-08-12T16:04:33Z</time></trkpt>
<trkpt lat="25.929806" lon="100.18642">
<time>2014-08-12T16:04:34Z</time></trkpt>
<trkpt lat="25.929536" lon="100.18655">
<time>2014-08-12T16:04:35Z</time></trkpt>
<trkpt lat="25.929396" lon="100.186631">
<time>2014-08-12T16:04:36Z</time></trkpt>
<trkpt lat="25.929196" lon="100.186721">
<time>2014-08-12T16:04:37Z</time></trkpt>
<trkpt lat="25.928966" lon="100.186801">
<time>2014-08-12T16:04:38Z</time></trkpt>
<trkpt lat="25.928836" lon="100.186841">
<time>2014-08-12T16:04:39Z</time></trkpt>
<trkpt lat="25.928746" lon="100.186851">
<time>2014-08-12T16:04:40Z</time></trkpt>
<trkpt lat="25.928606" lon="100.186871">
<time>2014-08-12T16:04:41Z</time></trkpt>
<trkpt lat="25.928486" lon="100.186881">
<time>2014-08-12T16:04:42Z</time></trkpt>
<trkpt lat="25.928346" lon="100.186881">
<time>2014-08-12T16:04:43Z</time></trkpt>
<trkpt lat="25.928136" lon="100.186851">
<time>2014-08-12T16:04:44Z</time></trkpt>
<trkpt lat="25.928026" lon="100.186831">
<time>2014-08-12T16:04:45Z</time></trkpt>
<trkpt lat="25.927826" lon="100.186791">
<time>2014-08-12T16:04:46Z</time></trkpt>
<trkpt lat="25.927605" lon="100.186731">
<time>2014-08-12T16:04:47Z</time></trkpt>
<trkpt lat="25.927315" lon="100.186651">
<time>2014-08-12T16:04:48Z</time></trkpt>
<trkpt lat="25.927135" lon="100.186621">
<time>2014-08-12T16:04:49Z</time></trkpt>
<trkpt lat="25.927025" lon="100.186611">
<time>2014-08-12T16:04:50Z</time></trkpt>
<trkpt lat="25.926815" lon="100.186631">
<time>2014-08-12T16:04:51Z</time></trkpt>
<trkpt lat="25.926735" lon="100.186641">
<time>2014-08-12T16:04:52Z</time></trkpt>
<trkpt lat="25.926625" lon="100.186651">
<time>2014-08-12T16:04:53Z</time></trkpt>
<trkpt lat="25.926414" lon="100.186681">
<time>2014-08-12T16:04:54Z</time></trkpt>
<trkpt lat="25.926204" lon="100.186691">
<time>2014-08-12T16:04:55Z</time></trkpt>
<trkpt lat="25.926054" lon="100.186681">
<time>2014-08-12T16:04:56Z</time></trkpt>
<trkpt lat="25.925704" lon="100.186651">
<time>2014-08-12T16:04:57Z</time></trkpt>
<trkpt lat="25.925284" lon="100.186631">
<time>2014-08-12T16:04:58Z</time></trkpt>
<trkpt lat="25.925113" lon="100.186641">
<time>2014-08-12T16:04:59Z</time></trkpt>
<trkpt lat="25.925013" lon="100.186651">
<time>2014-08-12T16:05:00Z</time></trkpt>
<trkpt lat="25.924973" lon="100.186651">
<time>2014-08-12T16:05:01Z</time></trkpt>
<trkpt lat="25.924893" lon="100.186671">
<time>2014-08-12T16:05:02Z</time></trkpt>
<trkpt lat="25.924823" lon="100.186691">
<time>2014-08-12T16:05:03Z</time></trkpt>
<trkpt lat="25.924743" lon="100.186721">
<time>2014-08-12T16:05:04Z</time></trkpt>
<trkpt lat="25.924643" lon="100.186771">
<time>2014-08-12T16:05:05Z</time></trkpt>
<trkpt lat="25.924224" lon="100.187021">
<time>2014-08-12T16:05:06Z</time></trkpt>
<trkpt lat="25.924084" lon="100.187112">
<time>2014-08-12T16:05:07Z</time></trkpt>
<trkpt lat="25.923734" lon="100.187252">
<time>2014-08-12T16:05:08Z</time></trkpt>
<trkpt lat="25.923614" lon="100.187292">
<time>2014-08-12T16:05:09Z</time></trkpt>
<trkpt lat="25.923444" lon="100.187332">
<time>2014-08-12T16:05:10Z</time></trkpt>
<trkpt lat="25.923224" lon="100.187382">
<time>2014-08-12T16:05:11Z</time></trkpt>
<trkpt lat="25.923023" lon="100.187422">
<time>2014-08-12T16:05:12Z</time></trkpt>
<trkpt lat="25.922713" lon="100.187502">
<time>2014-08-12T16:05:13Z</time></trkpt>
<trkpt lat="25.922613" lon="100.187533">
<time>2014-08-12T16:05:14Z</time></trkpt>
<trkpt lat="25.922493" lon="100.187593">
<time>2014-08-12T16:05:15Z</time></trkpt>
<trkpt lat="25.922373" lon="100.187673">
<time>2014-08-12T16:05:16Z</time></trkpt>
<trkpt lat="25.922233" lon="100.187763">
<time>2014-08-12T16:05:17Z</time></trkpt>
<trkpt lat="25.922124" lon="100.187843">
<time>2014-08-12T16:05:18Z</time></trkpt>
<trkpt lat="25.921884" lon="100.187993">
<time>2014-08-12T16:05:19Z</time></trkpt>
<trkpt lat="25.921684" lon="100.188124">
<time>2014-08-12T16:05:20Z</time></trkpt>
<trkpt lat="25.921614" lon="100.188174">
<time>2014-08-12T16:05:21Z</time></trkpt>
<trkpt lat="25.921464" lon="100.188314">
<time>2014-08-12T16:05:22Z</time></trkpt>
<trkpt lat="25.921154" lon="100.188645">
<time>2014-08-12T16:05:23Z</time></trkpt>
<trkpt lat="25.920865" lon="100.188985">
<time>2014-08-12T16:05:24Z</time></trkpt>
<trkpt lat="25.920695" lon="100.189166">
<time>2014-08-12T16:05:25Z</time></trkpt>
<trkpt lat="25.920565" lon="100.189266">
<time>2014-08-12T16:05:26Z</time></trkpt>
<trkpt lat="25.920465" lon="100.189376">
<time>2014-08-12T16:05:27Z</time></trkpt>
<trkpt lat="25.920265" lon="100.189567">
<time>2014-08-12T16:05:28Z</time></trkpt>
<trkpt lat="25.919906" lon="100.189897">
<time>2014-08-12T16:05:29Z</time></trkpt>
<trkpt lat="25.919746" lon="100.190048">
<time>2014-08-12T16:05:30Z</time></trkpt>
<trkpt lat="25.919616" lon="100.190158">
<time>2014-08-12T16:05:31Z</time></trkpt>
<trkpt lat="25.919426" lon="100.190308">
<time>2014-08-12T16:05:32Z</time></trkpt>
<trkpt lat="25.919266" lon="100.190398">
<time>2014-08-12T16:05:33Z</time></trkpt>
<trkpt lat="25.918746" lon="100.190639">
<time>2014-08-12T16:05:34Z</time></trkpt>
<trkpt lat="25.918536" lon="100.190739">
<time>2014-08-12T16:05:35Z</time></trkpt>
<trkpt lat="25.918386" lon="100.190819">
<time>2014-08-12T16:05:36Z</time></trkpt>
<trkpt lat="25.918166" lon="100.190929">
<time>2014-08-12T16:05:37Z</time></trkpt>
<trkpt lat="25.918026" lon="100.190989">
<time>2014-08-12T16:05:38Z</time></trkpt>
<trkpt lat="25.917806" lon="100.1911">
<time>2014-08-12T16:05:39Z</time></trkpt>
<trkpt lat="25.917616" lon="100.19118">
<time>2014-08-12T16:05:40Z</time></trkpt>
<trkpt lat="25.917326" lon="100.19129">
<time>2014-08-12T16:05:41Z</time></trkpt>
<trkpt lat="25.916986" lon="100.19143">
<time>2014-08-12T16:05:42Z</time></trkpt>
<trkpt lat="25.916846" lon="100.19148">
<time>2014-08-12T16:05:43Z</time></trkpt>
<trkpt lat="25.916686" lon="100.191581">
<time>2014-08-12T16:05:44Z</time></trkpt>
<trkpt lat="25.916416" lon="100.191781">
<time>2014-08-12T16:05:45Z</time></trkpt>
<trkpt lat="25.916217" lon="100.191911">
<time>2014-08-12T16:05:46Z</time></trkpt>
<trkpt lat="25.915877" lon="100.192051">
<time>2014-08-12T16:05:47Z</time></trkpt>
<trkpt lat="25.915587" lon="100.192192">
<time>2014-08-12T16:05:48Z</time></trkpt>
<trkpt lat="25.915097" lon="100.192402">
<time>2014-08-12T16:05:49Z</time></trkpt>
<trkpt lat="25.914417" lon="100.192693">
<time>2014-08-12T16:05:50Z</time></trkpt>
<trkpt lat="25.914107" lon="100.192813">
<time>2014-08-12T16:05:51Z</time></trkpt>
<trkpt lat="25.913897" lon="100.192873">
<time>2014-08-12T16:05:52Z</time></trkpt>
<trkpt lat="25.913677" lon="100.192903">
<time>2014-08-12T16:05:53Z</time></trkpt>
<trkpt lat="25.913406" lon="100.192923">
<time>2014-08-12T16:05:54Z</time></trkpt>
<trkpt lat="25.913246" lon="100.192923">
<time>2014-08-12T16:05:55Z</time></trkpt>
<trkpt lat="25.913096" lon="100.192893">
<time>2014-08-12T16:05:56Z</time></trkpt>
<trkpt lat="25.912976" lon="100.192853">
<time>2014-08-12T16:05:57Z</time></trkpt>
<trkpt lat="25.912876" lon="100.192813">
<time>2014-08-12T16:05:58Z</time></trkpt>
<trkpt lat="25.912636" lon="100.192743">
<time>2014-08-12T16:05:59Z</time></trkpt>
<trkpt lat="25.912275" lon="100.192613">
<time>2014-08-12T16:06:00Z</time></trkpt>
<trkpt lat="25.912105" lon="100.192563">
<time>2014-08-12T16:06:01Z</time></trkpt>
<trkpt lat="25.911895" lon="100.192543">
<time>2014-08-12T16:06:02Z</time></trkpt>
<trkpt lat="25.911004" lon="100.192502">
<time>2014-08-12T16:06:03Z</time></trkpt>
<trkpt lat="25.910514" lon="100.192523">
<time>2014-08-12T16:06:04Z</time></trkpt>
<trkpt lat="25.910404" lon="100.192553">
<time>2014-08-12T16:06:05Z</time></trkpt>
<trkpt lat="25.910334" lon="100.192593">
<time>2014-08-12T16:06:06Z</time></trkpt>
<trkpt lat="25.910254" lon="100.192653">
<time>2014-08-12T16:06:07Z</time></trkpt>
<trkpt lat="25.910144" lon="100.192793">
<time>2014-08-12T16:06:08Z</time></trkpt>
<trkpt lat="25.910034" lon="100.192973">
<time>2014-08-12T16:06:09Z</time></trkpt>
<trkpt lat="25.909934" lon="100.193174">
<time>2014-08-12T16:06:10Z</time></trkpt>
<trkpt lat="25.909875" lon="100.193354">
<time>2014-08-12T16:06:11Z</time></trkpt>
<trkpt lat="25.909485" lon="100.193845">
<time>2014-08-12T16:06:12Z</time></trkpt>
<trkpt lat="25.909485" lon="100.193845">
<time>2014-08-12T16:06:13Z</time></trkpt>
<trkpt lat="25.909546" lon="100.194065">
<time>2014-08-12T16:06:14Z</time></trkpt>
<trkpt lat="25.909576" lon="100.194296">
<time>2014-08-12T16:06:15Z</time></trkpt>
<trkpt lat="25.909576" lon="100.194506">
<time>2014-08-12T16:06:16Z</time></trkpt>
<trkpt lat="25.909557" lon="100.194707">
<time>2014-08-12T16:06:17Z</time></trkpt>
<trkpt lat="25.909497" lon="100.194897">
<time>2014-08-12T16:06:18Z</time></trkpt>
<trkpt lat="25.909427" lon="100.195067">
<time>2014-08-12T16:06:19Z</time></trkpt>
<trkpt lat="25.909337" lon="100.195188">
<time>2014-08-12T16:06:20Z</time></trkpt>
<trkpt lat="25.909218" lon="100.195318">
<time>2014-08-12T16:06:21Z</time></trkpt>
<trkpt lat="25.908988" lon="100.195468">
<time>2014-08-12T16:06:22Z</time></trkpt>
<trkpt lat="25.908728" lon="100.195588">
<time>2014-08-12T16:06:23Z</time></trkpt>
<trkpt lat="25.908538" lon="100.195678">
<time>2014-08-12T16:06:24Z</time></trkpt>
<trkpt lat="25.908488" lon="100.195688">
<time>2014-08-12T16:06:25Z</time></trkpt>
<trkpt lat="25.908368" lon="100.195729">
<time>2014-08-12T16:06:26Z</time></trkpt>
<trkpt lat="25.908097" lon="100.195739">
<time>2014-08-12T16:06:27Z</time></trkpt>
<trkpt lat="25.907727" lon="100.195688">
<time>2014-08-12T16:06:28Z</time></trkpt>
<trkpt lat="25.907617" lon="100.195689">
<time>2014-08-12T16:06:29Z</time></trkpt>
<trkpt lat="25.907507" lon="100.195719">
<time>2014-08-12T16:06:30Z</time></trkpt>
<trkpt lat="25.907397" lon="100.195749">
<time>2014-08-12T16:06:31Z</time></trkpt>
<trkpt lat="25.907257" lon="100.195789">
<time>2014-08-12T16:06:32Z</time></trkpt>
<trkpt lat="25.906957" lon="100.195859">
<time>2014-08-12T16:06:33Z</time></trkpt>
<trkpt lat="25.906777" lon="100.195919">
<time>2014-08-12T16:06:34Z</time></trkpt>
<trkpt lat="25.906677" lon="100.195989">
<time>2014-08-12T16:06:35Z</time></trkpt>
<trkpt lat="25.906567" lon="100.196149">
<time>2014-08-12T16:06:36Z</time></trkpt>
<trkpt lat="25.906348" lon="100.19652">
<time>2014-08-12T16:06:37Z</time></trkpt>
<trkpt lat="25.906238" lon="100.19669">
<time>2014-08-12T16:06:38Z</time></trkpt>
<trkpt lat="25.906138" lon="100.196791">
<time>2014-08-12T16:06:39Z</time></trkpt>
<trkpt lat="25.905988" lon="100.196901">
<time>2014-08-12T16:06:40Z</time></trkpt>
<trkpt lat="25.905828" lon="100.196991">
<time>2014-08-12T16:06:41Z</time></trkpt>
<trkpt lat="25.905768" lon="100.197041">
<time>2014-08-12T16:06:42Z</time></trkpt>
<trkpt lat="25.905708" lon="100.197101">
<time>2014-08-12T16:06:43Z</time></trkpt>
<trkpt lat="25.905658" lon="100.197161">
<time>2014-08-12T16:06:44Z</time></trkpt>
<trkpt lat="25.905638" lon="100.197221">
<time>2014-08-12T16:06:45Z</time></trkpt>
<trkpt lat="25.905539" lon="100.197502">
<time>2014-08-12T16:06:46Z</time></trkpt>
<trkpt lat="25.905469" lon="100.197652">
<time>2014-08-12T16:06:47Z</time></trkpt>
<trkpt lat="25.905399" lon="100.197782">
<time>2014-08-12T16:06:48Z</time></trkpt>
<trkpt lat="25.905269" lon="100.198033">
<time>2014-08-12T16:06:49Z</time></trkpt>
<trkpt lat="25.90512" lon="100.198283">
<time>2014-08-12T16:06:50Z</time></trkpt>
<trkpt lat="25.90503" lon="100.198403">
<time>2014-08-12T16:06:51Z</time></trkpt>
<trkpt lat="25.905" lon="100.198494">
<time>2014-08-12T16:06:52Z</time></trkpt>
<trkpt lat="25.90497" lon="100.198614">
<time>2014-08-12T16:06:53Z</time></trkpt>
<trkpt lat="25.90496" lon="100.198714">
<time>2014-08-12T16:06:54Z</time></trkpt>
<trkpt lat="25.90497" lon="100.198944">
<time>2014-08-12T16:06:55Z</time></trkpt>
<trkpt lat="25.904951" lon="100.199125">
<time>2014-08-12T16:06:56Z</time></trkpt>
<trkpt lat="25.904901" lon="100.199265">
<time>2014-08-12T16:06:57Z</time></trkpt>
<trkpt lat="25.904751" lon="100.199515">
<time>2014-08-12T16:06:58Z</time></trkpt>
<trkpt lat="25.904601" lon="100.199736">
<time>2014-08-12T16:06:59Z</time></trkpt>
<trkpt lat="25.904482" lon="100.199976">
<time>2014-08-12T16:07:00Z</time></trkpt>
<trkpt lat="25.904392" lon="100.200257">
<time>2014-08-12T16:07:01Z</time></trkpt>
<trkpt lat="25.904323" lon="100.200617">
<time>2014-08-12T16:07:02Z</time></trkpt>
<trkpt lat="25.904273" lon="100.200958">
<time>2014-08-12T16:07:03Z</time></trkpt>
<trkpt lat="25.904204" lon="100.201359">
<time>2014-08-12T16:07:04Z</time></trkpt>
<trkpt lat="25.904204" lon="100.201689">
<time>2014-08-12T16:07:05Z</time></trkpt>
<trkpt lat="25.904245" lon="100.2021">
<time>2014-08-12T16:07:06Z</time></trkpt>
<trkpt lat="25.904266" lon="100.202551">
<time>2014-08-12T16:07:07Z</time></trkpt>
<trkpt lat="25.904246" lon="100.202951">
<time>2014-08-12T16:07:08Z</time></trkpt>
<trkpt lat="25.904187" lon="100.203292">
<time>2014-08-12T16:07:09Z</time></trkpt>
<trkpt lat="25.904087" lon="100.203733">
<time>2014-08-12T16:07:10Z</time></trkpt>
<trkpt lat="25.903948" lon="100.204414">
<time>2014-08-12T16:07:11Z</time></trkpt>
<trkpt lat="25.903809" lon="100.205015">
<time>2014-08-12T16:07:12Z</time></trkpt>
<trkpt lat="25.903699" lon="100.205405">
<time>2014-08-12T16:07:13Z</time></trkpt>
<trkpt lat="25.90353" lon="100.205936">
<time>2014-08-12T16:07:14Z</time></trkpt>
<trkpt lat="25.903341" lon="100.206497">
<time>2014-08-12T16:07:15Z</time></trkpt>
<trkpt lat="25.903101" lon="100.207088">
<time>2014-08-12T16:07:16Z</time></trkpt>
<trkpt lat="25.902952" lon="100.207459">
<time>2014-08-12T16:07:17Z</time></trkpt>
<trkpt lat="25.902673" lon="100.20816">
<time>2014-08-12T16:07:18Z</time></trkpt>
<trkpt lat="25.902463" lon="100.20861">
<time>2014-08-12T16:07:19Z</time></trkpt>
<trkpt lat="25.902283" lon="100.208941">
<time>2014-08-12T16:07:20Z</time></trkpt>
<trkpt lat="25.902014" lon="100.209351">
<time>2014-08-12T16:07:21Z</time></trkpt>
<trkpt lat="25.901794" lon="100.209682">
<time>2014-08-12T16:07:22Z</time></trkpt>
<trkpt lat="25.901664" lon="100.209842">
<time>2014-08-12T16:07:23Z</time></trkpt>
<trkpt lat="25.901514" lon="100.209972">
<time>2014-08-12T16:07:24Z</time></trkpt>
<trkpt lat="25.901364" lon="100.210053">
<time>2014-08-12T16:07:25Z</time></trkpt>
<trkpt lat="25.901134" lon="100.210153">
<time>2014-08-12T16:07:26Z</time></trkpt>
<trkpt lat="25.900764" lon="100.210233">
<time>2014-08-12T16:07:27Z</time></trkpt>
<trkpt lat="25.900594" lon="100.210303">
<time>2014-08-12T16:07:28Z</time></trkpt>
<trkpt lat="25.900484" lon="100.210373">
<time>2014-08-12T16:07:29Z</time></trkpt>
<trkpt lat="25.900374" lon="100.210473">
<time>2014-08-12T16:07:30Z</time></trkpt>
<trkpt lat="25.900294" lon="100.210593">
<time>2014-08-12T16:07:31Z</time></trkpt>
<trkpt lat="25.900224" lon="100.210724">
<time>2014-08-12T16:07:32Z</time></trkpt>
<trkpt lat="25.900005" lon="100.211284">
<time>2014-08-12T16:07:33Z</time></trkpt>
<trkpt lat="25.899845" lon="100.211685">
<time>2014-08-12T16:07:34Z</time></trkpt>
<trkpt lat="25.899696" lon="100.212065">
<time>2014-08-12T16:07:35Z</time></trkpt>
<trkpt lat="25.899606" lon="100.212226">
<time>2014-08-12T16:07:36Z</time></trkpt>
<trkpt lat="25.899476" lon="100.212416">
<time>2014-08-12T16:07:37Z</time></trkpt>
<trkpt lat="25.899256" lon="100.212696">
<time>2014-08-12T16:07:38Z</time></trkpt>
<trkpt lat="25.899036" lon="100.212947">
<time>2014-08-12T16:07:39Z</time></trkpt>
<trkpt lat="25.898787" lon="100.213227">
<time>2014-08-12T16:07:40Z</time></trkpt>
<trkpt lat="25.898517" lon="100.213517">
<time>2014-08-12T16:07:41Z</time></trkpt>
<trkpt lat="25.898227" lon="100.213768">
<time>2014-08-12T16:07:42Z</time></trkpt>
<trkpt lat="25.897897" lon="100.214018">
<time>2014-08-12T16:07:43Z</time></trkpt>
<trkpt lat="25.897627" lon="100.214208">
<time>2014-08-12T16:07:44Z</time></trkpt>
<trkpt lat="25.897427" lon="100.214329">
<time>2014-08-12T16:07:45Z</time></trkpt>
<trkpt lat="25.897037" lon="100.214529">
<time>2014-08-12T16:07:46Z</time></trkpt>
<trkpt lat="25.896807" lon="100.214659">
<time>2014-08-12T16:07:47Z</time></trkpt>
<trkpt lat="25.896347" lon="100.214909">
<time>2014-08-12T16:07:48Z</time></trkpt>
<trkpt lat="25.896227" lon="100.214979">
<time>2014-08-12T16:07:49Z</time></trkpt>
<trkpt lat="25.895897" lon="100.21513">
<time>2014-08-12T16:07:50Z</time></trkpt>
<trkpt lat="25.895547" lon="100.21529">
<time>2014-08-12T16:07:51Z</time></trkpt>
<trkpt lat="25.895257" lon="100.21552">
<time>2014-08-12T16:07:52Z</time></trkpt>
<trkpt lat="25.894927" lon="100.215851">
<time>2014-08-12T16:07:53Z</time></trkpt>
<trkpt lat="25.894547" lon="100.216191">
<time>2014-08-12T16:07:54Z</time></trkpt>
<trkpt lat="25.892127" lon="100.217803">
<time>2014-08-12T16:07:55Z</time></trkpt>
<trkpt lat="25.891937" lon="100.217933">
<time>2014-08-12T16:07:56Z</time></trkpt>
<trkpt lat="25.891617" lon="100.218134">
<time>2014-08-12T16:07:57Z</time></trkpt>
<trkpt lat="25.891467" lon="100.218144">
<time>2014-08-12T16:07:58Z</time></trkpt>
<trkpt lat="25.891177" lon="100.218174">
<time>2014-08-12T16:07:59Z</time></trkpt>
<trkpt lat="25.890787" lon="100.218174">
<time>2014-08-12T16:08:00Z</time></trkpt>
<trkpt lat="25.890507" lon="100.218134">
<time>2014-08-12T16:08:01Z</time></trkpt>
<trkpt lat="25.890216" lon="100.218053">
<time>2014-08-12T16:08:02Z</time></trkpt>
<trkpt lat="25.889916" lon="100.217923">
<time>2014-08-12T16:08:03Z</time></trkpt>
<trkpt lat="25.889686" lon="100.217743">
<time>2014-08-12T16:08:04Z</time></trkpt>
<trkpt lat="25.889605" lon="100.217683">
<time>2014-08-12T16:08:05Z</time></trkpt>
<trkpt lat="25.889515" lon="100.217603">
<time>2014-08-12T16:08:06Z</time></trkpt>
<trkpt lat="25.889315" lon="100.217363">
<time>2014-08-12T16:08:07Z</time></trkpt>
<trkpt lat="25.889094" lon="100.217092">
<time>2014-08-12T16:08:08Z</time></trkpt>
<trkpt lat="25.889004" lon="100.217002">
<time>2014-08-12T16:08:09Z</time></trkpt>
<trkpt lat="25.888924" lon="100.216932">
<time>2014-08-12T16:08:10Z</time></trkpt>
<trkpt lat="25.888864" lon="100.216862">
<time>2014-08-12T16:08:11Z</time></trkpt>
<trkpt lat="25.888834" lon="100.216802">
<time>2014-08-12T16:08:12Z</time></trkpt>
<trkpt lat="25.888784" lon="100.216732">
<time>2014-08-12T16:08:13Z</time></trkpt>
<trkpt lat="25.888744" lon="100.216592">
<time>2014-08-12T16:08:14Z</time></trkpt>
<trkpt lat="25.888703" lon="100.216341">
<time>2014-08-12T16:08:15Z</time></trkpt>
<trkpt lat="25.888683" lon="100.216151">
<time>2014-08-12T16:08:16Z</time></trkpt>
<trkpt lat="25.888653" lon="100.215971">
<time>2014-08-12T16:08:17Z</time></trkpt>
<trkpt lat="25.888623" lon="100.215801">
<time>2014-08-12T16:08:18Z</time></trkpt>
<trkpt lat="25.888572" lon="100.215671">
<time>2014-08-12T16:08:19Z</time></trkpt>
<trkpt lat="25.888512" lon="100.21559">
<time>2014-08-12T16:08:20Z</time></trkpt>
<trkpt lat="25.888432" lon="100.21552">
<time>2014-08-12T16:08:21Z</time></trkpt>
<trkpt lat="25.888342" lon="100.21546">
<time>2014-08-12T16:08:22Z</time></trkpt>
<trkpt lat="25.888262" lon="100.21542">
<time>2014-08-12T16:08:23Z</time></trkpt>
<trkpt lat="25.888162" lon="100.21539">
<time>2014-08-12T16:08:24Z</time></trkpt>
<trkpt lat="25.888022" lon="100.21538">
<time>2014-08-12T16:08:25Z</time></trkpt>
<trkpt lat="25.887471" lon="100.21538">
<time>2014-08-12T16:08:26Z</time></trkpt>
<trkpt lat="25.887051" lon="100.21537">
<time>2014-08-12T16:08:27Z</time></trkpt>
<trkpt lat="25.886971" lon="100.21536">
<time>2014-08-12T16:08:28Z</time></trkpt>
<trkpt lat="25.886891" lon="100.21532">
<time>2014-08-12T16:08:29Z</time></trkpt>
<trkpt lat="25.886831" lon="100.21529">
<time>2014-08-12T16:08:30Z</time></trkpt>
<trkpt lat="25.886671" lon="100.2152">
<time>2014-08-12T16:08:31Z</time></trkpt>
<trkpt lat="25.88657" lon="100.21513">
<time>2014-08-12T16:08:32Z</time></trkpt>
<trkpt lat="25.88644" lon="100.21506">
<time>2014-08-12T16:08:33Z</time></trkpt>
<trkpt lat="25.88627" lon="100.215">
<time>2014-08-12T16:08:34Z</time></trkpt>
<trkpt lat="25.88602" lon="100.21493">
<time>2014-08-12T16:08:35Z</time></trkpt>
<trkpt lat="25.88569" lon="100.21483">
<time>2014-08-12T16:08:36Z</time></trkpt>
<trkpt lat="25.885499" lon="100.214739">
<time>2014-08-12T16:08:37Z</time></trkpt>
<trkpt lat="25.885429" lon="100.214689">
<time>2014-08-12T16:08:38Z</time></trkpt>
<trkpt lat="25.885379" lon="100.214649">
<time>2014-08-12T16:08:39Z</time></trkpt>
<trkpt lat="25.885279" lon="100.214519">
<time>2014-08-12T16:08:40Z</time></trkpt>
<trkpt lat="25.885189" lon="100.214329">
<time>2014-08-12T16:08:41Z</time></trkpt>
<trkpt lat="25.885118" lon="100.214159">
<time>2014-08-12T16:08:42Z</time></trkpt>
<trkpt lat="25.884968" lon="100.213748">
<time>2014-08-12T16:08:43Z</time></trkpt>
<trkpt lat="25.884807" lon="100.213318">
<time>2014-08-12T16:08:44Z</time></trkpt>
<trkpt lat="25.884727" lon="100.213087">
<time>2014-08-12T16:08:45Z</time></trkpt>
<trkpt lat="25.884657" lon="100.212937">
<time>2014-08-12T16:08:46Z</time></trkpt>
<trkpt lat="25.884596" lon="100.212857">
<time>2014-08-12T16:08:47Z</time></trkpt>
<trkpt lat="25.884536" lon="100.212807">
<time>2014-08-12T16:08:48Z</time></trkpt>
<trkpt lat="25.884476" lon="100.212767">
<time>2014-08-12T16:08:49Z</time></trkpt>
<trkpt lat="25.884326" lon="100.212707">
<time>2014-08-12T16:08:50Z</time></trkpt>
<trkpt lat="25.884156" lon="100.212637">
<time>2014-08-12T16:08:51Z</time></trkpt>
<trkpt lat="25.883996" lon="100.212617">
<time>2014-08-12T16:08:52Z</time></trkpt>
<trkpt lat="25.883926" lon="100.212617">
<time>2014-08-12T16:08:53Z</time></trkpt>
<trkpt lat="25.883836" lon="100.212647">
<time>2014-08-12T16:08:54Z</time></trkpt>
<trkpt lat="25.883756" lon="100.212687">
<time>2014-08-12T16:08:55Z</time></trkpt>
<trkpt lat="25.883686" lon="100.212757">
<time>2014-08-12T16:08:56Z</time></trkpt>
<trkpt lat="25.883626" lon="100.212867">
<time>2014-08-12T16:08:57Z</time></trkpt>
<trkpt lat="25.883506" lon="100.213027">
<time>2014-08-12T16:08:58Z</time></trkpt>
<trkpt lat="25.883386" lon="100.213147">
<time>2014-08-12T16:08:59Z</time></trkpt>
<trkpt lat="25.883226" lon="100.213237">
<time>2014-08-12T16:09:00Z</time></trkpt>
<trkpt lat="25.883126" lon="100.213257">
<time>2014-08-12T16:09:01Z</time></trkpt>
<trkpt lat="25.883006" lon="100.213257">
<time>2014-08-12T16:09:02Z</time></trkpt>
<trkpt lat="25.882235" lon="100.213157">
<time>2014-08-12T16:09:03Z</time></trkpt>
<trkpt lat="25.881995" lon="100.213107">
<time>2014-08-12T16:09:04Z</time></trkpt>
<trkpt lat="25.881895" lon="100.213067">
<time>2014-08-12T16:09:05Z</time></trkpt>
<trkpt lat="25.881785" lon="100.213007">
<time>2014-08-12T16:09:06Z</time></trkpt>
<trkpt lat="25.881685" lon="100.212947">
<time>2014-08-12T16:09:07Z</time></trkpt>
<trkpt lat="25.881594" lon="100.212867">
<time>2014-08-12T16:09:08Z</time></trkpt>
<trkpt lat="25.881524" lon="100.212797">
<time>2014-08-12T16:09:09Z</time></trkpt>
<trkpt lat="25.881454" lon="100.212717">
<time>2014-08-12T16:09:10Z</time></trkpt>
<trkpt lat="25.881344" lon="100.212547">
<time>2014-08-12T16:09:11Z</time></trkpt>
<trkpt lat="25.881063" lon="100.212006">
<time>2014-08-12T16:09:12Z</time></trkpt>
<trkpt lat="25.880652" lon="100.211225">
<time>2014-08-12T16:09:13Z</time></trkpt>
<trkpt lat="25.880591" lon="100.211125">
<time>2014-08-12T16:09:14Z</time></trkpt>
<trkpt lat="25.880501" lon="100.211004">
<time>2014-08-12T16:09:15Z</time></trkpt>
<trkpt lat="25.880241" lon="100.210734">
<time>2014-08-12T16:09:16Z</time></trkpt>
<trkpt lat="25.88007" lon="100.210534">
<time>2014-08-12T16:09:17Z</time></trkpt>
<trkpt lat="25.87992" lon="100.210333">
<time>2014-08-12T16:09:18Z</time></trkpt>
<trkpt lat="25.87984" lon="100.210213">
<time>2014-08-12T16:09:19Z</time></trkpt>
<trkpt lat="25.879529" lon="100.209753">
<time>2014-08-12T16:09:20Z</time></trkpt>
<trkpt lat="25.879228" lon="100.209212">
<time>2014-08-12T16:09:21Z</time></trkpt>
<trkpt lat="25.879088" lon="100.208971">
<time>2014-08-12T16:09:22Z</time></trkpt>
<trkpt lat="25.879037" lon="100.208891">
<time>2014-08-12T16:09:23Z</time></trkpt>
<trkpt lat="25.878947" lon="100.208781">
<time>2014-08-12T16:09:24Z</time></trkpt>
<trkpt lat="25.878857" lon="100.208701">
<time>2014-08-12T16:09:25Z</time></trkpt>
<trkpt lat="25.878767" lon="100.208641">
<time>2014-08-12T16:09:26Z</time></trkpt>
<trkpt lat="25.878677" lon="100.208591">
<time>2014-08-12T16:09:27Z</time></trkpt>
<trkpt lat="25.878467" lon="100.208521">
<time>2014-08-12T16:09:28Z</time></trkpt>
<trkpt lat="25.878356" lon="100.208501">
<time>2014-08-12T16:09:29Z</time></trkpt>
<trkpt lat="25.878246" lon="100.208481">
<time>2014-08-12T16:09:30Z</time></trkpt>
<trkpt lat="25.878106" lon="100.208501">
<time>2014-08-12T16:09:31Z</time></trkpt>
<trkpt lat="25.878016" lon="100.208531">
<time>2014-08-12T16:09:32Z</time></trkpt>
<trkpt lat="25.877576" lon="100.208731">
<time>2014-08-12T16:09:33Z</time></trkpt>
<trkpt lat="25.877376" lon="100.208791">
<time>2014-08-12T16:09:34Z</time></trkpt>
<trkpt lat="25.877226" lon="100.208821">
<time>2014-08-12T16:09:35Z</time></trkpt>
<trkpt lat="25.877096" lon="100.208821">
<time>2014-08-12T16:09:36Z</time></trkpt>
<trkpt lat="25.876886" lon="100.208831">
<time>2014-08-12T16:09:37Z</time></trkpt>
<trkpt lat="25.876736" lon="100.208851">
<time>2014-08-12T16:09:38Z</time></trkpt>
<trkpt lat="25.876666" lon="100.208871">
<time>2014-08-12T16:09:39Z</time></trkpt>
<trkpt lat="25.876586" lon="100.208911">
<time>2014-08-12T16:09:40Z</time></trkpt>
<trkpt lat="25.876416" lon="100.209012">
<time>2014-08-12T16:09:41Z</time></trkpt>
<trkpt lat="25.876296" lon="100.209112">
<time>2014-08-12T16:09:42Z</time></trkpt>
<trkpt lat="25.876136" lon="100.209392">
<time>2014-08-12T16:09:43Z</time></trkpt>
<trkpt lat="25.875976" lon="100.209673">
<time>2014-08-12T16:09:44Z</time></trkpt>
<trkpt lat="25.875787" lon="100.210003">
<time>2014-08-12T16:09:45Z</time></trkpt>
<trkpt lat="25.875597" lon="100.210334">
<time>2014-08-12T16:09:46Z</time></trkpt>
<trkpt lat="25.875527" lon="100.210404">
<time>2014-08-12T16:09:47Z</time></trkpt>
<trkpt lat="25.875447" lon="100.210474">
<time>2014-08-12T16:09:48Z</time></trkpt>
<trkpt lat="25.874827" lon="100.210824">
<time>2014-08-12T16:09:49Z</time></trkpt>
<trkpt lat="25.874207" lon="100.211195">
<time>2014-08-12T16:09:50Z</time></trkpt>
<trkpt lat="25.874027" lon="100.211345">
<time>2014-08-12T16:09:51Z</time></trkpt>
<trkpt lat="25.873877" lon="100.211505">
<time>2014-08-12T16:09:52Z</time></trkpt>
<trkpt lat="25.873538" lon="100.211976">
<time>2014-08-12T16:09:53Z</time></trkpt>
<trkpt lat="25.873378" lon="100.212116">
<time>2014-08-12T16:09:54Z</time></trkpt>
<trkpt lat="25.873178" lon="100.212246">
<time>2014-08-12T16:09:55Z</time></trkpt>
<trkpt lat="25.872898" lon="100.212397">
<time>2014-08-12T16:09:56Z</time></trkpt>
<trkpt lat="25.872778" lon="100.212437">
<time>2014-08-12T16:09:57Z</time></trkpt>
<trkpt lat="25.872648" lon="100.212417">
<time>2014-08-12T16:09:58Z</time></trkpt>
<trkpt lat="25.872538" lon="100.212387">
<time>2014-08-12T16:09:59Z</time></trkpt>
<trkpt lat="25.872437" lon="100.212316">
<time>2014-08-12T16:10:00Z</time></trkpt>
<trkpt lat="25.872297" lon="100.212206">
<time>2014-08-12T16:10:01Z</time></trkpt>
<trkpt lat="25.872167" lon="100.212116">
<time>2014-08-12T16:10:02Z</time></trkpt>
<trkpt lat="25.871987" lon="100.212036">
<time>2014-08-12T16:10:03Z</time></trkpt>
<trkpt lat="25.871707" lon="100.211946">
<time>2014-08-12T16:10:04Z</time></trkpt>
<trkpt lat="25.871596" lon="100.211926">
<time>2014-08-12T16:10:05Z</time></trkpt>
<trkpt lat="25.871006" lon="100.211776">
<time>2014-08-12T16:10:06Z</time></trkpt>
<trkpt lat="25.870625" lon="100.211696">
<time>2014-08-12T16:10:07Z</time></trkpt>
<trkpt lat="25.870415" lon="100.211656">
<time>2014-08-12T16:10:08Z</time></trkpt>
<trkpt lat="25.870305" lon="100.211676">
<time>2014-08-12T16:10:09Z</time></trkpt>
<trkpt lat="25.870225" lon="100.211706">
<time>2014-08-12T16:10:10Z</time></trkpt>
<trkpt lat="25.870155" lon="100.211756">
<time>2014-08-12T16:10:11Z</time></trkpt>
<trkpt lat="25.870115" lon="100.211806">
<time>2014-08-12T16:10:12Z</time></trkpt>
<trkpt lat="25.869825" lon="100.212086">
<time>2014-08-12T16:10:13Z</time></trkpt>
<trkpt lat="25.869546" lon="100.212417">
<time>2014-08-12T16:10:14Z</time></trkpt>
<trkpt lat="25.869356" lon="100.212597">
<time>2014-08-12T16:10:15Z</time></trkpt>
<trkpt lat="25.869206" lon="100.212717">
<time>2014-08-12T16:10:16Z</time></trkpt>
<trkpt lat="25.869016" lon="100.212837">
<time>2014-08-12T16:10:17Z</time></trkpt>
<trkpt lat="25.868816" lon="100.212957">
<time>2014-08-12T16:10:18Z</time></trkpt>
<trkpt lat="25.868636" lon="100.213068">
<time>2014-08-12T16:10:19Z</time></trkpt>
<trkpt lat="25.868256" lon="100.213298">
<time>2014-08-12T16:10:20Z</time></trkpt>
<trkpt lat="25.867926" lon="100.213528">
<time>2014-08-12T16:10:21Z</time></trkpt>
<trkpt lat="25.867796" lon="100.213668">
<time>2014-08-12T16:10:22Z</time></trkpt>
<trkpt lat="25.867367" lon="100.214419">
<time>2014-08-12T16:10:23Z</time></trkpt>
<trkpt lat="25.866897" lon="100.21517">
<time>2014-08-12T16:10:24Z</time></trkpt>
<trkpt lat="25.866817" lon="100.215261">
<time>2014-08-12T16:10:25Z</time></trkpt>
<trkpt lat="25.866727" lon="100.215351">
<time>2014-08-12T16:10:26Z</time></trkpt>
<trkpt lat="25.866607" lon="100.215421">
<time>2014-08-12T16:10:27Z</time></trkpt>
<trkpt lat="25.866137" lon="100.215641">
<time>2014-08-12T16:10:28Z</time></trkpt>
<trkpt lat="25.865727" lon="100.215801">
<time>2014-08-12T16:10:29Z</time></trkpt>
<trkpt lat="25.865117" lon="100.216012">
<time>2014-08-12T16:10:30Z</time></trkpt>
<trkpt lat="25.864777" lon="100.216132">
<time>2014-08-12T16:10:31Z</time></trkpt>
<trkpt lat="25.864347" lon="100.216332">
<time>2014-08-12T16:10:32Z</time></trkpt>
<trkpt lat="25.864107" lon="100.216432">
<time>2014-08-12T16:10:33Z</time></trkpt>
<trkpt lat="25.863887" lon="100.216482">
<time>2014-08-12T16:10:34Z</time></trkpt>
<trkpt lat="25.863707" lon="100.216512">
<time>2014-08-12T16:10:35Z</time></trkpt>
<trkpt lat="25.863557" lon="100.216512">
<time>2014-08-12T16:10:36Z</time></trkpt>
<trkpt lat="25.863076" lon="100.216472">
<time>2014-08-12T16:10:37Z</time></trkpt>
<trkpt lat="25.862926" lon="100.216452">
<time>2014-08-12T16:10:38Z</time></trkpt>
<trkpt lat="25.862656" lon="100.216422">
<time>2014-08-12T16:10:39Z</time></trkpt>
<trkpt lat="25.862336" lon="100.216392">
<time>2014-08-12T16:10:40Z</time></trkpt>
<trkpt lat="25.862215" lon="100.216362">
<time>2014-08-12T16:10:41Z</time></trkpt>
<trkpt lat="25.862135" lon="100.216322">
<time>2014-08-12T16:10:42Z</time></trkpt>
<trkpt lat="25.861985" lon="100.216202">
<time>2014-08-12T16:10:43Z</time></trkpt>
<trkpt lat="25.861855" lon="100.216082">
<time>2014-08-12T16:10:44Z</time></trkpt>
<trkpt lat="25.861514" lon="100.215741">
<time>2014-08-12T16:10:45Z</time></trkpt>
<trkpt lat="25.861384" lon="100.215581">
<time>2014-08-12T16:10:46Z</time></trkpt>
<trkpt lat="25.861234" lon="100.215391">
<time>2014-08-12T16:10:47Z</time></trkpt>
<trkpt lat="25.860803" lon="100.2148">
<time>2014-08-12T16:10:48Z</time></trkpt>
<trkpt lat="25.860733" lon="100.21473">
<time>2014-08-12T16:10:49Z</time></trkpt>
<trkpt lat="25.860642" lon="100.21464">
<time>2014-08-12T16:10:50Z</time></trkpt>
<trkpt lat="25.860342" lon="100.21443">
<time>2014-08-12T16:10:51Z</time></trkpt>
<trkpt lat="25.860152" lon="100.214309">
<time>2014-08-12T16:10:52Z</time></trkpt>
<trkpt lat="25.859861" lon="100.214119">
<time>2014-08-12T16:10:53Z</time></trkpt>
<trkpt lat="25.859601" lon="100.213919">
<time>2014-08-12T16:10:54Z</time></trkpt>
<trkpt lat="25.859481" lon="100.213799">
<time>2014-08-12T16:10:55Z</time></trkpt>
<trkpt lat="25.85936" lon="100.213719">
<time>2014-08-12T16:10:56Z</time></trkpt>
<trkpt lat="25.85928" lon="100.213679">
<time>2014-08-12T16:10:57Z</time></trkpt>
<trkpt lat="25.8592" lon="100.213649">
<time>2014-08-12T16:10:58Z</time></trkpt>
<trkpt lat="25.85886" lon="100.213609">
<time>2014-08-12T16:10:59Z</time></trkpt>
<trkpt lat="25.85856" lon="100.213589">
<time>2014-08-12T16:11:00Z</time></trkpt>
<trkpt lat="25.85838" lon="100.213589">
<time>2014-08-12T16:11:01Z</time></trkpt>
<trkpt lat="25.85823" lon="100.213639">
<time>2014-08-12T16:11:02Z</time></trkpt>
<trkpt lat="25.8576" lon="100.213929">
<time>2014-08-12T16:11:03Z</time></trkpt>
<trkpt lat="25.857389" lon="100.213979">
<time>2014-08-12T16:11:04Z</time></trkpt>
<trkpt lat="25.856839" lon="100.213989">
<time>2014-08-12T16:11:05Z</time></trkpt>
<trkpt lat="25.856539" lon="100.213989">
<time>2014-08-12T16:11:06Z</time></trkpt>
<trkpt lat="25.856379" lon="100.214019">
<time>2014-08-12T16:11:07Z</time></trkpt>
<trkpt lat="25.856229" lon="100.214069">
<time>2014-08-12T16:11:08Z</time></trkpt>
<trkpt lat="25.856089" lon="100.214119">
<time>2014-08-12T16:11:09Z</time></trkpt>
<trkpt lat="25.855909" lon="100.214229">
<time>2014-08-12T16:11:10Z</time></trkpt>
<trkpt lat="25.855769" lon="100.21434">
<time>2014-08-12T16:11:11Z</time></trkpt>
<trkpt lat="25.855239" lon="100.215021">
<time>2014-08-12T16:11:12Z</time></trkpt>
<trkpt lat="25.854939" lon="100.215301">
<time>2014-08-12T16:11:13Z</time></trkpt>
<trkpt lat="25.85409" lon="100.215952">
<time>2014-08-12T16:11:14Z</time></trkpt>
<trkpt lat="25.85372" lon="100.216312">
<time>2014-08-12T16:11:15Z</time></trkpt>
<trkpt lat="25.85368" lon="100.216382">
<time>2014-08-12T16:11:16Z</time></trkpt>
<trkpt lat="25.85364" lon="100.216452">
<time>2014-08-12T16:11:17Z</time></trkpt>
<trkpt lat="25.8536" lon="100.216542">
<time>2014-08-12T16:11:18Z</time></trkpt>
<trkpt lat="25.85357" lon="100.216633">
<time>2014-08-12T16:11:19Z</time></trkpt>
<trkpt lat="25.85354" lon="100.216723">
<time>2014-08-12T16:11:20Z</time></trkpt>
<trkpt lat="25.85353" lon="100.216813">
<time>2014-08-12T16:11:21Z</time></trkpt>
<trkpt lat="25.853551" lon="100.217093">
<time>2014-08-12T16:11:22Z</time></trkpt>
<trkpt lat="25.853601" lon="100.217414">
<time>2014-08-12T16:11:23Z</time></trkpt>
<trkpt lat="25.853681" lon="100.217754">
<time>2014-08-12T16:11:24Z</time></trkpt>
<trkpt lat="25.853802" lon="100.218124">
<time>2014-08-12T16:11:25Z</time></trkpt>
<trkpt lat="25.854123" lon="100.218815">
<time>2014-08-12T16:11:26Z</time></trkpt>
<trkpt lat="25.854353" lon="100.219316">
<time>2014-08-12T16:11:27Z</time></trkpt>
<trkpt lat="25.854504" lon="100.219676">
<time>2014-08-12T16:11:28Z</time></trkpt>
<trkpt lat="25.854524" lon="100.219746">
<time>2014-08-12T16:11:29Z</time></trkpt>
<trkpt lat="25.854534" lon="100.219816">
<time>2014-08-12T16:11:30Z</time></trkpt>
<trkpt lat="25.854524" lon="100.219876">
<time>2014-08-12T16:11:31Z</time></trkpt>
<trkpt lat="25.854504" lon="100.219947">
<time>2014-08-12T16:11:32Z</time></trkpt>
<trkpt lat="25.854434" lon="100.220047">
<time>2014-08-12T16:11:33Z</time></trkpt>
<trkpt lat="25.854324" lon="100.220167">
<time>2014-08-12T16:11:34Z</time></trkpt>
<trkpt lat="25.853785" lon="100.220727">
<time>2014-08-12T16:11:35Z</time></trkpt>
<trkpt lat="25.853565" lon="100.220918">
<time>2014-08-12T16:11:36Z</time></trkpt>
<trkpt lat="25.853475" lon="100.220978">
<time>2014-08-12T16:11:37Z</time></trkpt>
<trkpt lat="25.853395" lon="100.221018">
<time>2014-08-12T16:11:38Z</time></trkpt>
<trkpt lat="25.853295" lon="100.221038">
<time>2014-08-12T16:11:39Z</time></trkpt>
<trkpt lat="25.853174" lon="100.221028">
<time>2014-08-12T16:11:40Z</time></trkpt>
<trkpt lat="25.853054" lon="100.221008">
<time>2014-08-12T16:11:41Z</time></trkpt>
<trkpt lat="25.852954" lon="100.220978">
<time>2014-08-12T16:11:42Z</time></trkpt>
<trkpt lat="25.852824" lon="100.220928">
<time>2014-08-12T16:11:43Z</time></trkpt>
<trkpt lat="25.852754" lon="100.220888">
<time>2014-08-12T16:11:44Z</time></trkpt>
<trkpt lat="25.852614" lon="100.220818">
<time>2014-08-12T16:11:45Z</time></trkpt>
<trkpt lat="25.852514" lon="100.220747">
<time>2014-08-12T16:11:46Z</time></trkpt>
<trkpt lat="25.852363" lon="100.220637">
<time>2014-08-12T16:11:47Z</time></trkpt>
<trkpt lat="25.852073" lon="100.220427">
<time>2014-08-12T16:11:48Z</time></trkpt>
<trkpt lat="25.851863" lon="100.220257">
<time>2014-08-12T16:11:49Z</time></trkpt>
<trkpt lat="25.851632" lon="100.220057">
<time>2014-08-12T16:11:50Z</time></trkpt>
<trkpt lat="25.851312" lon="100.219786">
<time>2014-08-12T16:11:51Z</time></trkpt>
<trkpt lat="25.851011" lon="100.219556">
<time>2014-08-12T16:11:52Z</time></trkpt>
<trkpt lat="25.850351" lon="100.219036">
<time>2014-08-12T16:11:53Z</time></trkpt>
<trkpt lat="25.84968" lon="100.218515">
<time>2014-08-12T16:11:54Z</time></trkpt>
<trkpt lat="25.849499" lon="100.218345">
<time>2014-08-12T16:11:55Z</time></trkpt>
<trkpt lat="25.849088" lon="100.217894">
<time>2014-08-12T16:11:56Z</time></trkpt>
<trkpt lat="25.848778" lon="100.217544">
<time>2014-08-12T16:11:57Z</time></trkpt>
<trkpt lat="25.848447" lon="100.217173">
<time>2014-08-12T16:11:58Z</time></trkpt>
<trkpt lat="25.848377" lon="100.217093">
<time>2014-08-12T16:11:59Z</time></trkpt>
<trkpt lat="25.848327" lon="100.217043">
<time>2014-08-12T16:12:00Z</time></trkpt>
<trkpt lat="25.848257" lon="100.217003">
<time>2014-08-12T16:12:01Z</time></trkpt>
<trkpt lat="25.848187" lon="100.216983">
<time>2014-08-12T16:12:02Z</time></trkpt>
<trkpt lat="25.848047" lon="100.216973">
<time>2014-08-12T16:12:03Z</time></trkpt>
<trkpt lat="25.847917" lon="100.217003">
<time>2014-08-12T16:12:04Z</time></trkpt>
<trkpt lat="25.847797" lon="100.217063">
<time>2014-08-12T16:12:05Z</time></trkpt>
<trkpt lat="25.847727" lon="100.217133">
<time>2014-08-12T16:12:06Z</time></trkpt>
<trkpt lat="25.847687" lon="100.217203">
<time>2014-08-12T16:12:07Z</time></trkpt>
<trkpt lat="25.847657" lon="100.217294">
<time>2014-08-12T16:12:08Z</time></trkpt>
<trkpt lat="25.847438" lon="100.218044">
<time>2014-08-12T16:12:09Z</time></trkpt>
<trkpt lat="25.847398" lon="100.218215">
<time>2014-08-12T16:12:10Z</time></trkpt>
<trkpt lat="25.847318" lon="100.218385">
<time>2014-08-12T16:12:11Z</time></trkpt>
<trkpt lat="25.847138" lon="100.218665">
<time>2014-08-12T16:12:12Z</time></trkpt>
<trkpt lat="25.846918" lon="100.218906">
<time>2014-08-12T16:12:13Z</time></trkpt>
<trkpt lat="25.846788" lon="100.219066">
<time>2014-08-12T16:12:14Z</time></trkpt>
<trkpt lat="25.846688" lon="100.219216">
<time>2014-08-12T16:12:15Z</time></trkpt>
<trkpt lat="25.846638" lon="100.219406">
<time>2014-08-12T16:12:16Z</time></trkpt>
<trkpt lat="25.846609" lon="100.219516">
<time>2014-08-12T16:12:17Z</time></trkpt>
<trkpt lat="25.846589" lon="100.219566">
<time>2014-08-12T16:12:18Z</time></trkpt>
<trkpt lat="25.846569" lon="100.219616">
<time>2014-08-12T16:12:19Z</time></trkpt>
<trkpt lat="25.846529" lon="100.219656">
<time>2014-08-12T16:12:20Z</time></trkpt>
<trkpt lat="25.846509" lon="100.219686">
<time>2014-08-12T16:12:21Z</time></trkpt>
<trkpt lat="25.846449" lon="100.219716">
<time>2014-08-12T16:12:22Z</time></trkpt>
<trkpt lat="25.846389" lon="100.219726">
<time>2014-08-12T16:12:23Z</time></trkpt>
<trkpt lat="25.846339" lon="100.219726">
<time>2014-08-12T16:12:24Z</time></trkpt>
<trkpt lat="25.846299" lon="100.219716">
<time>2014-08-12T16:12:25Z</time></trkpt>
<trkpt lat="25.846258" lon="100.219696">
<time>2014-08-12T16:12:26Z</time></trkpt>
<trkpt lat="25.846208" lon="100.219676">
<time>2014-08-12T16:12:27Z</time></trkpt>
<trkpt lat="25.845988" lon="100.219556">
<time>2014-08-12T16:12:28Z</time></trkpt>
<trkpt lat="25.845798" lon="100.219436">
<time>2014-08-12T16:12:29Z</time></trkpt>
<trkpt lat="25.845588" lon="100.219296">
<time>2014-08-12T16:12:30Z</time></trkpt>
<trkpt lat="25.845237" lon="100.219076">
<time>2014-08-12T16:12:31Z</time></trkpt>
<trkpt lat="25.844967" lon="100.218906">
<time>2014-08-12T16:12:32Z</time></trkpt>
<trkpt lat="25.844747" lon="100.218775">
<time>2014-08-12T16:12:33Z</time></trkpt>
<trkpt lat="25.844616" lon="100.218725">
<time>2014-08-12T16:12:34Z</time></trkpt>
<trkpt lat="25.844536" lon="100.218695">
<time>2014-08-12T16:12:35Z</time></trkpt>
<trkpt lat="25.844456" lon="100.218675">
<time>2014-08-12T16:12:36Z</time></trkpt>
<trkpt lat="25.844346" lon="100.218675">
<time>2014-08-12T16:12:37Z</time></trkpt>
<trkpt lat="25.843876" lon="100.218715">
<time>2014-08-12T16:12:38Z</time></trkpt>
<trkpt lat="25.843736" lon="100.218725">
<time>2014-08-12T16:12:39Z</time></trkpt>
<trkpt lat="25.843596" lon="100.218755">
<time>2014-08-12T16:12:40Z</time></trkpt>
<trkpt lat="25.843526" lon="100.218795">
<time>2014-08-12T16:12:41Z</time></trkpt>
<trkpt lat="25.843456" lon="100.218866">
<time>2014-08-12T16:12:42Z</time></trkpt>
<trkpt lat="25.843426" lon="100.218946">
<time>2014-08-12T16:12:43Z</time></trkpt>
<trkpt lat="25.843396" lon="100.219116">
<time>2014-08-12T16:12:44Z</time></trkpt>
<trkpt lat="25.843397" lon="100.219606">
<time>2014-08-12T16:12:45Z</time></trkpt>
<trkpt lat="25.843417" lon="100.219827">
<time>2014-08-12T16:12:46Z</time></trkpt>
<trkpt lat="25.843447" lon="100.219987">
<time>2014-08-12T16:12:47Z</time></trkpt>
<trkpt lat="25.843517" lon="100.220297">
<time>2014-08-12T16:12:48Z</time></trkpt>
<trkpt lat="25.843598" lon="100.220628">
<time>2014-08-12T16:12:49Z</time></trkpt>
<trkpt lat="25.843638" lon="100.220788">
<time>2014-08-12T16:12:50Z</time></trkpt>
<trkpt lat="25.843698" lon="100.220968">
<time>2014-08-12T16:12:51Z</time></trkpt>
<trkpt lat="25.843738" lon="100.221058">
<time>2014-08-12T16:12:52Z</time></trkpt>
<trkpt lat="25.843788" lon="100.221128">
<time>2014-08-12T16:12:53Z</time></trkpt>
<trkpt lat="25.843818" lon="100.221178">
<time>2014-08-12T16:12:54Z</time></trkpt>
<trkpt lat="25.843828" lon="100.221228">
<time>2014-08-12T16:12:55Z</time></trkpt>
<trkpt lat="25.843838" lon="100.221278">
<time>2014-08-12T16:12:56Z</time></trkpt>
<trkpt lat="25.843839" lon="100.221328">
<time>2014-08-12T16:12:57Z</time></trkpt>
<trkpt lat="25.843829" lon="100.221388">
<time>2014-08-12T16:12:58Z</time></trkpt>
<trkpt lat="25.843829" lon="100.221428">
<time>2014-08-12T16:12:59Z</time></trkpt>
<trkpt lat="25.843819" lon="100.221458">
<time>2014-08-12T16:13:00Z</time></trkpt>
<trkpt lat="25.843799" lon="100.221509">
<time>2014-08-12T16:13:01Z</time></trkpt>
<trkpt lat="25.843749" lon="100.221569">
<time>2014-08-12T16:13:02Z</time></trkpt>
<trkpt lat="25.843709" lon="100.221609">
<time>2014-08-12T16:13:03Z</time></trkpt>
<trkpt lat="25.843629" lon="100.221689">
<time>2014-08-12T16:13:04Z</time></trkpt>
<trkpt lat="25.843559" lon="100.221739">
<time>2014-08-12T16:13:05Z</time></trkpt>
<trkpt lat="25.843359" lon="100.221839">
<time>2014-08-12T16:13:06Z</time></trkpt>
<trkpt lat="25.842909" lon="100.221999">
<time>2014-08-12T16:13:07Z</time></trkpt>
<trkpt lat="25.842568" lon="100.222119">
<time>2014-08-12T16:13:08Z</time></trkpt>
<trkpt lat="25.842408" lon="100.222169">
<time>2014-08-12T16:13:09Z</time></trkpt>
<trkpt lat="25.841998" lon="100.222309">
<time>2014-08-12T16:13:10Z</time></trkpt>
<trkpt lat="25.841628" lon="100.22245">
<time>2014-08-12T16:13:11Z</time></trkpt>
<trkpt lat="25.841528" lon="100.22247">
<time>2014-08-12T16:13:12Z</time></trkpt>
<trkpt lat="25.841408" lon="100.22248">
<time>2014-08-12T16:13:13Z</time></trkpt>
<trkpt lat="25.841318" lon="100.22245">
<time>2014-08-12T16:13:14Z</time></trkpt>
<trkpt lat="25.841258" lon="100.22241">
<time>2014-08-12T16:13:15Z</time></trkpt>
<trkpt lat="25.841188" lon="100.222339">
<time>2014-08-12T16:13:16Z</time></trkpt>
<trkpt lat="25.841138" lon="100.222249">
<time>2014-08-12T16:13:17Z</time></trkpt>
<trkpt lat="25.841097" lon="100.222109">
<time>2014-08-12T16:13:18Z</time></trkpt>
<trkpt lat="25.840987" lon="100.221739">
<time>2014-08-12T16:13:19Z</time></trkpt>
<trkpt lat="25.840806" lon="100.221198">
<time>2014-08-12T16:13:20Z</time></trkpt>
<trkpt lat="25.840646" lon="100.220788">
<time>2014-08-12T16:13:21Z</time></trkpt>
<trkpt lat="25.840606" lon="100.220698">
<time>2014-08-12T16:13:22Z</time></trkpt>
<trkpt lat="25.840546" lon="100.220628">
<time>2014-08-12T16:13:23Z</time></trkpt>
<trkpt lat="25.840476" lon="100.220578">
<time>2014-08-12T16:13:24Z</time></trkpt>
<trkpt lat="25.840395" lon="100.220538">
<time>2014-08-12T16:13:25Z</time></trkpt>
<trkpt lat="25.840275" lon="100.220497">
<time>2014-08-12T16:13:26Z</time></trkpt>
<trkpt lat="25.840175" lon="100.220477">
<time>2014-08-12T16:13:27Z</time></trkpt>
<trkpt lat="25.840055" lon="100.220467">
<time>2014-08-12T16:13:28Z</time></trkpt>
<trkpt lat="25.839835" lon="100.220487">
<time>2014-08-12T16:13:29Z</time></trkpt>
<trkpt lat="25.839705" lon="100.220508">
<time>2014-08-12T16:13:30Z</time></trkpt>
<trkpt lat="25.839575" lon="100.220548">
<time>2014-08-12T16:13:31Z</time></trkpt>
<trkpt lat="25.839545" lon="100.220568">
<time>2014-08-12T16:13:32Z</time></trkpt>
<trkpt lat="25.839475" lon="100.220608">
<time>2014-08-12T16:13:33Z</time></trkpt>
<trkpt lat="25.839405" lon="100.220678">
<time>2014-08-12T16:13:34Z</time></trkpt>
<trkpt lat="25.839285" lon="100.220808">
<time>2014-08-12T16:13:35Z</time></trkpt>
<trkpt lat="25.839175" lon="100.220968">
<time>2014-08-12T16:13:36Z</time></trkpt>
<trkpt lat="25.838975" lon="100.221389">
<time>2014-08-12T16:13:37Z</time></trkpt>
<trkpt lat="25.838686" lon="100.222099">
<time>2014-08-12T16:13:38Z</time></trkpt>
<trkpt lat="25.838367" lon="100.22296">
<time>2014-08-12T16:13:39Z</time></trkpt>
<trkpt lat="25.837997" lon="100.224131">
<time>2014-08-12T16:13:40Z</time></trkpt>
<trkpt lat="25.837718" lon="100.224952">
<time>2014-08-12T16:13:41Z</time></trkpt>
<trkpt lat="25.837628" lon="100.225363">
<time>2014-08-12T16:13:42Z</time></trkpt>
<trkpt lat="25.837598" lon="100.225503">
<time>2014-08-12T16:13:43Z</time></trkpt>
<trkpt lat="25.837578" lon="100.225673">
<time>2014-08-12T16:13:44Z</time></trkpt>
<trkpt lat="25.837588" lon="100.225783">
<time>2014-08-12T16:13:45Z</time></trkpt>
<trkpt lat="25.837629" lon="100.225963">
<time>2014-08-12T16:13:46Z</time></trkpt>
<trkpt lat="25.837669" lon="100.226103">
<time>2014-08-12T16:13:47Z</time></trkpt>
<trkpt lat="25.837749" lon="100.226273">
<time>2014-08-12T16:13:48Z</time></trkpt>
<trkpt lat="25.837879" lon="100.226494">
<time>2014-08-12T16:13:49Z</time></trkpt>
<trkpt lat="25.837949" lon="100.226654">
<time>2014-08-12T16:13:50Z</time></trkpt>
<trkpt lat="25.83798" lon="100.226724">
<time>2014-08-12T16:13:51Z</time></trkpt>
<trkpt lat="25.83798" lon="100.226774">
<time>2014-08-12T16:13:52Z</time></trkpt>
<trkpt lat="25.83799" lon="100.226844">
<time>2014-08-12T16:13:53Z</time></trkpt>
<trkpt lat="25.83797" lon="100.226944">
<time>2014-08-12T16:13:54Z</time></trkpt>
<trkpt lat="25.83797" lon="100.226944">
<time>2014-08-12T16:13:55Z</time></trkpt>
<trkpt lat="25.8378" lon="100.227064">
<time>2014-08-12T16:13:56Z</time></trkpt>
<trkpt lat="25.83758" lon="100.227244">
<time>2014-08-12T16:13:57Z</time></trkpt>
<trkpt lat="25.83743" lon="100.227354">
<time>2014-08-12T16:13:58Z</time></trkpt>
<trkpt lat="25.83724" lon="100.227524">
<time>2014-08-12T16:13:59Z</time></trkpt>
<trkpt lat="25.83675" lon="100.227965">
<time>2014-08-12T16:14:00Z</time></trkpt>
<trkpt lat="25.83627" lon="100.228375">
<time>2014-08-12T16:14:01Z</time></trkpt>
<trkpt lat="25.83573" lon="100.228826">
<time>2014-08-12T16:14:02Z</time></trkpt>
<trkpt lat="25.83513" lon="100.229336">
<time>2014-08-12T16:14:03Z</time></trkpt>
<trkpt lat="25.83501" lon="100.229446">
<time>2014-08-12T16:14:04Z</time></trkpt>
<trkpt lat="25.83501" lon="100.229446">
<time>2014-08-12T16:14:05Z</time></trkpt>
<trkpt lat="25.834609" lon="100.228876">
<time>2014-08-12T16:14:06Z</time></trkpt>
<trkpt lat="25.834298" lon="100.228415">
<time>2014-08-12T16:14:07Z</time></trkpt>
<trkpt lat="25.833938" lon="100.227895">
<time>2014-08-12T16:14:08Z</time></trkpt>
<trkpt lat="25.833828" lon="100.227715">
<time>2014-08-12T16:14:09Z</time></trkpt>
<trkpt lat="25.833587" lon="100.227354">
<time>2014-08-12T16:14:10Z</time></trkpt>
<trkpt lat="25.833357" lon="100.227004">
<time>2014-08-12T16:14:11Z</time></trkpt>
<trkpt lat="25.833347" lon="100.227004">
<time>2014-08-12T16:14:12Z</time></trkpt>
<trkpt lat="25.833006" lon="100.226494">
<time>2014-08-12T16:14:13Z</time></trkpt>
<trkpt lat="25.832906" lon="100.226324">
<time>2014-08-12T16:14:14Z</time></trkpt>
<trkpt lat="25.832605" lon="100.225863">
<time>2014-08-12T16:14:15Z</time></trkpt>
<trkpt lat="25.832325" lon="100.225403">
<time>2014-08-12T16:14:16Z</time></trkpt>
<trkpt lat="25.832094" lon="100.225042">
<time>2014-08-12T16:14:17Z</time></trkpt>
<trkpt lat="25.831864" lon="100.224682">
<time>2014-08-12T16:14:18Z</time></trkpt>
<trkpt lat="25.831583" lon="100.224312">
<time>2014-08-12T16:14:19Z</time></trkpt>
<trkpt lat="25.831163" lon="100.223801">
<time>2014-08-12T16:14:20Z</time></trkpt>
<trkpt lat="25.831062" lon="100.223641">
<time>2014-08-12T16:14:21Z</time></trkpt>
<trkpt lat="25.830982" lon="100.223511">
<time>2014-08-12T16:14:22Z</time></trkpt>
<trkpt lat="25.830982" lon="100.223511">
<time>2014-08-12T16:14:23Z</time></trkpt>
<trkpt lat="25.830872" lon="100.223611">
<time>2014-08-12T16:14:24Z</time></trkpt>
<trkpt lat="25.830752" lon="100.223711">
<time>2014-08-12T16:14:25Z</time></trkpt>
<trkpt lat="25.830702" lon="100.223711">
<time>2014-08-12T16:14:26Z</time></trkpt>
<trkpt lat="25.830482" lon="100.223711">
<time>2014-08-12T16:14:27Z</time></trkpt>
<trkpt lat="25.830422" lon="100.223721">
<time>2014-08-12T16:14:28Z</time></trkpt>
<trkpt lat="25.830102" lon="100.223911">
<time>2014-08-12T16:14:29Z</time></trkpt>
<trkpt lat="25.829812" lon="100.224041">
<time>2014-08-12T16:14:30Z</time></trkpt>
<trkpt lat="25.829472" lon="100.224112">
<time>2014-08-12T16:14:31Z</time></trkpt>
<trkpt lat="25.829332" lon="100.224152">
<time>2014-08-12T16:14:32Z</time></trkpt>
<trkpt lat="25.829012" lon="100.224182">
<time>2014-08-12T16:14:33Z</time></trkpt>
<trkpt lat="25.828861" lon="100.224192">
<time>2014-08-12T16:14:34Z</time></trkpt>
<trkpt lat="25.828721" lon="100.224212">
<time>2014-08-12T16:14:35Z</time></trkpt>
<trkpt lat="25.828621" lon="100.224232">
<time>2014-08-12T16:14:36Z</time></trkpt>
<trkpt lat="25.828431" lon="100.224262">
<time>2014-08-12T16:14:37Z</time></trkpt>
<trkpt lat="25.827641" lon="100.224512">
<time>2014-08-12T16:14:38Z</time></trkpt>
<trkpt lat="25.827431" lon="100.224582">
<time>2014-08-12T16:14:39Z</time></trkpt>
<trkpt lat="25.827261" lon="100.224652">
<time>2014-08-12T16:14:40Z</time></trkpt>
<trkpt lat="25.827081" lon="100.224732">
<time>2014-08-12T16:14:41Z</time></trkpt>
<trkpt lat="25.826991" lon="100.224772">
<time>2014-08-12T16:14:42Z</time></trkpt>
<trkpt lat="25.826911" lon="100.224802">
<time>2014-08-12T16:14:43Z</time></trkpt>
<trkpt lat="25.826911" lon="100.224802">
<time>2014-08-12T16:14:44Z</time></trkpt>
<trkpt lat="25.826851" lon="100.224742">
<time>2014-08-12T16:14:45Z</time></trkpt>
<trkpt lat="25.826821" lon="100.224702">
<time>2014-08-12T16:14:46Z</time></trkpt>
<trkpt lat="25.82675" lon="100.224632">
<time>2014-08-12T16:14:47Z</time></trkpt>
<trkpt lat="25.8267" lon="100.224632">
<time>2014-08-12T16:14:48Z</time></trkpt>
<trkpt lat="25.8266" lon="100.224732">
<time>2014-08-12T16:14:49Z</time></trkpt>
<trkpt lat="25.82646" lon="100.224912">
<time>2014-08-12T16:14:50Z</time></trkpt>
<trkpt lat="25.826331" lon="100.225033">
<time>2014-08-12T16:14:51Z</time></trkpt>
<trkpt lat="25.826141" lon="100.225203">
<time>2014-08-12T16:14:52Z</time></trkpt>
<trkpt lat="25.825921" lon="100.225413">
<time>2014-08-12T16:14:53Z</time></trkpt>
<trkpt lat="25.825771" lon="100.225523">
<time>2014-08-12T16:14:54Z</time></trkpt>
<trkpt lat="25.825621" lon="100.225663">
<time>2014-08-12T16:14:55Z</time></trkpt>
<trkpt lat="25.825461" lon="100.225833">
<time>2014-08-12T16:14:56Z</time></trkpt>
<trkpt lat="25.825211" lon="100.226094">
<time>2014-08-12T16:14:57Z</time></trkpt>
<trkpt lat="25.825051" lon="100.226244">
<time>2014-08-12T16:14:58Z</time></trkpt>
<trkpt lat="25.824951" lon="100.226354">
<time>2014-08-12T16:14:59Z</time></trkpt>
<trkpt lat="25.824831" lon="100.226474">
<time>2014-08-12T16:15:00Z</time></trkpt>
<trkpt lat="25.824791" lon="100.226514">
<time>2014-08-12T16:15:01Z</time></trkpt>
<trkpt lat="25.824711" lon="100.226604">
<time>2014-08-12T16:15:02Z</time></trkpt>
<trkpt lat="25.824581" lon="100.226704">
<time>2014-08-12T16:15:03Z</time></trkpt>
<trkpt lat="25.824451" lon="100.226804">
<time>2014-08-12T16:15:04Z</time></trkpt>
<trkpt lat="25.824231" lon="100.226934">
<time>2014-08-12T16:15:05Z</time></trkpt>
<trkpt lat="25.824001" lon="100.227074">
<time>2014-08-12T16:15:06Z</time></trkpt>
<trkpt lat="25.823861" lon="100.227144">
<time>2014-08-12T16:15:07Z</time></trkpt>
<trkpt lat="25.823771" lon="100.227215">
<time>2014-08-12T16:15:08Z</time></trkpt>
<trkpt lat="25.823671" lon="100.227285">
<time>2014-08-12T16:15:09Z</time></trkpt>
<trkpt lat="25.823521" lon="100.227405">
<time>2014-08-12T16:15:10Z</time></trkpt>
<trkpt lat="25.823391" lon="100.227495">
<time>2014-08-12T16:15:11Z</time></trkpt>
<trkpt lat="25.823301" lon="100.227575">
<time>2014-08-12T16:15:12Z</time></trkpt>
<trkpt lat="25.823231" lon="100.227625">
<time>2014-08-12T16:15:13Z</time></trkpt>
<trkpt lat="25.823121" lon="100.227685">
<time>2014-08-12T16:15:14Z</time></trkpt>
<trkpt lat="25.822941" lon="100.227765">
<time>2014-08-12T16:15:15Z</time></trkpt>
<trkpt lat="25.82278" lon="100.227805">
<time>2014-08-12T16:15:16Z</time></trkpt>
<trkpt lat="25.82264" lon="100.227825">
<time>2014-08-12T16:15:17Z</time></trkpt>
<trkpt lat="25.82249" lon="100.227855">
<time>2014-08-12T16:15:18Z</time></trkpt>
<trkpt lat="25.82226" lon="100.227945">
<time>2014-08-12T16:15:19Z</time></trkpt>
<trkpt lat="25.82211" lon="100.227975">
<time>2014-08-12T16:15:20Z</time></trkpt>
<trkpt lat="25.82196" lon="100.228025">
<time>2014-08-12T16:15:21Z</time></trkpt>
<trkpt lat="25.82177" lon="100.228075">
<time>2014-08-12T16:15:22Z</time></trkpt>
<trkpt lat="25.82166" lon="100.228135">
<time>2014-08-12T16:15:23Z</time></trkpt>
<trkpt lat="25.82153" lon="100.228215">
<time>2014-08-12T16:15:24Z</time></trkpt>
<trkpt lat="25.8214" lon="100.228306">
<time>2014-08-12T16:15:25Z</time></trkpt>
<trkpt lat="25.82124" lon="100.228416">
<time>2014-08-12T16:15:26Z</time></trkpt>
<trkpt lat="25.82086" lon="100.228586">
<time>2014-08-12T16:15:27Z</time></trkpt>
<trkpt lat="25.82063" lon="100.228726">
<time>2014-08-12T16:15:28Z</time></trkpt>
<trkpt lat="25.82043" lon="100.228806">
<time>2014-08-12T16:15:29Z</time></trkpt>
<trkpt lat="25.82017" lon="100.228906">
<time>2014-08-12T16:15:30Z</time></trkpt>
<trkpt lat="25.82017" lon="100.228906">
<time>2014-08-12T16:15:31Z</time></trkpt>
<trkpt lat="25.82016" lon="100.228886">
<time>2014-08-12T16:15:32Z</time></trkpt>
<trkpt lat="25.820119" lon="100.228756">
<time>2014-08-12T16:15:33Z</time></trkpt>
<trkpt lat="25.820069" lon="100.228646">
<time>2014-08-12T16:15:34Z</time></trkpt>
<trkpt lat="25.820039" lon="100.228576">
<time>2014-08-12T16:15:35Z</time></trkpt>
<trkpt lat="25.819969" lon="100.228496">
<time>2014-08-12T16:15:36Z</time></trkpt>
<trkpt lat="25.819909" lon="100.228456">
<time>2014-08-12T16:15:37Z</time></trkpt>
<trkpt lat="25.819849" lon="100.228416">
<time>2014-08-12T16:15:38Z</time></trkpt>
<trkpt lat="25.819799" lon="100.228406">
<time>2014-08-12T16:15:39Z</time></trkpt>
<trkpt lat="25.819739" lon="100.228386">
<time>2014-08-12T16:15:40Z</time></trkpt>
<trkpt lat="25.819659" lon="100.228376">
<time>2014-08-12T16:15:41Z</time></trkpt>
<trkpt lat="25.819559" lon="100.228376">
<time>2014-08-12T16:15:42Z</time></trkpt>
<trkpt lat="25.819399" lon="100.228386">
<time>2014-08-12T16:15:43Z</time></trkpt>
<trkpt lat="25.818788" lon="100.228406">
<time>2014-08-12T16:15:44Z</time></trkpt>
<trkpt lat="25.818218" lon="100.228426">
<time>2014-08-12T16:15:45Z</time></trkpt>
<trkpt lat="25.817598" lon="100.228446">
<time>2014-08-12T16:15:46Z</time></trkpt>
<trkpt lat="25.817437" lon="100.228436">
<time>2014-08-12T16:15:47Z</time></trkpt>
<trkpt lat="25.817327" lon="100.228426">
<time>2014-08-12T16:15:48Z</time></trkpt>
<trkpt lat="25.817207" lon="100.228396">
<time>2014-08-12T16:15:49Z</time></trkpt>
<trkpt lat="25.817097" lon="100.228356">
<time>2014-08-12T16:15:50Z</time></trkpt>
<trkpt lat="25.817007" lon="100.228326">
<time>2014-08-12T16:15:51Z</time></trkpt>
<trkpt lat="25.816807" lon="100.228216">
<time>2014-08-12T16:15:52Z</time></trkpt>
<trkpt lat="25.816286" lon="100.227955">
<time>2014-08-12T16:15:53Z</time></trkpt>
<trkpt lat="25.815896" lon="100.227735">
<time>2014-08-12T16:15:54Z</time></trkpt>
<trkpt lat="25.815706" lon="100.227655">
<time>2014-08-12T16:15:55Z</time></trkpt>
<trkpt lat="25.815536" lon="100.227595">
<time>2014-08-12T16:15:56Z</time></trkpt>
<trkpt lat="25.815335" lon="100.227555">
<time>2014-08-12T16:15:57Z</time></trkpt>
<trkpt lat="25.815035" lon="100.227475">
<time>2014-08-12T16:15:58Z</time></trkpt>
<trkpt lat="25.814965" lon="100.227455">
<time>2014-08-12T16:15:59Z</time></trkpt>
<trkpt lat="25.814815" lon="100.227415">
<time>2014-08-12T16:16:00Z</time></trkpt>
<trkpt lat="25.814615" lon="100.227385">
<time>2014-08-12T16:16:01Z</time></trkpt>
<trkpt lat="25.814305" lon="100.227335">
<time>2014-08-12T16:16:02Z</time></trkpt>
<trkpt lat="25.814145" lon="100.227305">
<time>2014-08-12T16:16:03Z</time></trkpt>
<trkpt lat="25.813934" lon="100.227265">
<time>2014-08-12T16:16:04Z</time></trkpt>
<trkpt lat="25.813804" lon="100.227225">
<time>2014-08-12T16:16:05Z</time></trkpt>
<trkpt lat="25.813644" lon="100.227165">
<time>2014-08-12T16:16:06Z</time></trkpt>
<trkpt lat="25.813524" lon="100.227095">
<time>2014-08-12T16:16:07Z</time></trkpt>
<trkpt lat="25.813424" lon="100.227025">
<time>2014-08-12T16:16:08Z</time></trkpt>
<trkpt lat="25.813324" lon="100.226955">
<time>2014-08-12T16:16:09Z</time></trkpt>
<trkpt lat="25.813204" lon="100.226814">
<time>2014-08-12T16:16:10Z</time></trkpt>
<trkpt lat="25.813083" lon="100.226674">
<time>2014-08-12T16:16:11Z</time></trkpt>
<trkpt lat="25.812793" lon="100.226274">
<time>2014-08-12T16:16:12Z</time></trkpt>
<trkpt lat="25.812693" lon="100.226154">
<time>2014-08-12T16:16:13Z</time></trkpt>
<trkpt lat="25.812432" lon="100.225834">
<time>2014-08-12T16:16:14Z</time></trkpt>
<trkpt lat="25.812322" lon="100.225703">
<time>2014-08-12T16:16:15Z</time></trkpt>
<trkpt lat="25.812272" lon="100.225653">
<time>2014-08-12T16:16:16Z</time></trkpt>
<trkpt lat="25.812052" lon="100.225443">
<time>2014-08-12T16:16:17Z</time></trkpt>
<trkpt lat="25.811741" lon="100.225133">
<time>2014-08-12T16:16:18Z</time></trkpt>
<trkpt lat="25.811291" lon="100.224713">
<time>2014-08-12T16:16:19Z</time></trkpt>
<trkpt lat="25.81109" lon="100.224502">
<time>2014-08-12T16:16:20Z</time></trkpt>
<trkpt lat="25.8109" lon="100.224292">
<time>2014-08-12T16:16:21Z</time></trkpt>
<trkpt lat="25.8108" lon="100.224152">
<time>2014-08-12T16:16:22Z</time></trkpt>
<trkpt lat="25.810609" lon="100.223912">
<time>2014-08-12T16:16:23Z</time></trkpt>
<trkpt lat="25.810549" lon="100.223842">
<time>2014-08-12T16:16:24Z</time></trkpt>
<trkpt lat="25.810429" lon="100.223722">
<time>2014-08-12T16:16:25Z</time></trkpt>
<trkpt lat="25.810269" lon="100.223612">
<time>2014-08-12T16:16:26Z</time></trkpt>
<trkpt lat="25.810119" lon="100.223511">
<time>2014-08-12T16:16:27Z</time></trkpt>
<trkpt lat="25.810049" lon="100.223441">
<time>2014-08-12T16:16:28Z</time></trkpt>
<trkpt lat="25.809958" lon="100.223341">
<time>2014-08-12T16:16:29Z</time></trkpt>
<trkpt lat="25.809888" lon="100.223251">
<time>2014-08-12T16:16:30Z</time></trkpt>
<trkpt lat="25.809788" lon="100.223071">
<time>2014-08-12T16:16:31Z</time></trkpt>
<trkpt lat="25.809708" lon="100.222891">
<time>2014-08-12T16:16:32Z</time></trkpt>
<trkpt lat="25.809588" lon="100.222641">
<time>2014-08-12T16:16:33Z</time></trkpt>
<trkpt lat="25.809547" lon="100.22257">
<time>2014-08-12T16:16:34Z</time></trkpt>
<trkpt lat="25.809497" lon="100.22251">
<time>2014-08-12T16:16:35Z</time></trkpt>
<trkpt lat="25.809447" lon="100.22248">
<time>2014-08-12T16:16:36Z</time></trkpt>
<trkpt lat="25.809397" lon="100.22245">
<time>2014-08-12T16:16:37Z</time></trkpt>
<trkpt lat="25.809327" lon="100.22243">
<time>2014-08-12T16:16:38Z</time></trkpt>
<trkpt lat="25.809257" lon="100.22241">
<time>2014-08-12T16:16:39Z</time></trkpt>
<trkpt lat="25.809137" lon="100.2224">
<time>2014-08-12T16:16:40Z</time></trkpt>
<trkpt lat="25.808997" lon="100.22237">
<time>2014-08-12T16:16:41Z</time></trkpt>
<trkpt lat="25.808557" lon="100.22232">
<time>2014-08-12T16:16:42Z</time></trkpt>
<trkpt lat="25.807946" lon="100.22225">
<time>2014-08-12T16:16:43Z</time></trkpt>
<trkpt lat="25.807226" lon="100.22218">
<time>2014-08-12T16:16:44Z</time></trkpt>
<trkpt lat="25.806475" lon="100.22215">
<time>2014-08-12T16:16:45Z</time></trkpt>
<trkpt lat="25.805304" lon="100.22214">
<time>2014-08-12T16:16:46Z</time></trkpt>
<trkpt lat="25.805154" lon="100.22212">
<time>2014-08-12T16:16:47Z</time></trkpt>
<trkpt lat="25.805014" lon="100.22209">
<time>2014-08-12T16:16:48Z</time></trkpt>
<trkpt lat="25.804894" lon="100.22206">
<time>2014-08-12T16:16:49Z</time></trkpt>
<trkpt lat="25.804684" lon="100.22197">
<time>2014-08-12T16:16:50Z</time></trkpt>
<trkpt lat="25.804524" lon="100.22187">
<time>2014-08-12T16:16:51Z</time></trkpt>
<trkpt lat="25.804313" lon="100.2217">
<time>2014-08-12T16:16:52Z</time></trkpt>
<trkpt lat="25.804143" lon="100.221509">
<time>2014-08-12T16:16:53Z</time></trkpt>
<trkpt lat="25.803983" lon="100.221339">
<time>2014-08-12T16:16:54Z</time></trkpt>
<trkpt lat="25.803752" lon="100.221109">
<time>2014-08-12T16:16:55Z</time></trkpt>
<trkpt lat="25.803522" lon="100.220919">
<time>2014-08-12T16:16:56Z</time></trkpt>
<trkpt lat="25.803412" lon="100.220839">
<time>2014-08-12T16:16:57Z</time></trkpt>
<trkpt lat="25.803302" lon="100.220779">
<time>2014-08-12T16:16:58Z</time></trkpt>
<trkpt lat="25.803162" lon="100.220729">
<time>2014-08-12T16:16:59Z</time></trkpt>
<trkpt lat="25.802991" lon="100.220699">
<time>2014-08-12T16:17:00Z</time></trkpt>
<trkpt lat="25.802781" lon="100.220669">
<time>2014-08-12T16:17:01Z</time></trkpt>
<trkpt lat="25.802561" lon="100.220639">
<time>2014-08-12T16:17:02Z</time></trkpt>
<trkpt lat="25.802281" lon="100.220639">
<time>2014-08-12T16:17:03Z</time></trkpt>
<trkpt lat="25.801881" lon="100.220659">
<time>2014-08-12T16:17:04Z</time></trkpt>
<trkpt lat="25.801591" lon="100.220679">
<time>2014-08-12T16:17:05Z</time></trkpt>
<trkpt lat="25.80138" lon="100.220699">
<time>2014-08-12T16:17:06Z</time></trkpt>
<trkpt lat="25.80125" lon="100.220669">
<time>2014-08-12T16:17:07Z</time></trkpt>
<trkpt lat="25.80112" lon="100.220619">
<time>2014-08-12T16:17:08Z</time></trkpt>
<trkpt lat="25.80088" lon="100.220508">
<time>2014-08-12T16:17:09Z</time></trkpt>
<trkpt lat="25.80062" lon="100.220348">
<time>2014-08-12T16:17:10Z</time></trkpt>
<trkpt lat="25.80052" lon="100.220298">
<time>2014-08-12T16:17:11Z</time></trkpt>
<trkpt lat="25.800369" lon="100.220248">
<time>2014-08-12T16:17:12Z</time></trkpt>
<trkpt lat="25.800099" lon="100.220178">
<time>2014-08-12T16:17:13Z</time></trkpt>
<trkpt lat="25.799729" lon="100.220168">
<time>2014-08-12T16:17:14Z</time></trkpt>
<trkpt lat="25.798968" lon="100.220138">
<time>2014-08-12T16:17:15Z</time></trkpt>
<trkpt lat="25.798548" lon="100.220128">
<time>2014-08-12T16:17:16Z</time></trkpt>
<trkpt lat="25.798178" lon="100.220088">
<time>2014-08-12T16:17:17Z</time></trkpt>
<trkpt lat="25.797838" lon="100.220008">
<time>2014-08-12T16:17:18Z</time></trkpt>
<trkpt lat="25.797527" lon="100.219848">
<time>2014-08-12T16:17:19Z</time></trkpt>
<trkpt lat="25.797137" lon="100.219588">
<time>2014-08-12T16:17:20Z</time></trkpt>
<trkpt lat="25.796396" lon="100.219167">
<time>2014-08-12T16:17:21Z</time></trkpt>
<trkpt lat="25.795925" lon="100.218907">
<time>2014-08-12T16:17:22Z</time></trkpt>
<trkpt lat="25.795515" lon="100.218697">
<time>2014-08-12T16:17:23Z</time></trkpt>
<trkpt lat="25.795174" lon="100.218576">
<time>2014-08-12T16:17:24Z</time></trkpt>
<trkpt lat="25.794894" lon="100.218496">
<time>2014-08-12T16:17:25Z</time></trkpt>
<trkpt lat="25.794724" lon="100.218476">
<time>2014-08-12T16:17:26Z</time></trkpt>
<trkpt lat="25.794604" lon="100.218476">
<time>2014-08-12T16:17:27Z</time></trkpt>
<trkpt lat="25.794194" lon="100.218526">
<time>2014-08-12T16:17:28Z</time></trkpt>
<trkpt lat="25.793563" lon="100.218657">
<time>2014-08-12T16:17:29Z</time></trkpt>
<trkpt lat="25.792683" lon="100.218817">
<time>2014-08-12T16:17:30Z</time></trkpt>
<trkpt lat="25.792083" lon="100.218947">
<time>2014-08-12T16:17:31Z</time></trkpt>
<trkpt lat="25.791873" lon="100.218967">
<time>2014-08-12T16:17:32Z</time></trkpt>
<trkpt lat="25.791653" lon="100.218977">
<time>2014-08-12T16:17:33Z</time></trkpt>
<trkpt lat="25.791462" lon="100.218947">
<time>2014-08-12T16:17:34Z</time></trkpt>
<trkpt lat="25.790932" lon="100.218837">
<time>2014-08-12T16:17:35Z</time></trkpt>
<trkpt lat="25.789731" lon="100.218577">
<time>2014-08-12T16:17:36Z</time></trkpt>
<trkpt lat="25.78911" lon="100.218436">
<time>2014-08-12T16:17:37Z</time></trkpt>
<trkpt lat="25.7886" lon="100.218376">
<time>2014-08-12T16:17:38Z</time></trkpt>
<trkpt lat="25.787829" lon="100.218276">
<time>2014-08-12T16:17:39Z</time></trkpt>
<trkpt lat="25.787469" lon="100.218246">
<time>2014-08-12T16:17:40Z</time></trkpt>
<trkpt lat="25.786969" lon="100.218206">
<time>2014-08-12T16:17:41Z</time></trkpt>
<trkpt lat="25.786288" lon="100.218106">
<time>2014-08-12T16:17:42Z</time></trkpt>
<trkpt lat="25.785868" lon="100.218066">
<time>2014-08-12T16:17:43Z</time></trkpt>
<trkpt lat="25.785658" lon="100.218036">
<time>2014-08-12T16:17:44Z</time></trkpt>
<trkpt lat="25.785488" lon="100.218006">
<time>2014-08-12T16:17:45Z</time></trkpt>
<trkpt lat="25.785127" lon="100.217876">
<time>2014-08-12T16:17:46Z</time></trkpt>
<trkpt lat="25.784757" lon="100.217716">
<time>2014-08-12T16:17:47Z</time></trkpt>
<trkpt lat="25.784096" lon="100.217365">
<time>2014-08-12T16:17:48Z</time></trkpt>
<trkpt lat="25.783545" lon="100.217075">
<time>2014-08-12T16:17:49Z</time></trkpt>
<trkpt lat="25.783415" lon="100.217015">
<time>2014-08-12T16:17:50Z</time></trkpt>
<trkpt lat="25.783265" lon="100.216905">
<time>2014-08-12T16:17:51Z</time></trkpt>
<trkpt lat="25.783005" lon="100.216644">
<time>2014-08-12T16:17:52Z</time></trkpt>
<trkpt lat="25.782794" lon="100.216404">
<time>2014-08-12T16:17:53Z</time></trkpt>
<trkpt lat="25.782624" lon="100.216254">
<time>2014-08-12T16:17:54Z</time></trkpt>
<trkpt lat="25.782323" lon="100.215984">
<time>2014-08-12T16:17:55Z</time></trkpt>
<trkpt lat="25.781933" lon="100.215743">
<time>2014-08-12T16:17:56Z</time></trkpt>
<trkpt lat="25.781823" lon="100.215683">
<time>2014-08-12T16:17:57Z</time></trkpt>
<trkpt lat="25.781683" lon="100.215613">
<time>2014-08-12T16:17:58Z</time></trkpt>
<trkpt lat="25.781552" lon="100.215553">
<time>2014-08-12T16:17:59Z</time></trkpt>
<trkpt lat="25.781432" lon="100.215503">
<time>2014-08-12T16:18:00Z</time></trkpt>
<trkpt lat="25.781332" lon="100.215463">
<time>2014-08-12T16:18:01Z</time></trkpt>
<trkpt lat="25.781232" lon="100.215443">
<time>2014-08-12T16:18:02Z</time></trkpt>
<trkpt lat="25.781082" lon="100.215443">
<time>2014-08-12T16:18:03Z</time></trkpt>
<trkpt lat="25.780972" lon="100.215473">
<time>2014-08-12T16:18:04Z</time></trkpt>
<trkpt lat="25.780822" lon="100.215543">
<time>2014-08-12T16:18:05Z</time></trkpt>
<trkpt lat="25.780542" lon="100.215733">
<time>2014-08-12T16:18:06Z</time></trkpt>
<trkpt lat="25.780302" lon="100.215853">
<time>2014-08-12T16:18:07Z</time></trkpt>
<trkpt lat="25.780002" lon="100.215974">
<time>2014-08-12T16:18:08Z</time></trkpt>
<trkpt lat="25.779692" lon="100.216094">
<time>2014-08-12T16:18:09Z</time></trkpt>
<trkpt lat="25.779402" lon="100.216194">
<time>2014-08-12T16:18:10Z</time></trkpt>
<trkpt lat="25.779202" lon="100.216264">
<time>2014-08-12T16:18:11Z</time></trkpt>
<trkpt lat="25.778912" lon="100.216364">
<time>2014-08-12T16:18:12Z</time></trkpt>
<trkpt lat="25.778632" lon="100.216434">
<time>2014-08-12T16:18:13Z</time></trkpt>
<trkpt lat="25.778412" lon="100.216484">
<time>2014-08-12T16:18:14Z</time></trkpt>
<trkpt lat="25.778211" lon="100.216504">
<time>2014-08-12T16:18:15Z</time></trkpt>
<trkpt lat="25.777921" lon="100.216524">
<time>2014-08-12T16:18:16Z</time></trkpt>
<trkpt lat="25.777681" lon="100.216524">
<time>2014-08-12T16:18:17Z</time></trkpt>
<trkpt lat="25.777411" lon="100.216534">
<time>2014-08-12T16:18:18Z</time></trkpt>
<trkpt lat="25.777141" lon="100.216544">
<time>2014-08-12T16:18:19Z</time></trkpt>
<trkpt lat="25.776551" lon="100.216564">
<time>2014-08-12T16:18:20Z</time></trkpt>
<trkpt lat="25.77635" lon="100.216584">
<time>2014-08-12T16:18:21Z</time></trkpt>
<trkpt lat="25.77615" lon="100.216604">
<time>2014-08-12T16:18:22Z</time></trkpt>
<trkpt lat="25.77598" lon="100.216645">
<time>2014-08-12T16:18:23Z</time></trkpt>
<trkpt lat="25.77576" lon="100.216765">
<time>2014-08-12T16:18:24Z</time></trkpt>
<trkpt lat="25.77548" lon="100.216925">
<time>2014-08-12T16:18:25Z</time></trkpt>
<trkpt lat="25.7753" lon="100.217005">
<time>2014-08-12T16:18:26Z</time></trkpt>
<trkpt lat="25.7751" lon="100.217115">
<time>2014-08-12T16:18:27Z</time></trkpt>
<trkpt lat="25.77491" lon="100.217195">
<time>2014-08-12T16:18:28Z</time></trkpt>
<trkpt lat="25.77483" lon="100.217215">
<time>2014-08-12T16:18:29Z</time></trkpt>
<trkpt lat="25.77472" lon="100.217235">
<time>2014-08-12T16:18:30Z</time></trkpt>
<trkpt lat="25.77459" lon="100.217225">
<time>2014-08-12T16:18:31Z</time></trkpt>
<trkpt lat="25.77444" lon="100.217195">
<time>2014-08-12T16:18:32Z</time></trkpt>
<trkpt lat="25.77417" lon="100.217125">
<time>2014-08-12T16:18:33Z</time></trkpt>
<trkpt lat="25.773719" lon="100.217005">
<time>2014-08-12T16:18:34Z</time></trkpt>
<trkpt lat="25.773319" lon="100.216885">
<time>2014-08-12T16:18:35Z</time></trkpt>
<trkpt lat="25.773139" lon="100.216835">
<time>2014-08-12T16:18:36Z</time></trkpt>
<trkpt lat="25.773059" lon="100.216825">
<time>2014-08-12T16:18:37Z</time></trkpt>
<trkpt lat="25.772999" lon="100.216805">
<time>2014-08-12T16:18:38Z</time></trkpt>
<trkpt lat="25.772929" lon="100.216795">
<time>2014-08-12T16:18:39Z</time></trkpt>
<trkpt lat="25.772859" lon="100.216795">
<time>2014-08-12T16:18:40Z</time></trkpt>
<trkpt lat="25.772798" lon="100.216795">
<time>2014-08-12T16:18:41Z</time></trkpt>
<trkpt lat="25.772748" lon="100.216795">
<time>2014-08-12T16:18:42Z</time></trkpt>
<trkpt lat="25.772688" lon="100.216805">
<time>2014-08-12T16:18:43Z</time></trkpt>
<trkpt lat="25.772638" lon="100.216815">
<time>2014-08-12T16:18:44Z</time></trkpt>
<trkpt lat="25.772578" lon="100.216835">
<time>2014-08-12T16:18:45Z</time></trkpt>
<trkpt lat="25.772508" lon="100.216855">
<time>2014-08-12T16:18:46Z</time></trkpt>
<trkpt lat="25.772418" lon="100.216885">
<time>2014-08-12T16:18:47Z</time></trkpt>
<trkpt lat="25.772358" lon="100.216915">
<time>2014-08-12T16:18:48Z</time></trkpt>
<trkpt lat="25.772278" lon="100.216945">
<time>2014-08-12T16:18:49Z</time></trkpt>
<trkpt lat="25.772178" lon="100.216985">
<time>2014-08-12T16:18:50Z</time></trkpt>
<trkpt lat="25.772078" lon="100.217025">
<time>2014-08-12T16:18:51Z</time></trkpt>
<trkpt lat="25.771948" lon="100.217075">
<time>2014-08-12T16:18:52Z</time></trkpt>
<trkpt lat="25.771788" lon="100.217145">
<time>2014-08-12T16:18:53Z</time></trkpt>
<trkpt lat="25.771568" lon="100.217235">
<time>2014-08-12T16:18:54Z</time></trkpt>
<trkpt lat="25.771448" lon="100.217285">
<time>2014-08-12T16:18:55Z</time></trkpt>
<trkpt lat="25.771318" lon="100.217335">
<time>2014-08-12T16:18:56Z</time></trkpt>
<trkpt lat="25.771118" lon="100.217416">
<time>2014-08-12T16:18:57Z</time></trkpt>
<trkpt lat="25.770958" lon="100.217476">
<time>2014-08-12T16:18:58Z</time></trkpt>
<trkpt lat="25.770758" lon="100.217536">
<time>2014-08-12T16:18:59Z</time></trkpt>
<trkpt lat="25.770528" lon="100.217606">
<time>2014-08-12T16:19:00Z</time></trkpt>
<trkpt lat="25.770418" lon="100.217626">
<time>2014-08-12T16:19:01Z</time></trkpt>
<trkpt lat="25.770238" lon="100.217666">
<time>2014-08-12T16:19:02Z</time></trkpt>
<trkpt lat="25.769968" lon="100.217716">
<time>2014-08-12T16:19:03Z</time></trkpt>
<trkpt lat="25.769818" lon="100.217746">
<time>2014-08-12T16:19:04Z</time></trkpt>
<trkpt lat="25.769658" lon="100.217786">
<time>2014-08-12T16:19:05Z</time></trkpt>
<trkpt lat="25.769528" lon="100.217806">
<time>2014-08-12T16:19:06Z</time></trkpt>
<trkpt lat="25.769328" lon="100.217846">
<time>2014-08-12T16:19:07Z</time></trkpt>
<trkpt lat="25.769047" lon="100.217886">
<time>2014-08-12T16:19:08Z</time></trkpt>
<trkpt lat="25.768827" lon="100.217926">
<time>2014-08-12T16:19:09Z</time></trkpt>
<trkpt lat="25.768567" lon="100.217966">
<time>2014-08-12T16:19:10Z</time></trkpt>
<trkpt lat="25.768377" lon="100.218006">
<time>2014-08-12T16:19:11Z</time></trkpt>
<trkpt lat="25.768247" lon="100.218056">
<time>2014-08-12T16:19:12Z</time></trkpt>
<trkpt lat="25.767607" lon="100.218337">
<time>2014-08-12T16:19:13Z</time></trkpt>
<trkpt lat="25.766627" lon="100.218907">
<time>2014-08-12T16:19:14Z</time></trkpt>
<trkpt lat="25.766537" lon="100.218958">
<time>2014-08-12T16:19:15Z</time></trkpt>
<trkpt lat="25.766457" lon="100.218988">
<time>2014-08-12T16:19:16Z</time></trkpt>
<trkpt lat="25.766367" lon="100.219028">
<time>2014-08-12T16:19:17Z</time></trkpt>
<trkpt lat="25.766277" lon="100.219068">
<time>2014-08-12T16:19:18Z</time></trkpt>
<trkpt lat="25.766157" lon="100.219108">
<time>2014-08-12T16:19:19Z</time></trkpt>
<trkpt lat="25.766027" lon="100.219158">
<time>2014-08-12T16:19:20Z</time></trkpt>
<trkpt lat="25.765937" lon="100.219188">
<time>2014-08-12T16:19:21Z</time></trkpt>
<trkpt lat="25.765757" lon="100.219258">
<time>2014-08-12T16:19:22Z</time></trkpt>
<trkpt lat="25.765507" lon="100.219318">
<time>2014-08-12T16:19:23Z</time></trkpt>
<trkpt lat="25.765277" lon="100.219368">
<time>2014-08-12T16:19:24Z</time></trkpt>
<trkpt lat="25.765137" lon="100.219388">
<time>2014-08-12T16:19:25Z</time></trkpt>
<trkpt lat="25.765017" lon="100.219418">
<time>2014-08-12T16:19:26Z</time></trkpt>
<trkpt lat="25.764927" lon="100.219438">
<time>2014-08-12T16:19:27Z</time></trkpt>
<trkpt lat="25.764817" lon="100.219468">
<time>2014-08-12T16:19:28Z</time></trkpt>
<trkpt lat="25.764667" lon="100.219538">
<time>2014-08-12T16:19:29Z</time></trkpt>
<trkpt lat="25.764536" lon="100.219588">
<time>2014-08-12T16:19:30Z</time></trkpt>
<trkpt lat="25.764406" lon="100.219628">
<time>2014-08-12T16:19:31Z</time></trkpt>
<trkpt lat="25.764276" lon="100.219648">
<time>2014-08-12T16:19:32Z</time></trkpt>
<trkpt lat="25.764176" lon="100.219648">
<time>2014-08-12T16:19:33Z</time></trkpt>
<trkpt lat="25.763996" lon="100.219658">
<time>2014-08-12T16:19:34Z</time></trkpt>
<trkpt lat="25.763836" lon="100.219698">
<time>2014-08-12T16:19:35Z</time></trkpt>
<trkpt lat="25.763706" lon="100.219739">
<time>2014-08-12T16:19:36Z</time></trkpt>
<trkpt lat="25.763546" lon="100.219789">
<time>2014-08-12T16:19:37Z</time></trkpt>
<trkpt lat="25.763406" lon="100.219829">
<time>2014-08-12T16:19:38Z</time></trkpt>
<trkpt lat="25.763256" lon="100.219879">
<time>2014-08-12T16:19:39Z</time></trkpt>
<trkpt lat="25.763146" lon="100.219929">
<time>2014-08-12T16:19:40Z</time></trkpt>
<trkpt lat="25.762976" lon="100.220009">
<time>2014-08-12T16:19:41Z</time></trkpt>
<trkpt lat="25.762886" lon="100.220069">
<time>2014-08-12T16:19:42Z</time></trkpt>
<trkpt lat="25.762726" lon="100.220159">
<time>2014-08-12T16:19:43Z</time></trkpt>
<trkpt lat="25.762606" lon="100.220209">
<time>2014-08-12T16:19:44Z</time></trkpt>
<trkpt lat="25.762526" lon="100.220249">
<time>2014-08-12T16:19:45Z</time></trkpt>
<trkpt lat="25.762426" lon="100.220289">
<time>2014-08-12T16:19:46Z</time></trkpt>
<trkpt lat="25.762226" lon="100.220379">
<time>2014-08-12T16:19:47Z</time></trkpt>
<trkpt lat="25.761926" lon="100.220509">
<time>2014-08-12T16:19:48Z</time></trkpt>
<trkpt lat="25.761766" lon="100.22058">
<time>2014-08-12T16:19:49Z</time></trkpt>
<trkpt lat="25.761596" lon="100.22067">
<time>2014-08-12T16:19:50Z</time></trkpt>
<trkpt lat="25.761436" lon="100.22076">
<time>2014-08-12T16:19:51Z</time></trkpt>
<trkpt lat="25.761306" lon="100.22083">
<time>2014-08-12T16:19:52Z</time></trkpt>
<trkpt lat="25.761036" lon="100.22097">
<time>2014-08-12T16:19:53Z</time></trkpt>
<trkpt lat="25.760756" lon="100.22109">
<time>2014-08-12T16:19:54Z</time></trkpt>
<trkpt lat="25.760616" lon="100.22115">
<time>2014-08-12T16:19:55Z</time></trkpt>
<trkpt lat="25.760396" lon="100.22125">
<time>2014-08-12T16:19:56Z</time></trkpt>
<trkpt lat="25.760176" lon="100.22138">
<time>2014-08-12T16:19:57Z</time></trkpt>
<trkpt lat="25.759836" lon="100.221551">
<time>2014-08-12T16:19:58Z</time></trkpt>
<trkpt lat="25.759716" lon="100.221591">
<time>2014-08-12T16:19:59Z</time></trkpt>
<trkpt lat="25.759576" lon="100.221671">
<time>2014-08-12T16:20:00Z</time></trkpt>
<trkpt lat="25.759486" lon="100.221731">
<time>2014-08-12T16:20:01Z</time></trkpt>
<trkpt lat="25.759386" lon="100.221821">
<time>2014-08-12T16:20:02Z</time></trkpt>
<trkpt lat="25.759046" lon="100.222101">
<time>2014-08-12T16:20:03Z</time></trkpt>
<trkpt lat="25.758766" lon="100.222301">
<time>2014-08-12T16:20:04Z</time></trkpt>
<trkpt lat="25.758656" lon="100.222402">
<time>2014-08-12T16:20:05Z</time></trkpt>
<trkpt lat="25.758556" lon="100.222522">
<time>2014-08-12T16:20:06Z</time></trkpt>
<trkpt lat="25.758396" lon="100.222732">
<time>2014-08-12T16:20:07Z</time></trkpt>
<trkpt lat="25.758196" lon="100.222992">
<time>2014-08-12T16:20:08Z</time></trkpt>
<trkpt lat="25.758006" lon="100.223252">
<time>2014-08-12T16:20:09Z</time></trkpt>
<trkpt lat="25.757796" lon="100.223493">
<time>2014-08-12T16:20:10Z</time></trkpt>
<trkpt lat="25.757646" lon="100.223693">
<time>2014-08-12T16:20:11Z</time></trkpt>
<trkpt lat="25.757546" lon="100.223823">
<time>2014-08-12T16:20:12Z</time></trkpt>
<trkpt lat="25.757416" lon="100.223933">
<time>2014-08-12T16:20:13Z</time></trkpt>
<trkpt lat="25.757276" lon="100.224033">
<time>2014-08-12T16:20:14Z</time></trkpt>
<trkpt lat="25.757016" lon="100.224163">
<time>2014-08-12T16:20:15Z</time></trkpt>
<trkpt lat="25.756906" lon="100.224213">
<time>2014-08-12T16:20:16Z</time></trkpt>
<trkpt lat="25.756696" lon="100.224304">
<time>2014-08-12T16:20:17Z</time></trkpt>
<trkpt lat="25.756486" lon="100.224394">
<time>2014-08-12T16:20:18Z</time></trkpt>
<trkpt lat="25.756336" lon="100.224464">
<time>2014-08-12T16:20:19Z</time></trkpt>
<trkpt lat="25.756126" lon="100.224554">
<time>2014-08-12T16:20:20Z</time></trkpt>
<trkpt lat="25.755916" lon="100.224634">
<time>2014-08-12T16:20:21Z</time></trkpt>
<trkpt lat="25.755736" lon="100.224704">
<time>2014-08-12T16:20:22Z</time></trkpt>
<trkpt lat="25.755586" lon="100.224804">
<time>2014-08-12T16:20:23Z</time></trkpt>
<trkpt lat="25.755466" lon="100.224844">
<time>2014-08-12T16:20:24Z</time></trkpt>
<trkpt lat="25.755376" lon="100.224854">
<time>2014-08-12T16:20:25Z</time></trkpt>
<trkpt lat="25.755276" lon="100.224854">
<time>2014-08-12T16:20:26Z</time></trkpt>
<trkpt lat="25.755086" lon="100.224864">
<time>2014-08-12T16:20:27Z</time></trkpt>
<trkpt lat="25.754886" lon="100.224884">
<time>2014-08-12T16:20:28Z</time></trkpt>
<trkpt lat="25.754686" lon="100.224894">
<time>2014-08-12T16:20:29Z</time></trkpt>
<trkpt lat="25.754335" lon="100.224954">
<time>2014-08-12T16:20:30Z</time></trkpt>
<trkpt lat="25.753965" lon="100.225024">
<time>2014-08-12T16:20:31Z</time></trkpt>
<trkpt lat="25.753325" lon="100.225144">
<time>2014-08-12T16:20:32Z</time></trkpt>
<trkpt lat="25.753005" lon="100.225184">
<time>2014-08-12T16:20:33Z</time></trkpt>
<trkpt lat="25.752665" lon="100.225255">
<time>2014-08-12T16:20:34Z</time></trkpt>
<trkpt lat="25.752455" lon="100.225295">
<time>2014-08-12T16:20:35Z</time></trkpt>
<trkpt lat="25.752285" lon="100.225315">
<time>2014-08-12T16:20:36Z</time></trkpt>
<trkpt lat="25.752104" lon="100.225315">
<time>2014-08-12T16:20:37Z</time></trkpt>
<trkpt lat="25.751834" lon="100.225295">
<time>2014-08-12T16:20:38Z</time></trkpt>
<trkpt lat="25.751604" lon="100.225255">
<time>2014-08-12T16:20:39Z</time></trkpt>
<trkpt lat="25.751394" lon="100.225194">
<time>2014-08-12T16:20:40Z</time></trkpt>
<trkpt lat="25.751244" lon="100.225164">
<time>2014-08-12T16:20:41Z</time></trkpt>
<trkpt lat="25.751044" lon="100.225154">
<time>2014-08-12T16:20:42Z</time></trkpt>
<trkpt lat="25.750874" lon="100.225154">
<time>2014-08-12T16:20:43Z</time></trkpt>
<trkpt lat="25.750684" lon="100.225195">
<time>2014-08-12T16:20:44Z</time></trkpt>
<trkpt lat="25.750543" lon="100.225245">
<time>2014-08-12T16:20:45Z</time></trkpt>
<trkpt lat="25.750323" lon="100.225365">
<time>2014-08-12T16:20:46Z</time></trkpt>
<trkpt lat="25.750103" lon="100.225505">
<time>2014-08-12T16:20:47Z</time></trkpt>
<trkpt lat="25.750013" lon="100.225555">
<time>2014-08-12T16:20:48Z</time></trkpt>
<trkpt lat="25.749923" lon="100.225605">
<time>2014-08-12T16:20:49Z</time></trkpt>
<trkpt lat="25.749783" lon="100.225695">
<time>2014-08-12T16:20:50Z</time></trkpt>
<trkpt lat="25.749643" lon="100.225775">
<time>2014-08-12T16:20:51Z</time></trkpt>
<trkpt lat="25.749483" lon="100.225855">
<time>2014-08-12T16:20:52Z</time></trkpt>
<trkpt lat="25.749383" lon="100.225915">
<time>2014-08-12T16:20:53Z</time></trkpt>
<trkpt lat="25.749243" lon="100.225985">
<time>2014-08-12T16:20:54Z</time></trkpt>
<trkpt lat="25.749133" lon="100.226045">
<time>2014-08-12T16:20:55Z</time></trkpt>
<trkpt lat="25.748933" lon="100.226145">
<time>2014-08-12T16:20:56Z</time></trkpt>
<trkpt lat="25.748803" lon="100.226215">
<time>2014-08-12T16:20:57Z</time></trkpt>
<trkpt lat="25.748723" lon="100.226266">
<time>2014-08-12T16:20:58Z</time></trkpt>
<trkpt lat="25.748643" lon="100.226316">
<time>2014-08-12T16:20:59Z</time></trkpt>
<trkpt lat="25.748513" lon="100.226416">
<time>2014-08-12T16:21:00Z</time></trkpt>
<trkpt lat="25.748453" lon="100.226466">
<time>2014-08-12T16:21:01Z</time></trkpt>
<trkpt lat="25.748363" lon="100.226526">
<time>2014-08-12T16:21:02Z</time></trkpt>
<trkpt lat="25.748263" lon="100.226616">
<time>2014-08-12T16:21:03Z</time></trkpt>
<trkpt lat="25.748173" lon="100.226676">
<time>2014-08-12T16:21:04Z</time></trkpt>
<trkpt lat="25.748083" lon="100.226746">
<time>2014-08-12T16:21:05Z</time></trkpt>
<trkpt lat="25.748003" lon="100.226806">
<time>2014-08-12T16:21:06Z</time></trkpt>
<trkpt lat="25.747913" lon="100.226856">
<time>2014-08-12T16:21:07Z</time></trkpt>
<trkpt lat="25.747803" lon="100.226916">
<time>2014-08-12T16:21:08Z</time></trkpt>
<trkpt lat="25.747693" lon="100.226966">
<time>2014-08-12T16:21:09Z</time></trkpt>
<trkpt lat="25.747603" lon="100.227006">
<time>2014-08-12T16:21:10Z</time></trkpt>
<trkpt lat="25.747413" lon="100.227086">
<time>2014-08-12T16:21:11Z</time></trkpt>
<trkpt lat="25.747303" lon="100.227136">
<time>2014-08-12T16:21:12Z</time></trkpt>
<trkpt lat="25.747113" lon="100.227206">
<time>2014-08-12T16:21:13Z</time></trkpt>
<trkpt lat="25.747023" lon="100.227256">
<time>2014-08-12T16:21:14Z</time></trkpt>
<trkpt lat="25.746943" lon="100.227286">
<time>2014-08-12T16:21:15Z</time></trkpt>
<trkpt lat="25.746873" lon="100.227327">
<time>2014-08-12T16:21:16Z</time></trkpt>
<trkpt lat="25.746753" lon="100.227377">
<time>2014-08-12T16:21:17Z</time></trkpt>
<trkpt lat="25.746643" lon="100.227427">
<time>2014-08-12T16:21:18Z</time></trkpt>
<trkpt lat="25.746433" lon="100.227527">
<time>2014-08-12T16:21:19Z</time></trkpt>
<trkpt lat="25.746313" lon="100.227577">
<time>2014-08-12T16:21:20Z</time></trkpt>
<trkpt lat="25.746223" lon="100.227617">
<time>2014-08-12T16:21:21Z</time></trkpt>
<trkpt lat="25.746123" lon="100.227667">
<time>2014-08-12T16:21:22Z</time></trkpt>
<trkpt lat="25.746013" lon="100.227727">
<time>2014-08-12T16:21:23Z</time></trkpt>
<trkpt lat="25.745893" lon="100.227777">
<time>2014-08-12T16:21:24Z</time></trkpt>
<trkpt lat="25.745783" lon="100.227837">
<time>2014-08-12T16:21:25Z</time></trkpt>
<trkpt lat="25.745693" lon="100.227887">
<time>2014-08-12T16:21:26Z</time></trkpt>
<trkpt lat="25.745623" lon="100.227917">
<time>2014-08-12T16:21:27Z</time></trkpt>
<trkpt lat="25.745523" lon="100.227987">
<time>2014-08-12T16:21:28Z</time></trkpt>
<trkpt lat="25.745413" lon="100.228067">
<time>2014-08-12T16:21:29Z</time></trkpt>
<trkpt lat="25.745303" lon="100.228147">
<time>2014-08-12T16:21:30Z</time></trkpt>
<trkpt lat="25.745213" lon="100.228237">
<time>2014-08-12T16:21:31Z</time></trkpt>
<trkpt lat="25.745103" lon="100.228347">
<time>2014-08-12T16:21:32Z</time></trkpt>
<trkpt lat="25.745073" lon="100.228367">
<time>2014-08-12T16:21:33Z</time></trkpt>
<trkpt lat="25.745063" lon="100.228387">
<time>2014-08-12T16:21:34Z</time></trkpt>
<trkpt lat="25.745043" lon="100.228407">
<time>2014-08-12T16:21:35Z</time></trkpt>
<trkpt lat="25.745023" lon="100.228427">
<time>2014-08-12T16:21:36Z</time></trkpt>
<trkpt lat="25.744983" lon="100.228478">
<time>2014-08-12T16:21:37Z</time></trkpt>
<trkpt lat="25.744933" lon="100.228548">
<time>2014-08-12T16:21:38Z</time></trkpt>
<trkpt lat="25.744883" lon="100.228628">
<time>2014-08-12T16:21:39Z</time></trkpt>
<trkpt lat="25.744833" lon="100.228718">
<time>2014-08-12T16:21:40Z</time></trkpt>
<trkpt lat="25.744803" lon="100.228778">
<time>2014-08-12T16:21:41Z</time></trkpt>
<trkpt lat="25.744763" lon="100.228828">
<time>2014-08-12T16:21:42Z</time></trkpt>
<trkpt lat="25.744733" lon="100.228878">
<time>2014-08-12T16:21:43Z</time></trkpt>
<trkpt lat="25.744703" lon="100.228928">
<time>2014-08-12T16:21:44Z</time></trkpt>
<trkpt lat="25.744653" lon="100.228978">
<time>2014-08-12T16:21:45Z</time></trkpt>
<trkpt lat="25.744603" lon="100.229028">
<time>2014-08-12T16:21:46Z</time></trkpt>
<trkpt lat="25.744523" lon="100.229098">
<time>2014-08-12T16:21:47Z</time></trkpt>
<trkpt lat="25.744443" lon="100.229188">
<time>2014-08-12T16:21:48Z</time></trkpt>
<trkpt lat="25.744373" lon="100.229268">
<time>2014-08-12T16:21:49Z</time></trkpt>
<trkpt lat="25.744283" lon="100.229358">
<time>2014-08-12T16:21:50Z</time></trkpt>
<trkpt lat="25.744183" lon="100.229488">
<time>2014-08-12T16:21:51Z</time></trkpt>
<trkpt lat="25.744043" lon="100.229658">
<time>2014-08-12T16:21:52Z</time></trkpt>
<trkpt lat="25.743943" lon="100.229789">
<time>2014-08-12T16:21:53Z</time></trkpt>
<trkpt lat="25.743893" lon="100.229849">
<time>2014-08-12T16:21:54Z</time></trkpt>
<trkpt lat="25.743873" lon="100.229879">
<time>2014-08-12T16:21:55Z</time></trkpt>
<trkpt lat="25.743833" lon="100.229919">
<time>2014-08-12T16:21:56Z</time></trkpt>
<trkpt lat="25.743803" lon="100.229959">
<time>2014-08-12T16:21:57Z</time></trkpt>
<trkpt lat="25.743753" lon="100.229999">
<time>2014-08-12T16:21:58Z</time></trkpt>
<trkpt lat="25.743703" lon="100.230039">
<time>2014-08-12T16:21:59Z</time></trkpt>
<trkpt lat="25.743603" lon="100.230079">
<time>2014-08-12T16:22:00Z</time></trkpt>
<trkpt lat="25.743503" lon="100.230129">
<time>2014-08-12T16:22:01Z</time></trkpt>
<trkpt lat="25.743423" lon="100.230169">
<time>2014-08-12T16:22:02Z</time></trkpt>
<trkpt lat="25.743283" lon="100.230229">
<time>2014-08-12T16:22:03Z</time></trkpt>
<trkpt lat="25.743213" lon="100.230269">
<time>2014-08-12T16:22:04Z</time></trkpt>
<trkpt lat="25.743063" lon="100.230339">
<time>2014-08-12T16:22:05Z</time></trkpt>
<trkpt lat="25.742903" lon="100.230409">
<time>2014-08-12T16:22:06Z</time></trkpt>
<trkpt lat="25.742693" lon="100.230519">
<time>2014-08-12T16:22:07Z</time></trkpt>
<trkpt lat="25.742523" lon="100.230599">
<time>2014-08-12T16:22:08Z</time></trkpt>
<trkpt lat="25.742373" lon="100.230679">
<time>2014-08-12T16:22:09Z</time></trkpt>
<trkpt lat="25.742223" lon="100.230759">
<time>2014-08-12T16:22:10Z</time></trkpt>
<trkpt lat="25.742093" lon="100.230829">
<time>2014-08-12T16:22:11Z</time></trkpt>
<trkpt lat="25.742023" lon="100.230859">
<time>2014-08-12T16:22:12Z</time></trkpt>
<trkpt lat="25.741923" lon="100.230899">
<time>2014-08-12T16:22:13Z</time></trkpt>
<trkpt lat="25.741813" lon="100.230959">
<time>2014-08-12T16:22:14Z</time></trkpt>
<trkpt lat="25.741713" lon="100.231">
<time>2014-08-12T16:22:15Z</time></trkpt>
<trkpt lat="25.741613" lon="100.23105">
<time>2014-08-12T16:22:16Z</time></trkpt>
<trkpt lat="25.741503" lon="100.23111">
<time>2014-08-12T16:22:17Z</time></trkpt>
<trkpt lat="25.741423" lon="100.23115">
<time>2014-08-12T16:22:18Z</time></trkpt>
<trkpt lat="25.741333" lon="100.23119">
<time>2014-08-12T16:22:19Z</time></trkpt>
<trkpt lat="25.741232" lon="100.23124">
<time>2014-08-12T16:22:20Z</time></trkpt>
<trkpt lat="25.741162" lon="100.23127">
<time>2014-08-12T16:22:21Z</time></trkpt>
<trkpt lat="25.741062" lon="100.23131">
<time>2014-08-12T16:22:22Z</time></trkpt>
<trkpt lat="25.740892" lon="100.23138">
<time>2014-08-12T16:22:23Z</time></trkpt>
<trkpt lat="25.740772" lon="100.23143">
<time>2014-08-12T16:22:24Z</time></trkpt>
<trkpt lat="25.740722" lon="100.23145">
<time>2014-08-12T16:22:25Z</time></trkpt>
<trkpt lat="25.740682" lon="100.23147">
<time>2014-08-12T16:22:26Z</time></trkpt>
<trkpt lat="25.740582" lon="100.23152">
<time>2014-08-12T16:22:27Z</time></trkpt>
<trkpt lat="25.740482" lon="100.23154">
<time>2014-08-12T16:22:28Z</time></trkpt>
<trkpt lat="25.740412" lon="100.23155">
<time>2014-08-12T16:22:29Z</time></trkpt>
<trkpt lat="25.740332" lon="100.23156">
<time>2014-08-12T16:22:30Z</time></trkpt>
<trkpt lat="25.740212" lon="100.23154">
<time>2014-08-12T16:22:31Z</time></trkpt>
<trkpt lat="25.740132" lon="100.23152">
<time>2014-08-12T16:22:32Z</time></trkpt>
<trkpt lat="25.740022" lon="100.23149">
<time>2014-08-12T16:22:33Z</time></trkpt>
<trkpt lat="25.739952" lon="100.23146">
<time>2014-08-12T16:22:34Z</time></trkpt>
<trkpt lat="25.739832" lon="100.23143">
<time>2014-08-12T16:22:35Z</time></trkpt>
<trkpt lat="25.739682" lon="100.2314">
<time>2014-08-12T16:22:36Z</time></trkpt>
<trkpt lat="25.739512" lon="100.23136">
<time>2014-08-12T16:22:37Z</time></trkpt>
<trkpt lat="25.739341" lon="100.23132">
<time>2014-08-12T16:22:38Z</time></trkpt>
<trkpt lat="25.739151" lon="100.23127">
<time>2014-08-12T16:22:39Z</time></trkpt>
<trkpt lat="25.738971" lon="100.23124">
<time>2014-08-12T16:22:40Z</time></trkpt>
<trkpt lat="25.738561" lon="100.23116">
<time>2014-08-12T16:22:41Z</time></trkpt>
<trkpt lat="25.738191" lon="100.23108">
<time>2014-08-12T16:22:42Z</time></trkpt>
<trkpt lat="25.73791" lon="100.23102">
<time>2014-08-12T16:22:43Z</time></trkpt>
<trkpt lat="25.73765" lon="100.23095">
<time>2014-08-12T16:22:44Z</time></trkpt>
<trkpt lat="25.73738" lon="100.2309">
<time>2014-08-12T16:22:45Z</time></trkpt>
<trkpt lat="25.7373" lon="100.23088">
<time>2014-08-12T16:22:46Z</time></trkpt>
<trkpt lat="25.73715" lon="100.23086">
<time>2014-08-12T16:22:47Z</time></trkpt>
<trkpt lat="25.73701" lon="100.23087">
<time>2014-08-12T16:22:48Z</time></trkpt>
<trkpt lat="25.73678" lon="100.2309">
<time>2014-08-12T16:22:49Z</time></trkpt>
<trkpt lat="25.73656" lon="100.23097">
<time>2014-08-12T16:22:50Z</time></trkpt>
<trkpt lat="25.73636" lon="100.23104">
<time>2014-08-12T16:22:51Z</time></trkpt>
<trkpt lat="25.736069" lon="100.23116">
<time>2014-08-12T16:22:52Z</time></trkpt>
<trkpt lat="25.735809" lon="100.23126">
<time>2014-08-12T16:22:53Z</time></trkpt>
<trkpt lat="25.735589" lon="100.23135">
<time>2014-08-12T16:22:54Z</time></trkpt>
<trkpt lat="25.735189" lon="100.23151">
<time>2014-08-12T16:22:55Z</time></trkpt>
<trkpt lat="25.734889" lon="100.23164">
<time>2014-08-12T16:22:56Z</time></trkpt>
<trkpt lat="25.734599" lon="100.23183">
<time>2014-08-12T16:22:57Z</time></trkpt>
<trkpt lat="25.734239" lon="100.2321">
<time>2014-08-12T16:22:58Z</time></trkpt>
<trkpt lat="25.734019" lon="100.232271">
<time>2014-08-12T16:22:59Z</time></trkpt>
<trkpt lat="25.733799" lon="100.232421">
<time>2014-08-12T16:23:00Z</time></trkpt>
<trkpt lat="25.733699" lon="100.232461">
<time>2014-08-12T16:23:01Z</time></trkpt>
<trkpt lat="25.733539" lon="100.232501">
<time>2014-08-12T16:23:02Z</time></trkpt>
<trkpt lat="25.733389" lon="100.232511">
<time>2014-08-12T16:23:03Z</time></trkpt>
<trkpt lat="25.733279" lon="100.232501">
<time>2014-08-12T16:23:04Z</time></trkpt>
<trkpt lat="25.733219" lon="100.232491">
<time>2014-08-12T16:23:05Z</time></trkpt>
<trkpt lat="25.733159" lon="100.232471">
<time>2014-08-12T16:23:06Z</time></trkpt>
<trkpt lat="25.732928" lon="100.232371">
<time>2014-08-12T16:23:07Z</time></trkpt>
<trkpt lat="25.732688" lon="100.232201">
<time>2014-08-12T16:23:08Z</time></trkpt>
<trkpt lat="25.732508" lon="100.23206">
<time>2014-08-12T16:23:09Z</time></trkpt>
<trkpt lat="25.732388" lon="100.23202">
<time>2014-08-12T16:23:10Z</time></trkpt>
<trkpt lat="25.732298" lon="100.232">
<time>2014-08-12T16:23:11Z</time></trkpt>
<trkpt lat="25.732188" lon="100.232">
<time>2014-08-12T16:23:12Z</time></trkpt>
<trkpt lat="25.732058" lon="100.23203">
<time>2014-08-12T16:23:13Z</time></trkpt>
<trkpt lat="25.731918" lon="100.232081">
<time>2014-08-12T16:23:14Z</time></trkpt>
<trkpt lat="25.731578" lon="100.232241">
<time>2014-08-12T16:23:15Z</time></trkpt>
<trkpt lat="25.731317" lon="100.232361">
<time>2014-08-12T16:23:16Z</time></trkpt>
<trkpt lat="25.731177" lon="100.232391">
<time>2014-08-12T16:23:17Z</time></trkpt>
<trkpt lat="25.731067" lon="100.232411">
<time>2014-08-12T16:23:18Z</time></trkpt>
<trkpt lat="25.730937" lon="100.232401">
<time>2014-08-12T16:23:19Z</time></trkpt>
<trkpt lat="25.730777" lon="100.232371">
<time>2014-08-12T16:23:20Z</time></trkpt>
<trkpt lat="25.730627" lon="100.232301">
<time>2014-08-12T16:23:21Z</time></trkpt>
<trkpt lat="25.730447" lon="100.232161">
<time>2014-08-12T16:23:22Z</time></trkpt>
<trkpt lat="25.730277" lon="100.232081">
<time>2014-08-12T16:23:23Z</time></trkpt>
<trkpt lat="25.730097" lon="100.232071">
<time>2014-08-12T16:23:24Z</time></trkpt>
<trkpt lat="25.729866" lon="100.232091">
<time>2014-08-12T16:23:25Z</time></trkpt>
<trkpt lat="25.729516" lon="100.232161">
<time>2014-08-12T16:23:26Z</time></trkpt>
<trkpt lat="25.729326" lon="100.232181">
<time>2014-08-12T16:23:27Z</time></trkpt>
<trkpt lat="25.729096" lon="100.232191">
<time>2014-08-12T16:23:28Z</time></trkpt>
<trkpt lat="25.728786" lon="100.232151">
<time>2014-08-12T16:23:29Z</time></trkpt>
<trkpt lat="25.728546" lon="100.232111">
<time>2014-08-12T16:23:30Z</time></trkpt>
<trkpt lat="25.728346" lon="100.232071">
<time>2014-08-12T16:23:31Z</time></trkpt>
<trkpt lat="25.728035" lon="100.232031">
<time>2014-08-12T16:23:32Z</time></trkpt>
<trkpt lat="25.727775" lon="100.232001">
<time>2014-08-12T16:23:33Z</time></trkpt>
<trkpt lat="25.727555" lon="100.231981">
<time>2014-08-12T16:23:34Z</time></trkpt>
<trkpt lat="25.727385" lon="100.231991">
<time>2014-08-12T16:23:35Z</time></trkpt>
<trkpt lat="25.727235" lon="100.232051">
<time>2014-08-12T16:23:36Z</time></trkpt>
<trkpt lat="25.727095" lon="100.232121">
<time>2014-08-12T16:23:37Z</time></trkpt>
<trkpt lat="25.726975" lon="100.232241">
<time>2014-08-12T16:23:38Z</time></trkpt>
<trkpt lat="25.726855" lon="100.232401">
<time>2014-08-12T16:23:39Z</time></trkpt>
<trkpt lat="25.726725" lon="100.232591">
<time>2014-08-12T16:23:40Z</time></trkpt>
<trkpt lat="25.726595" lon="100.232751">
<time>2014-08-12T16:23:41Z</time></trkpt>
<trkpt lat="25.726455" lon="100.232881">
<time>2014-08-12T16:23:42Z</time></trkpt>
<trkpt lat="25.726275" lon="100.232981">
<time>2014-08-12T16:23:43Z</time></trkpt>
<trkpt lat="25.726025" lon="100.233071">
<time>2014-08-12T16:23:44Z</time></trkpt>
<trkpt lat="25.725645" lon="100.233251">
<time>2014-08-12T16:23:45Z</time></trkpt>
<trkpt lat="25.725205" lon="100.233452">
<time>2014-08-12T16:23:46Z</time></trkpt>
<trkpt lat="25.724974" lon="100.233582">
<time>2014-08-12T16:23:47Z</time></trkpt>
<trkpt lat="25.724604" lon="100.233732">
<time>2014-08-12T16:23:48Z</time></trkpt>
<trkpt lat="25.724364" lon="100.233772">
<time>2014-08-12T16:23:49Z</time></trkpt>
<trkpt lat="25.724164" lon="100.233802">
<time>2014-08-12T16:23:50Z</time></trkpt>
<trkpt lat="25.723944" lon="100.233792">
<time>2014-08-12T16:23:51Z</time></trkpt>
<trkpt lat="25.723594" lon="100.233772">
<time>2014-08-12T16:23:52Z</time></trkpt>
<trkpt lat="25.723374" lon="100.233752">
<time>2014-08-12T16:23:53Z</time></trkpt>
<trkpt lat="25.723043" lon="100.233732">
<time>2014-08-12T16:23:54Z</time></trkpt>
<trkpt lat="25.722743" lon="100.233732">
<time>2014-08-12T16:23:55Z</time></trkpt>
<trkpt lat="25.722453" lon="100.233742">
<time>2014-08-12T16:23:56Z</time></trkpt>
<trkpt lat="25.721963" lon="100.233742">
<time>2014-08-12T16:23:57Z</time></trkpt>
<trkpt lat="25.721813" lon="100.233742">
<time>2014-08-12T16:23:58Z</time></trkpt>
<trkpt lat="25.721292" lon="100.233732">
<time>2014-08-12T16:23:59Z</time></trkpt>
<trkpt lat="25.720312" lon="100.233722">
<time>2014-08-12T16:24:00Z</time></trkpt>
<trkpt lat="25.720072" lon="100.233712">
<time>2014-08-12T16:24:01Z</time></trkpt>
<trkpt lat="25.719742" lon="100.233742">
<time>2014-08-12T16:24:02Z</time></trkpt>
<trkpt lat="25.719261" lon="100.233792">
<time>2014-08-12T16:24:03Z</time></trkpt>
<trkpt lat="25.718631" lon="100.233962">
<time>2014-08-12T16:24:04Z</time></trkpt>
<trkpt lat="25.717661" lon="100.234192">
<time>2014-08-12T16:24:05Z</time></trkpt>
<trkpt lat="25.71721" lon="100.234312">
<time>2014-08-12T16:24:06Z</time></trkpt>
<trkpt lat="25.7169" lon="100.234452">
<time>2014-08-12T16:24:07Z</time></trkpt>
<trkpt lat="25.71629" lon="100.234753">
<time>2014-08-12T16:24:08Z</time></trkpt>
<trkpt lat="25.71585" lon="100.234953">
<time>2014-08-12T16:24:09Z</time></trkpt>
<trkpt lat="25.71542" lon="100.235183">
<time>2014-08-12T16:24:10Z</time></trkpt>
<trkpt lat="25.71489" lon="100.235463">
<time>2014-08-12T16:24:11Z</time></trkpt>
<trkpt lat="25.71467" lon="100.235573">
<time>2014-08-12T16:24:12Z</time></trkpt>
<trkpt lat="25.71449" lon="100.235603">
<time>2014-08-12T16:24:13Z</time></trkpt>
<trkpt lat="25.71434" lon="100.235573">
<time>2014-08-12T16:24:14Z</time></trkpt>
<trkpt lat="25.714169" lon="100.235493">
<time>2014-08-12T16:24:15Z</time></trkpt>
<trkpt lat="25.714019" lon="100.235363">
<time>2014-08-12T16:24:16Z</time></trkpt>
<trkpt lat="25.713759" lon="100.235013">
<time>2014-08-12T16:24:17Z</time></trkpt>
<trkpt lat="25.713559" lon="100.234753">
<time>2014-08-12T16:24:18Z</time></trkpt>
<trkpt lat="25.713348" lon="100.234492">
<time>2014-08-12T16:24:19Z</time></trkpt>
<trkpt lat="25.713218" lon="100.234392">
<time>2014-08-12T16:24:20Z</time></trkpt>
<trkpt lat="25.712878" lon="100.234272">
<time>2014-08-12T16:24:21Z</time></trkpt>
<trkpt lat="25.712268" lon="100.234162">
<time>2014-08-12T16:24:22Z</time></trkpt>
<trkpt lat="25.711777" lon="100.234062">
<time>2014-08-12T16:24:23Z</time></trkpt>
<trkpt lat="25.711557" lon="100.234062">
<time>2014-08-12T16:24:24Z</time></trkpt>
<trkpt lat="25.711387" lon="100.234122">
<time>2014-08-12T16:24:25Z</time></trkpt>
<trkpt lat="25.711097" lon="100.234262">
<time>2014-08-12T16:24:26Z</time></trkpt>
<trkpt lat="25.709317" lon="100.235223">
<time>2014-08-12T16:24:27Z</time></trkpt>
<trkpt lat="25.708996" lon="100.235393">
<time>2014-08-12T16:24:28Z</time></trkpt>
<trkpt lat="25.708466" lon="100.235683">
<time>2014-08-12T16:24:29Z</time></trkpt>
<trkpt lat="25.708116" lon="100.235903">
<time>2014-08-12T16:24:30Z</time></trkpt>
<trkpt lat="25.707946" lon="100.236043">
<time>2014-08-12T16:24:31Z</time></trkpt>
<trkpt lat="25.707676" lon="100.236264">
<time>2014-08-12T16:24:32Z</time></trkpt>
<trkpt lat="25.707536" lon="100.236384">
<time>2014-08-12T16:24:33Z</time></trkpt>
<trkpt lat="25.707486" lon="100.236444">
<time>2014-08-12T16:24:34Z</time></trkpt>
<trkpt lat="25.707466" lon="100.236474">
<time>2014-08-12T16:24:35Z</time></trkpt>
<trkpt lat="25.707446" lon="100.236514">
<time>2014-08-12T16:24:36Z</time></trkpt>
<trkpt lat="25.707426" lon="100.236574">
<time>2014-08-12T16:24:37Z</time></trkpt>
<trkpt lat="25.707426" lon="100.236624">
<time>2014-08-12T16:24:38Z</time></trkpt>
<trkpt lat="25.707426" lon="100.236714">
<time>2014-08-12T16:24:39Z</time></trkpt>
<trkpt lat="25.707446" lon="100.236784">
<time>2014-08-12T16:24:40Z</time></trkpt>
<trkpt lat="25.707476" lon="100.236844">
<time>2014-08-12T16:24:41Z</time></trkpt>
<trkpt lat="25.707506" lon="100.236894">
<time>2014-08-12T16:24:42Z</time></trkpt>
<trkpt lat="25.707566" lon="100.236954">
<time>2014-08-12T16:24:43Z</time></trkpt>
<trkpt lat="25.707646" lon="100.237024">
<time>2014-08-12T16:24:44Z</time></trkpt>
<trkpt lat="25.707747" lon="100.237064">
<time>2014-08-12T16:24:45Z</time></trkpt>
<trkpt lat="25.707937" lon="100.237144">
<time>2014-08-12T16:24:46Z</time></trkpt>
<trkpt lat="25.708117" lon="100.237214">
<time>2014-08-12T16:24:47Z</time></trkpt>
<trkpt lat="25.708247" lon="100.237264">
<time>2014-08-12T16:24:48Z</time></trkpt>
<trkpt lat="25.708707" lon="100.237534">
<time>2014-08-12T16:24:49Z</time></trkpt>
<trkpt lat="25.709278" lon="100.237894">
<time>2014-08-12T16:24:50Z</time></trkpt>
<trkpt lat="25.709718" lon="100.238174">
<time>2014-08-12T16:24:51Z</time></trkpt>
<trkpt lat="25.710459" lon="100.238625">
<time>2014-08-12T16:24:52Z</time></trkpt>
<trkpt lat="25.710509" lon="100.238655">
<time>2014-08-12T16:24:53Z</time></trkpt>
<trkpt lat="25.710569" lon="100.238675">
<time>2014-08-12T16:24:54Z</time></trkpt>
<trkpt lat="25.710629" lon="100.238695">
<time>2014-08-12T16:24:55Z</time></trkpt>
<trkpt lat="25.711149" lon="100.238825">
<time>2014-08-12T16:24:56Z</time></trkpt>
<trkpt lat="25.71233" lon="100.239075">
<time>2014-08-12T16:24:57Z</time></trkpt>
<trkpt lat="25.71302" lon="100.239255">
<time>2014-08-12T16:24:58Z</time></trkpt>
<trkpt lat="25.713261" lon="100.239315">
<time>2014-08-12T16:24:59Z</time></trkpt>
<trkpt lat="25.713491" lon="100.239355">
<time>2014-08-12T16:25:00Z</time></trkpt>
<trkpt lat="25.713961" lon="100.239435">
<time>2014-08-12T16:25:01Z</time></trkpt>
<trkpt lat="25.714081" lon="100.239465">
<time>2014-08-12T16:25:02Z</time></trkpt>
<trkpt lat="25.714221" lon="100.239515">
<time>2014-08-12T16:25:03Z</time></trkpt>
<trkpt lat="25.714371" lon="100.239625">
<time>2014-08-12T16:25:04Z</time></trkpt>
<trkpt lat="25.714441" lon="100.239685">
<time>2014-08-12T16:25:05Z</time></trkpt>
<trkpt lat="25.714481" lon="100.239735">
<time>2014-08-12T16:25:06Z</time></trkpt>
<trkpt lat="25.714561" lon="100.239865">
<time>2014-08-12T16:25:07Z</time></trkpt>
<trkpt lat="25.714662" lon="100.240035">
<time>2014-08-12T16:25:08Z</time></trkpt>
<trkpt lat="25.714932" lon="100.240515">
<time>2014-08-12T16:25:09Z</time></trkpt>
<trkpt lat="25.715432" lon="100.241205">
<time>2014-08-12T16:25:10Z</time></trkpt>
<trkpt lat="25.715973" lon="100.241895">
<time>2014-08-12T16:25:11Z</time></trkpt>
<trkpt lat="25.716223" lon="100.242226">
<time>2014-08-12T16:25:12Z</time></trkpt>
<trkpt lat="25.716403" lon="100.242496">
<time>2014-08-12T16:25:13Z</time></trkpt>
<trkpt lat="25.716563" lon="100.242796">
<time>2014-08-12T16:25:14Z</time></trkpt>
<trkpt lat="25.716613" lon="100.242916">
<time>2014-08-12T16:25:15Z</time></trkpt>
<trkpt lat="25.716653" lon="100.243036">
<time>2014-08-12T16:25:16Z</time></trkpt>
<trkpt lat="25.716834" lon="100.243926">
<time>2014-08-12T16:25:17Z</time></trkpt>
<trkpt lat="25.716954" lon="100.244516">
<time>2014-08-12T16:25:18Z</time></trkpt>
<trkpt lat="25.717094" lon="100.245236">
<time>2014-08-12T16:25:19Z</time></trkpt>
<trkpt lat="25.717124" lon="100.245376">
<time>2014-08-12T16:25:20Z</time></trkpt>
<trkpt lat="25.717164" lon="100.245486">
<time>2014-08-12T16:25:21Z</time></trkpt>
<trkpt lat="25.717194" lon="100.245536">
<time>2014-08-12T16:25:22Z</time></trkpt>
<trkpt lat="25.717214" lon="100.245576">
<time>2014-08-12T16:25:23Z</time></trkpt>
<trkpt lat="25.717294" lon="100.245656">
<time>2014-08-12T16:25:24Z</time></trkpt>
<trkpt lat="25.717454" lon="100.245816">
<time>2014-08-12T16:25:25Z</time></trkpt>
<trkpt lat="25.717675" lon="100.246036">
<time>2014-08-12T16:25:26Z</time></trkpt>
<trkpt lat="25.717865" lon="100.246216">
<time>2014-08-12T16:25:27Z</time></trkpt>
<trkpt lat="25.717975" lon="100.246316">
<time>2014-08-12T16:25:28Z</time></trkpt>
<trkpt lat="25.718115" lon="100.246426">
<time>2014-08-12T16:25:29Z</time></trkpt>
<trkpt lat="25.718315" lon="100.246586">
<time>2014-08-12T16:25:30Z</time></trkpt>
<trkpt lat="25.718405" lon="100.246656">
<time>2014-08-12T16:25:31Z</time></trkpt>
<trkpt lat="25.718435" lon="100.246686">
<time>2014-08-12T16:25:32Z</time></trkpt>
<trkpt lat="25.718465" lon="100.246726">
<time>2014-08-12T16:25:33Z</time></trkpt>
<trkpt lat="25.718485" lon="100.246756">
<time>2014-08-12T16:25:34Z</time></trkpt>
<trkpt lat="25.718505" lon="100.246786">
<time>2014-08-12T16:25:35Z</time></trkpt>
<trkpt lat="25.718515" lon="100.246816">
<time>2014-08-12T16:25:36Z</time></trkpt>
<trkpt lat="25.718525" lon="100.246836">
<time>2014-08-12T16:25:37Z</time></trkpt>
<trkpt lat="25.718525" lon="100.246866">
<time>2014-08-12T16:25:38Z</time></trkpt>
<trkpt lat="25.718535" lon="100.246896">
<time>2014-08-12T16:25:39Z</time></trkpt>
<trkpt lat="25.718535" lon="100.246916">
<time>2014-08-12T16:25:40Z</time></trkpt>
<trkpt lat="25.718525" lon="100.246946">
<time>2014-08-12T16:25:41Z</time></trkpt>
<trkpt lat="25.718515" lon="100.246996">
<time>2014-08-12T16:25:42Z</time></trkpt>
<trkpt lat="25.718495" lon="100.247206">
<time>2014-08-12T16:25:43Z</time></trkpt>
<trkpt lat="25.718415" lon="100.247646">
<time>2014-08-12T16:25:44Z</time></trkpt>
<trkpt lat="25.718365" lon="100.248136">
<time>2014-08-12T16:25:45Z</time></trkpt>
<trkpt lat="25.718345" lon="100.248426">
<time>2014-08-12T16:25:46Z</time></trkpt>
<trkpt lat="25.718325" lon="100.248576">
<time>2014-08-12T16:25:47Z</time></trkpt>
<trkpt lat="25.718285" lon="100.248836">
<time>2014-08-12T16:25:48Z</time></trkpt>
<trkpt lat="25.718285" lon="100.248906">
<time>2014-08-12T16:25:49Z</time></trkpt>
<trkpt lat="25.718275" lon="100.248966">
<time>2014-08-12T16:25:50Z</time></trkpt>
<trkpt lat="25.718265" lon="100.249196">
<time>2014-08-12T16:25:51Z</time></trkpt>
<trkpt lat="25.718255" lon="100.249296">
<time>2014-08-12T16:25:52Z</time></trkpt>
<trkpt lat="25.718255" lon="100.249326">
<time>2014-08-12T16:25:53Z</time></trkpt>
<trkpt lat="25.718245" lon="100.249356">
<time>2014-08-12T16:25:54Z</time></trkpt>
<trkpt lat="25.718245" lon="100.249386">
<time>2014-08-12T16:25:55Z</time></trkpt>
<trkpt lat="25.718235" lon="100.249426">
<time>2014-08-12T16:25:56Z</time></trkpt>
<trkpt lat="25.718225" lon="100.249446">
<time>2014-08-12T16:25:57Z</time></trkpt>
<trkpt lat="25.718215" lon="100.249506">
<time>2014-08-12T16:25:58Z</time></trkpt>
<trkpt lat="25.718205" lon="100.249546">
<time>2014-08-12T16:25:59Z</time></trkpt>
<trkpt lat="25.718165" lon="100.249786">
<time>2014-08-12T16:26:00Z</time></trkpt>
<trkpt lat="25.718155" lon="100.249836">
<time>2014-08-12T16:26:01Z</time></trkpt>
<trkpt lat="25.718145" lon="100.249906">
<time>2014-08-12T16:26:02Z</time></trkpt>
<trkpt lat="25.718125" lon="100.250016">
<time>2014-08-12T16:26:03Z</time></trkpt>
<trkpt lat="25.718055" lon="100.250246">
<time>2014-08-12T16:26:04Z</time></trkpt>
<trkpt lat="25.717955" lon="100.250606">
<time>2014-08-12T16:26:05Z</time></trkpt>
<trkpt lat="25.717875" lon="100.250856">
<time>2014-08-12T16:26:06Z</time></trkpt>
<trkpt lat="25.717825" lon="100.251036">
<time>2014-08-12T16:26:07Z</time></trkpt>
<trkpt lat="25.717785" lon="100.251196">
<time>2014-08-12T16:26:08Z</time></trkpt>
<trkpt lat="25.717544" lon="100.252026">
<time>2014-08-12T16:26:09Z</time></trkpt>
<trkpt lat="25.717514" lon="100.252116">
<time>2014-08-12T16:26:10Z</time></trkpt>
<trkpt lat="25.717484" lon="100.252216">
<time>2014-08-12T16:26:11Z</time></trkpt>
<trkpt lat="25.717454" lon="100.252316">
<time>2014-08-12T16:26:12Z</time></trkpt>
<trkpt lat="25.717384" lon="100.252566">
<time>2014-08-12T16:26:13Z</time></trkpt>
<trkpt lat="25.717344" lon="100.252746">
<time>2014-08-12T16:26:14Z</time></trkpt>
<trkpt lat="25.717314" lon="100.252836">
<time>2014-08-12T16:26:15Z</time></trkpt>
<trkpt lat="25.717274" lon="100.252926">
<time>2014-08-12T16:26:16Z</time></trkpt>
<trkpt lat="25.717244" lon="100.253006">
<time>2014-08-12T16:26:17Z</time></trkpt>
<trkpt lat="25.717184" lon="100.253096">
<time>2014-08-12T16:26:18Z</time></trkpt>
<trkpt lat="25.717094" lon="100.253226">
<time>2014-08-12T16:26:19Z</time></trkpt>
<trkpt lat="25.717054" lon="100.253286">
<time>2014-08-12T16:26:20Z</time></trkpt>
<trkpt lat="25.716984" lon="100.253356">
<time>2014-08-12T16:26:21Z</time></trkpt>
<trkpt lat="25.716924" lon="100.253396">
<time>2014-08-12T16:26:22Z</time></trkpt>
<trkpt lat="25.716844" lon="100.253456">
<time>2014-08-12T16:26:23Z</time></trkpt>
<trkpt lat="25.716664" lon="100.253576">
<time>2014-08-12T16:26:24Z</time></trkpt>
<trkpt lat="25.716503" lon="100.253676">
<time>2014-08-12T16:26:25Z</time></trkpt>
<trkpt lat="25.716323" lon="100.253796">
<time>2014-08-12T16:26:26Z</time></trkpt>
<trkpt lat="25.716063" lon="100.253956">
<time>2014-08-12T16:26:27Z</time></trkpt>
<trkpt lat="25.715803" lon="100.254106">
<time>2014-08-12T16:26:28Z</time></trkpt>
<trkpt lat="25.715583" lon="100.254265">
<time>2014-08-12T16:26:29Z</time></trkpt>
<trkpt lat="25.715443" lon="100.254385">
<time>2014-08-12T16:26:30Z</time></trkpt>
<trkpt lat="25.715383" lon="100.254465">
<time>2014-08-12T16:26:31Z</time></trkpt>
<trkpt lat="25.715173" lon="100.254825">
<time>2014-08-12T16:26:32Z</time></trkpt>
<trkpt lat="25.714922" lon="100.255275">
<time>2014-08-12T16:26:33Z</time></trkpt>
<trkpt lat="25.714682" lon="100.255715">
<time>2014-08-12T16:26:34Z</time></trkpt>
<trkpt lat="25.714632" lon="100.255835">
<time>2014-08-12T16:26:35Z</time></trkpt>
<trkpt lat="25.714452" lon="100.256165">
<time>2014-08-12T16:26:36Z</time></trkpt>
<trkpt lat="25.714382" lon="100.256305">
<time>2014-08-12T16:26:37Z</time></trkpt>
<trkpt lat="25.714272" lon="100.256515">
<time>2014-08-12T16:26:38Z</time></trkpt>
<trkpt lat="25.714151" lon="100.256715">
<time>2014-08-12T16:26:39Z</time></trkpt>
<trkpt lat="25.714081" lon="100.256865">
<time>2014-08-12T16:26:40Z</time></trkpt>
<trkpt lat="25.713841" lon="100.257295">
<time>2014-08-12T16:26:41Z</time></trkpt>
<trkpt lat="25.713741" lon="100.257474">
<time>2014-08-12T16:26:42Z</time></trkpt>
<trkpt lat="25.713421" lon="100.258064">
<time>2014-08-12T16:26:43Z</time></trkpt>
<trkpt lat="25.71317" lon="100.258534">
<time>2014-08-12T16:26:44Z</time></trkpt>
<trkpt lat="25.71316" lon="100.258554">
<time>2014-08-12T16:26:45Z</time></trkpt>
<trkpt lat="25.712509" lon="100.259763">
<time>2014-08-12T16:26:46Z</time></trkpt>
<trkpt lat="25.712289" lon="100.260173">
<time>2014-08-12T16:26:47Z</time></trkpt>
<trkpt lat="25.712199" lon="100.260243">
<time>2014-08-12T16:26:48Z</time></trkpt>
<trkpt lat="25.712069" lon="100.260343">
<time>2014-08-12T16:26:49Z</time></trkpt>
<trkpt lat="25.711949" lon="100.260423">
<time>2014-08-12T16:26:50Z</time></trkpt>
<trkpt lat="25.711619" lon="100.260593">
<time>2014-08-12T16:26:51Z</time></trkpt>
<trkpt lat="25.711418" lon="100.260703">
<time>2014-08-12T16:26:52Z</time></trkpt>
<trkpt lat="25.711268" lon="100.260783">
<time>2014-08-12T16:26:53Z</time></trkpt>
<trkpt lat="25.711198" lon="100.260823">
<time>2014-08-12T16:26:54Z</time></trkpt>
<trkpt lat="25.710948" lon="100.260963">
<time>2014-08-12T16:26:55Z</time></trkpt>
<trkpt lat="25.710818" lon="100.261043">
<time>2014-08-12T16:26:56Z</time></trkpt>
<trkpt lat="25.710648" lon="100.261143">
<time>2014-08-12T16:26:57Z</time></trkpt>
<trkpt lat="25.710187" lon="100.261393">
<time>2014-08-12T16:26:58Z</time></trkpt>
<trkpt lat="25.709797" lon="100.261613">
<time>2014-08-12T16:26:59Z</time></trkpt>
<trkpt lat="25.709327" lon="100.261872">
<time>2014-08-12T16:27:00Z</time></trkpt>
<trkpt lat="25.709317" lon="100.261882">
<time>2014-08-12T16:27:01Z</time></trkpt>
<trkpt lat="25.708926" lon="100.262132">
<time>2014-08-12T16:27:02Z</time></trkpt>
<trkpt lat="25.708826" lon="100.262192">
<time>2014-08-12T16:27:03Z</time></trkpt>
<trkpt lat="25.708446" lon="100.262372">
<time>2014-08-12T16:27:04Z</time></trkpt>
<trkpt lat="25.708136" lon="100.262542">
<time>2014-08-12T16:27:05Z</time></trkpt>
<trkpt lat="25.707905" lon="100.262682">
<time>2014-08-12T16:27:06Z</time></trkpt>
<trkpt lat="25.707625" lon="100.262822">
<time>2014-08-12T16:27:07Z</time></trkpt>
<trkpt lat="25.707425" lon="100.262792">
<time>2014-08-12T16:27:08Z</time></trkpt>
<trkpt lat="25.707255" lon="100.262752">
<time>2014-08-12T16:27:09Z</time></trkpt>
<trkpt lat="25.707195" lon="100.262732">
<time>2014-08-12T16:27:10Z</time></trkpt>
<trkpt lat="25.707025" lon="100.262702">
<time>2014-08-12T16:27:11Z</time></trkpt>
<trkpt lat="25.706935" lon="100.262672">
<time>2014-08-12T16:27:12Z</time></trkpt>
<trkpt lat="25.706855" lon="100.262612">
<time>2014-08-12T16:27:13Z</time></trkpt>
<trkpt lat="25.706745" lon="100.262522">
<time>2014-08-12T16:27:14Z</time></trkpt>
<trkpt lat="25.706705" lon="100.262482">
<time>2014-08-12T16:27:15Z</time></trkpt>
<trkpt lat="25.706665" lon="100.262452">
<time>2014-08-12T16:27:16Z</time></trkpt>
<trkpt lat="25.706635" lon="100.262422">
<time>2014-08-12T16:27:17Z</time></trkpt>
<trkpt lat="25.706625" lon="100.262412">
<time>2014-08-12T16:27:18Z</time></trkpt>
<trkpt lat="25.706605" lon="100.262402">
<time>2014-08-12T16:27:19Z</time></trkpt>
<trkpt lat="25.706545" lon="100.262332">
<time>2014-08-12T16:27:20Z</time></trkpt>
<trkpt lat="25.706525" lon="100.262302">
<time>2014-08-12T16:27:21Z</time></trkpt>
<trkpt lat="25.706485" lon="100.262252">
<time>2014-08-12T16:27:22Z</time></trkpt>
<trkpt lat="25.706435" lon="100.262152">
<time>2014-08-12T16:27:23Z</time></trkpt>
<trkpt lat="25.706415" lon="100.262112">
<time>2014-08-12T16:27:24Z</time></trkpt>
<trkpt lat="25.706375" lon="100.262002">
<time>2014-08-12T16:27:25Z</time></trkpt>
<trkpt lat="25.706335" lon="100.261922">
<time>2014-08-12T16:27:26Z</time></trkpt>
<trkpt lat="25.706255" lon="100.261733">
<time>2014-08-12T16:27:27Z</time></trkpt>
<trkpt lat="25.706205" lon="100.261663">
<time>2014-08-12T16:27:28Z</time></trkpt>
<trkpt lat="25.706175" lon="100.261603">
<time>2014-08-12T16:27:29Z</time></trkpt>
<trkpt lat="25.706155" lon="100.261573">
<time>2014-08-12T16:27:30Z</time></trkpt>
<trkpt lat="25.706135" lon="100.261533">
<time>2014-08-12T16:27:31Z</time></trkpt>
<trkpt lat="25.706105" lon="100.261493">
<time>2014-08-12T16:27:32Z</time></trkpt>
<trkpt lat="25.706035" lon="100.261403">
<time>2014-08-12T16:27:33Z</time></trkpt>
<trkpt lat="25.705965" lon="100.261323">
<time>2014-08-12T16:27:34Z</time></trkpt>
<trkpt lat="25.705895" lon="100.261253">
<time>2014-08-12T16:27:35Z</time></trkpt>
<trkpt lat="25.705775" lon="100.261133">
<time>2014-08-12T16:27:36Z</time></trkpt>
<trkpt lat="25.705705" lon="100.261063">
<time>2014-08-12T16:27:37Z</time></trkpt>
<trkpt lat="25.705505" lon="100.260893">
<time>2014-08-12T16:27:38Z</time></trkpt>
<trkpt lat="25.705255" lon="100.260663">
<time>2014-08-12T16:27:39Z</time></trkpt>
<trkpt lat="25.705215" lon="100.260633">
<time>2014-08-12T16:27:40Z</time></trkpt>
<trkpt lat="25.705175" lon="100.260603">
<time>2014-08-12T16:27:41Z</time></trkpt>
<trkpt lat="25.705135" lon="100.260583">
<time>2014-08-12T16:27:42Z</time></trkpt>
<trkpt lat="25.705095" lon="100.260563">
<time>2014-08-12T16:27:43Z</time></trkpt>
<trkpt lat="25.705055" lon="100.260553">
<time>2014-08-12T16:27:44Z</time></trkpt>
<trkpt lat="25.705025" lon="100.260553">
<time>2014-08-12T16:27:45Z</time></trkpt>
<trkpt lat="25.704985" lon="100.260563">
<time>2014-08-12T16:27:46Z</time></trkpt>
<trkpt lat="25.704955" lon="100.260573">
<time>2014-08-12T16:27:47Z</time></trkpt>
<trkpt lat="25.704865" lon="100.260613">
<time>2014-08-12T16:27:48Z</time></trkpt>
<trkpt lat="25.704785" lon="100.260663">
<time>2014-08-12T16:27:49Z</time></trkpt>
<trkpt lat="25.704665" lon="100.260753">
<time>2014-08-12T16:27:50Z</time></trkpt>
<trkpt lat="25.704565" lon="100.260853">
<time>2014-08-12T16:27:51Z</time></trkpt>
<trkpt lat="25.704424" lon="100.261043">
<time>2014-08-12T16:27:52Z</time></trkpt>
<trkpt lat="25.704114" lon="100.261473">
<time>2014-08-12T16:27:53Z</time></trkpt>
<trkpt lat="25.704014" lon="100.261583">
<time>2014-08-12T16:27:54Z</time></trkpt>
<trkpt lat="25.703964" lon="100.261663">
<time>2014-08-12T16:27:55Z</time></trkpt>
<trkpt lat="25.703754" lon="100.261953">
<time>2014-08-12T16:27:56Z</time></trkpt>
<trkpt lat="25.703703" lon="100.262032">
<time>2014-08-12T16:27:57Z</time></trkpt>
<trkpt lat="25.703643" lon="100.262112">
<time>2014-08-12T16:27:58Z</time></trkpt>
<trkpt lat="25.703563" lon="100.262202">
<time>2014-08-12T16:27:59Z</time></trkpt>
<trkpt lat="25.703513" lon="100.262262">
<time>2014-08-12T16:28:00Z</time></trkpt>
<trkpt lat="25.703483" lon="100.262312">
<time>2014-08-12T16:28:01Z</time></trkpt>
<trkpt lat="25.703403" lon="100.262522">
<time>2014-08-12T16:28:02Z</time></trkpt>
<trkpt lat="25.703383" lon="100.262642">
<time>2014-08-12T16:28:03Z</time></trkpt>
<trkpt lat="25.703363" lon="100.262912">
<time>2014-08-12T16:28:04Z</time></trkpt>
<trkpt lat="25.703362" lon="100.263671">
<time>2014-08-12T16:28:05Z</time></trkpt>
<trkpt lat="25.703372" lon="100.264011">
<time>2014-08-12T16:28:06Z</time></trkpt>
<trkpt lat="25.703332" lon="100.264511">
<time>2014-08-12T16:28:07Z</time></trkpt>
<trkpt lat="25.703282" lon="100.264781">
<time>2014-08-12T16:28:08Z</time></trkpt>
<trkpt lat="25.703201" lon="100.26507">
<time>2014-08-12T16:28:09Z</time></trkpt>
<trkpt lat="25.703121" lon="100.26532">
<time>2014-08-12T16:28:10Z</time></trkpt>
<trkpt lat="25.703021" lon="100.26554">
<time>2014-08-12T16:28:11Z</time></trkpt>
<trkpt lat="25.702921" lon="100.26567">
<time>2014-08-12T16:28:12Z</time></trkpt>
<trkpt lat="25.702831" lon="100.26574">
<time>2014-08-12T16:28:13Z</time></trkpt>
<trkpt lat="25.702791" lon="100.26577">
<time>2014-08-12T16:28:14Z</time></trkpt>
<trkpt lat="25.702631" lon="100.26586">
<time>2014-08-12T16:28:15Z</time></trkpt>
<trkpt lat="25.702401" lon="100.26592">
<time>2014-08-12T16:28:16Z</time></trkpt>
<trkpt lat="25.70207" lon="100.266">
<time>2014-08-12T16:28:17Z</time></trkpt>
<trkpt lat="25.70167" lon="100.26609">
<time>2014-08-12T16:28:18Z</time></trkpt>
<trkpt lat="25.70129" lon="100.26618">
<time>2014-08-12T16:28:19Z</time></trkpt>
<trkpt lat="25.700889" lon="100.26627">
<time>2014-08-12T16:28:20Z</time></trkpt>
<trkpt lat="25.700659" lon="100.26633">
<time>2014-08-12T16:28:21Z</time></trkpt>
<trkpt lat="25.700509" lon="100.26638">
<time>2014-08-12T16:28:22Z</time></trkpt>
<trkpt lat="25.700369" lon="100.26645">
<time>2014-08-12T16:28:23Z</time></trkpt>
<trkpt lat="25.700159" lon="100.266569">
<time>2014-08-12T16:28:24Z</time></trkpt>
<trkpt lat="25.699849" lon="100.266779">
<time>2014-08-12T16:28:25Z</time></trkpt>
<trkpt lat="25.699648" lon="100.266939">
<time>2014-08-12T16:28:26Z</time></trkpt>
<trkpt lat="25.699478" lon="100.267099">
<time>2014-08-12T16:28:27Z</time></trkpt>
<trkpt lat="25.699348" lon="100.267299">
<time>2014-08-12T16:28:28Z</time></trkpt>
<trkpt lat="25.699198" lon="100.267639">
<time>2014-08-12T16:28:29Z</time></trkpt>
<trkpt lat="25.699107" lon="100.267888">
<time>2014-08-12T16:28:30Z</time></trkpt>
<trkpt lat="25.698997" lon="100.268218">
<time>2014-08-12T16:28:31Z</time></trkpt>
<trkpt lat="25.698937" lon="100.268438">
<time>2014-08-12T16:28:32Z</time></trkpt>
<trkpt lat="25.698857" lon="100.268708">
<time>2014-08-12T16:28:33Z</time></trkpt>
<trkpt lat="25.698766" lon="100.268968">
<time>2014-08-12T16:28:34Z</time></trkpt>
<trkpt lat="25.698686" lon="100.269187">
<time>2014-08-12T16:28:35Z</time></trkpt>
<trkpt lat="25.698576" lon="100.269487">
<time>2014-08-12T16:28:36Z</time></trkpt>
<trkpt lat="25.698456" lon="100.269807">
<time>2014-08-12T16:28:37Z</time></trkpt>
<trkpt lat="25.698295" lon="100.270256">
<time>2014-08-12T16:28:38Z</time></trkpt>
<trkpt lat="25.698255" lon="100.270366">
<time>2014-08-12T16:28:39Z</time></trkpt>
<trkpt lat="25.698175" lon="100.270566">
<time>2014-08-12T16:28:40Z</time></trkpt>
<trkpt lat="25.698055" lon="100.270776">
<time>2014-08-12T16:28:41Z</time></trkpt>
<trkpt lat="25.697924" lon="100.270946">
<time>2014-08-12T16:28:42Z</time></trkpt>
<trkpt lat="25.697754" lon="100.271176">
<time>2014-08-12T16:28:43Z</time></trkpt>
<trkpt lat="25.697594" lon="100.271435">
<time>2014-08-12T16:28:44Z</time></trkpt>
<trkpt lat="25.697504" lon="100.271545">
<time>2014-08-12T16:28:45Z</time></trkpt>
<trkpt lat="25.697313" lon="100.271775">
<time>2014-08-12T16:28:46Z</time></trkpt>
<trkpt lat="25.697093" lon="100.272035">
<time>2014-08-12T16:28:47Z</time></trkpt>
<trkpt lat="25.696903" lon="100.272264">
<time>2014-08-12T16:28:48Z</time></trkpt>
<trkpt lat="25.696692" lon="100.272514">
<time>2014-08-12T16:28:49Z</time></trkpt>
<trkpt lat="25.696482" lon="100.272684">
<time>2014-08-12T16:28:50Z</time></trkpt>
<trkpt lat="25.696282" lon="100.272774">
<time>2014-08-12T16:28:51Z</time></trkpt>
<trkpt lat="25.696122" lon="100.272824">
<time>2014-08-12T16:28:52Z</time></trkpt>
<trkpt lat="25.695952" lon="100.272834">
<time>2014-08-12T16:28:53Z</time></trkpt>
<trkpt lat="25.695772" lon="100.272794">
<time>2014-08-12T16:28:54Z</time></trkpt>
<trkpt lat="25.695582" lon="100.272774">
<time>2014-08-12T16:28:55Z</time></trkpt>
<trkpt lat="25.695462" lon="100.272754">
<time>2014-08-12T16:28:56Z</time></trkpt>
<trkpt lat="25.695291" lon="100.272764">
<time>2014-08-12T16:28:57Z</time></trkpt>
<trkpt lat="25.695201" lon="100.272794">
<time>2014-08-12T16:28:58Z</time></trkpt>
<trkpt lat="25.695111" lon="100.272824">
<time>2014-08-12T16:28:59Z</time></trkpt>
<trkpt lat="25.694991" lon="100.272894">
<time>2014-08-12T16:29:00Z</time></trkpt>
<trkpt lat="25.694861" lon="100.273014">
<time>2014-08-12T16:29:01Z</time></trkpt>
<trkpt lat="25.694711" lon="100.273154">
<time>2014-08-12T16:29:02Z</time></trkpt>
<trkpt lat="25.69443" lon="100.273433">
<time>2014-08-12T16:29:03Z</time></trkpt>
<trkpt lat="25.69425" lon="100.273613">
<time>2014-08-12T16:29:04Z</time></trkpt>
<trkpt lat="25.69414" lon="100.273723">
<time>2014-08-12T16:29:05Z</time></trkpt>
<trkpt lat="25.69402" lon="100.273803">
<time>2014-08-12T16:29:06Z</time></trkpt>
<trkpt lat="25.69391" lon="100.273883">
<time>2014-08-12T16:29:07Z</time></trkpt>
<trkpt lat="25.69378" lon="100.273943">
<time>2014-08-12T16:29:08Z</time></trkpt>
<trkpt lat="25.693609" lon="100.274003">
<time>2014-08-12T16:29:09Z</time></trkpt>
<trkpt lat="25.693399" lon="100.274023">
<time>2014-08-12T16:29:10Z</time></trkpt>
<trkpt lat="25.693169" lon="100.274023">
<time>2014-08-12T16:29:11Z</time></trkpt>
<trkpt lat="25.692939" lon="100.273993">
<time>2014-08-12T16:29:12Z</time></trkpt>
<trkpt lat="25.692459" lon="100.273873">
<time>2014-08-12T16:29:13Z</time></trkpt>
<trkpt lat="25.692189" lon="100.273803">
<time>2014-08-12T16:29:14Z</time></trkpt>
<trkpt lat="25.691809" lon="100.273723">
<time>2014-08-12T16:29:15Z</time></trkpt>
<trkpt lat="25.691629" lon="100.273683">
<time>2014-08-12T16:29:16Z</time></trkpt>
<trkpt lat="25.691479" lon="100.273653">
<time>2014-08-12T16:29:17Z</time></trkpt>
<trkpt lat="25.691358" lon="100.273653">
<time>2014-08-12T16:29:18Z</time></trkpt>
<trkpt lat="25.691188" lon="100.273663">
<time>2014-08-12T16:29:19Z</time></trkpt>
<trkpt lat="25.690968" lon="100.273703">
<time>2014-08-12T16:29:20Z</time></trkpt>
<trkpt lat="25.690588" lon="100.273783">
<time>2014-08-12T16:29:21Z</time></trkpt>
<trkpt lat="25.690158" lon="100.273893">
<time>2014-08-12T16:29:22Z</time></trkpt>
<trkpt lat="25.689737" lon="100.274013">
<time>2014-08-12T16:29:23Z</time></trkpt>
<trkpt lat="25.689287" lon="100.274103">
<time>2014-08-12T16:29:24Z</time></trkpt>
<trkpt lat="25.689057" lon="100.274153">
<time>2014-08-12T16:29:25Z</time></trkpt>
<trkpt lat="25.688787" lon="100.274173">
<time>2014-08-12T16:29:26Z</time></trkpt>
<trkpt lat="25.688637" lon="100.274153">
<time>2014-08-12T16:29:27Z</time></trkpt>
<trkpt lat="25.688426" lon="100.274123">
<time>2014-08-12T16:29:28Z</time></trkpt>
<trkpt lat="25.688136" lon="100.274043">
<time>2014-08-12T16:29:29Z</time></trkpt>
<trkpt lat="25.687786" lon="100.273923">
<time>2014-08-12T16:29:30Z</time></trkpt>
<trkpt lat="25.687476" lon="100.273843">
<time>2014-08-12T16:29:31Z</time></trkpt>
<trkpt lat="25.686916" lon="100.273673">
<time>2014-08-12T16:29:32Z</time></trkpt>
<trkpt lat="25.686596" lon="100.273583">
<time>2014-08-12T16:29:33Z</time></trkpt>
<trkpt lat="25.686176" lon="100.273454">
<time>2014-08-12T16:29:34Z</time></trkpt>
<trkpt lat="25.685816" lon="100.273364">
<time>2014-08-12T16:29:35Z</time></trkpt>
<trkpt lat="25.685456" lon="100.273254">
<time>2014-08-12T16:29:36Z</time></trkpt>
<trkpt lat="25.685206" lon="100.273174">
<time>2014-08-12T16:29:37Z</time></trkpt>
<trkpt lat="25.685036" lon="100.273094">
<time>2014-08-12T16:29:38Z</time></trkpt>
<trkpt lat="25.684766" lon="100.272894">
<time>2014-08-12T16:29:39Z</time></trkpt>
<trkpt lat="25.684356" lon="100.272545">
<time>2014-08-12T16:29:40Z</time></trkpt>
<trkpt lat="25.684166" lon="100.272375">
<time>2014-08-12T16:29:41Z</time></trkpt>
<trkpt lat="25.683956" lon="100.272215">
<time>2014-08-12T16:29:42Z</time></trkpt>
<trkpt lat="25.683766" lon="100.272125">
<time>2014-08-12T16:29:43Z</time></trkpt>
<trkpt lat="25.683646" lon="100.272085">
<time>2014-08-12T16:29:44Z</time></trkpt>
<trkpt lat="25.683486" lon="100.272075">
<time>2014-08-12T16:29:45Z</time></trkpt>
<trkpt lat="25.683216" lon="100.272045">
<time>2014-08-12T16:29:46Z</time></trkpt>
<trkpt lat="25.682695" lon="100.272035">
<time>2014-08-12T16:29:47Z</time></trkpt>
<trkpt lat="25.682285" lon="100.272005">
<time>2014-08-12T16:29:48Z</time></trkpt>
<trkpt lat="25.681945" lon="100.271995">
<time>2014-08-12T16:29:49Z</time></trkpt>
<trkpt lat="25.681825" lon="100.271965">
<time>2014-08-12T16:29:50Z</time></trkpt>
<trkpt lat="25.681705" lon="100.271905">
<time>2014-08-12T16:29:51Z</time></trkpt>
<trkpt lat="25.681635" lon="100.271825">
<time>2014-08-12T16:29:52Z</time></trkpt>
<trkpt lat="25.681595" lon="100.271755">
<time>2014-08-12T16:29:53Z</time></trkpt>
<trkpt lat="25.681555" lon="100.271645">
<time>2014-08-12T16:29:54Z</time></trkpt>
<trkpt lat="25.681545" lon="100.271546">
<time>2014-08-12T16:29:55Z</time></trkpt>
<trkpt lat="25.681575" lon="100.271406">
<time>2014-08-12T16:29:56Z</time></trkpt>
<trkpt lat="25.681615" lon="100.271266">
<time>2014-08-12T16:29:57Z</time></trkpt>
<trkpt lat="25.681756" lon="100.270876">
<time>2014-08-12T16:29:58Z</time></trkpt>
<trkpt lat="25.681866" lon="100.270606">
<time>2014-08-12T16:29:59Z</time></trkpt>
<trkpt lat="25.681966" lon="100.270267">
<time>2014-08-12T16:30:00Z</time></trkpt>
<trkpt lat="25.682087" lon="100.269977">
<time>2014-08-12T16:30:01Z</time></trkpt>
<trkpt lat="25.682137" lon="100.269767">
<time>2014-08-12T16:30:02Z</time></trkpt>
<trkpt lat="25.682137" lon="100.269617">
<time>2014-08-12T16:30:03Z</time></trkpt>
<trkpt lat="25.682127" lon="100.269447">
<time>2014-08-12T16:30:04Z</time></trkpt>
<trkpt lat="25.682097" lon="100.269288">
<time>2014-08-12T16:30:05Z</time></trkpt>
<trkpt lat="25.682007" lon="100.269188">
<time>2014-08-12T16:30:06Z</time></trkpt>
<trkpt lat="25.681907" lon="100.269128">
<time>2014-08-12T16:30:07Z</time></trkpt>
<trkpt lat="25.681807" lon="100.269078">
<time>2014-08-12T16:30:08Z</time></trkpt>
<trkpt lat="25.681587" lon="100.269018">
<time>2014-08-12T16:30:09Z</time></trkpt>
<trkpt lat="25.681067" lon="100.268888">
<time>2014-08-12T16:30:10Z</time></trkpt>
<trkpt lat="25.680787" lon="100.268818">
<time>2014-08-12T16:30:11Z</time></trkpt>
<trkpt lat="25.680457" lon="100.268788">
<time>2014-08-12T16:30:12Z</time></trkpt>
<trkpt lat="25.680257" lon="100.268788">
<time>2014-08-12T16:30:13Z</time></trkpt>
<trkpt lat="25.680046" lon="100.268818">
<time>2014-08-12T16:30:14Z</time></trkpt>
<trkpt lat="25.679856" lon="100.268848">
<time>2014-08-12T16:30:15Z</time></trkpt>
<trkpt lat="25.679606" lon="100.268898">
<time>2014-08-12T16:30:16Z</time></trkpt>
<trkpt lat="25.679286" lon="100.268968">
<time>2014-08-12T16:30:17Z</time></trkpt>
<trkpt lat="25.678956" lon="100.269038">
<time>2014-08-12T16:30:18Z</time></trkpt>
<trkpt lat="25.678555" lon="100.269148">
<time>2014-08-12T16:30:19Z</time></trkpt>
<trkpt lat="25.678335" lon="100.269218">
<time>2014-08-12T16:30:20Z</time></trkpt>
<trkpt lat="25.678185" lon="100.269298">
<time>2014-08-12T16:30:21Z</time></trkpt>
<trkpt lat="25.678055" lon="100.269388">
<time>2014-08-12T16:30:22Z</time></trkpt>
<trkpt lat="25.677765" lon="100.269587">
<time>2014-08-12T16:30:23Z</time></trkpt>
<trkpt lat="25.677544" lon="100.269737">
<time>2014-08-12T16:30:24Z</time></trkpt>
<trkpt lat="25.677414" lon="100.269837">
<time>2014-08-12T16:30:25Z</time></trkpt>
<trkpt lat="25.677334" lon="100.269887">
<time>2014-08-12T16:30:26Z</time></trkpt>
<trkpt lat="25.677164" lon="100.269947">
<time>2014-08-12T16:30:27Z</time></trkpt>
<trkpt lat="25.676974" lon="100.269997">
<time>2014-08-12T16:30:28Z</time></trkpt>
<trkpt lat="25.676694" lon="100.270057">
<time>2014-08-12T16:30:29Z</time></trkpt>
<trkpt lat="25.676464" lon="100.270107">
<time>2014-08-12T16:30:30Z</time></trkpt>
<trkpt lat="25.676263" lon="100.270177">
<time>2014-08-12T16:30:31Z</time></trkpt>
<trkpt lat="25.676143" lon="100.270227">
<time>2014-08-12T16:30:32Z</time></trkpt>
<trkpt lat="25.676013" lon="100.270297">
<time>2014-08-12T16:30:33Z</time></trkpt>
<trkpt lat="25.675863" lon="100.270407">
<time>2014-08-12T16:30:34Z</time></trkpt>
<trkpt lat="25.675653" lon="100.270587">
<time>2014-08-12T16:30:35Z</time></trkpt>
<trkpt lat="25.675432" lon="100.270796">
<time>2014-08-12T16:30:36Z</time></trkpt>
<trkpt lat="25.675272" lon="100.270956">
<time>2014-08-12T16:30:37Z</time></trkpt>
<trkpt lat="25.675132" lon="100.271076">
<time>2014-08-12T16:30:38Z</time></trkpt>
<trkpt lat="25.674942" lon="100.271206">
<time>2014-08-12T16:30:39Z</time></trkpt>
<trkpt lat="25.674672" lon="100.271336">
<time>2014-08-12T16:30:40Z</time></trkpt>
<trkpt lat="25.674391" lon="100.271446">
<time>2014-08-12T16:30:41Z</time></trkpt>
<trkpt lat="25.674031" lon="100.271576">
<time>2014-08-12T16:30:42Z</time></trkpt>
<trkpt lat="25.673781" lon="100.271666">
<time>2014-08-12T16:30:43Z</time></trkpt>
<trkpt lat="25.673601" lon="100.271726">
<time>2014-08-12T16:30:44Z</time></trkpt>
<trkpt lat="25.673381" lon="100.271806">
<time>2014-08-12T16:30:45Z</time></trkpt>
<trkpt lat="25.67313" lon="100.271935">
<time>2014-08-12T16:30:46Z</time></trkpt>
<trkpt lat="25.67271" lon="100.272145">
<time>2014-08-12T16:30:47Z</time></trkpt>
<trkpt lat="25.6723" lon="100.272345">
<time>2014-08-12T16:30:48Z</time></trkpt>
<trkpt lat="25.672039" lon="100.272465">
<time>2014-08-12T16:30:49Z</time></trkpt>
<trkpt lat="25.671799" lon="100.272555">
<time>2014-08-12T16:30:50Z</time></trkpt>
<trkpt lat="25.671679" lon="100.272575">
<time>2014-08-12T16:30:51Z</time></trkpt>
<trkpt lat="25.671539" lon="100.272595">
<time>2014-08-12T16:30:52Z</time></trkpt>
<trkpt lat="25.671369" lon="100.272605">
<time>2014-08-12T16:30:53Z</time></trkpt>
<trkpt lat="25.671209" lon="100.272595">
<time>2014-08-12T16:30:54Z</time></trkpt>
<trkpt lat="25.671039" lon="100.272615">
<time>2014-08-12T16:30:55Z</time></trkpt>
<trkpt lat="25.670929" lon="100.272635">
<time>2014-08-12T16:30:56Z</time></trkpt>
<trkpt lat="25.670819" lon="100.272675">
<time>2014-08-12T16:30:57Z</time></trkpt>
<trkpt lat="25.670678" lon="100.272725">
<time>2014-08-12T16:30:58Z</time></trkpt>
<trkpt lat="25.670548" lon="100.272795">
<time>2014-08-12T16:30:59Z</time></trkpt>
<trkpt lat="25.670418" lon="100.272855">
<time>2014-08-12T16:31:00Z</time></trkpt>
<trkpt lat="25.670298" lon="100.272944">
<time>2014-08-12T16:31:01Z</time></trkpt>
<trkpt lat="25.669968" lon="100.273184">
<time>2014-08-12T16:31:02Z</time></trkpt>
<trkpt lat="25.669697" lon="100.273384">
<time>2014-08-12T16:31:03Z</time></trkpt>
<trkpt lat="25.669497" lon="100.273534">
<time>2014-08-12T16:31:04Z</time></trkpt>
<trkpt lat="25.669187" lon="100.273784">
<time>2014-08-12T16:31:05Z</time></trkpt>
<trkpt lat="25.668966" lon="100.274003">
<time>2014-08-12T16:31:06Z</time></trkpt>
<trkpt lat="25.668786" lon="100.274183">
<time>2014-08-12T16:31:07Z</time></trkpt>
<trkpt lat="25.668566" lon="100.274413">
<time>2014-08-12T16:31:08Z</time></trkpt>
<trkpt lat="25.668325" lon="100.274673">
<time>2014-08-12T16:31:09Z</time></trkpt>
<trkpt lat="25.668075" lon="100.274942">
<time>2014-08-12T16:31:10Z</time></trkpt>
<trkpt lat="25.667815" lon="100.275182">
<time>2014-08-12T16:31:11Z</time></trkpt>
<trkpt lat="25.667584" lon="100.275372">
<time>2014-08-12T16:31:12Z</time></trkpt>
<trkpt lat="25.667274" lon="100.275592">
<time>2014-08-12T16:31:13Z</time></trkpt>
<trkpt lat="25.666934" lon="100.275811">
<time>2014-08-12T16:31:14Z</time></trkpt>
<trkpt lat="25.666793" lon="100.275901">
<time>2014-08-12T16:31:15Z</time></trkpt>
<trkpt lat="25.666683" lon="100.275951">
<time>2014-08-12T16:31:16Z</time></trkpt>
<trkpt lat="25.666633" lon="100.275971">
<time>2014-08-12T16:31:17Z</time></trkpt>
<trkpt lat="25.666623" lon="100.275971">
<time>2014-08-12T16:31:18Z</time></trkpt>
<trkpt lat="25.666553" lon="100.276001">
<time>2014-08-12T16:31:19Z</time></trkpt>
<trkpt lat="25.666523" lon="100.276011">
<time>2014-08-12T16:31:20Z</time></trkpt>
<trkpt lat="25.666463" lon="100.276031">
<time>2014-08-12T16:31:21Z</time></trkpt>
<trkpt lat="25.666343" lon="100.276061">
<time>2014-08-12T16:31:22Z</time></trkpt>
<trkpt lat="25.666243" lon="100.276081">
<time>2014-08-12T16:31:23Z</time></trkpt>
<trkpt lat="25.666143" lon="100.276101">
<time>2014-08-12T16:31:24Z</time></trkpt>
<trkpt lat="25.666033" lon="100.276121">
<time>2014-08-12T16:31:25Z</time></trkpt>
<trkpt lat="25.665933" lon="100.276141">
<time>2014-08-12T16:31:26Z</time></trkpt>
<trkpt lat="25.665863" lon="100.276151">
<time>2014-08-12T16:31:27Z</time></trkpt>
<trkpt lat="25.665763" lon="100.276161">
<time>2014-08-12T16:31:28Z</time></trkpt>
<trkpt lat="25.665663" lon="100.276181">
<time>2014-08-12T16:31:29Z</time></trkpt>
<trkpt lat="25.665573" lon="100.276191">
<time>2014-08-12T16:31:30Z</time></trkpt>
<trkpt lat="25.665422" lon="100.276211">
<time>2014-08-12T16:31:31Z</time></trkpt>
<trkpt lat="25.665332" lon="100.276221">
<time>2014-08-12T16:31:32Z</time></trkpt>
<trkpt lat="25.665182" lon="100.276251">
<time>2014-08-12T16:31:33Z</time></trkpt>
<trkpt lat="25.665092" lon="100.276261">
<time>2014-08-12T16:31:34Z</time></trkpt>
<trkpt lat="25.664972" lon="100.276281">
<time>2014-08-12T16:31:35Z</time></trkpt>
<trkpt lat="25.664842" lon="100.276291">
<time>2014-08-12T16:31:36Z</time></trkpt>
<trkpt lat="25.664652" lon="100.276321">
<time>2014-08-12T16:31:37Z</time></trkpt>
<trkpt lat="25.664502" lon="100.276371">
<time>2014-08-12T16:31:38Z</time></trkpt>
<trkpt lat="25.664011" lon="100.276571">
<time>2014-08-12T16:31:39Z</time></trkpt>
<trkpt lat="25.663701" lon="100.2767">
<time>2014-08-12T16:31:40Z</time></trkpt>
<trkpt lat="25.663311" lon="100.27687">
<time>2014-08-12T16:31:41Z</time></trkpt>
<trkpt lat="25.663201" lon="100.27692">
<time>2014-08-12T16:31:42Z</time></trkpt>
<trkpt lat="25.66315" lon="100.27698">
<time>2014-08-12T16:31:43Z</time></trkpt>
<trkpt lat="25.66311" lon="100.27706">
<time>2014-08-12T16:31:44Z</time></trkpt>
<trkpt lat="25.6631" lon="100.27718">
<time>2014-08-12T16:31:45Z</time></trkpt>
<trkpt lat="25.6631" lon="100.27725">
<time>2014-08-12T16:31:46Z</time></trkpt>
<trkpt lat="25.66312" lon="100.27744">
<time>2014-08-12T16:31:47Z</time></trkpt>
<trkpt lat="25.66314" lon="100.277579">
<time>2014-08-12T16:31:48Z</time></trkpt>
<trkpt lat="25.66315" lon="100.277689">
<time>2014-08-12T16:31:49Z</time></trkpt>
<trkpt lat="25.66318" lon="100.277809">
<time>2014-08-12T16:31:50Z</time></trkpt>
<trkpt lat="25.66323" lon="100.277949">
<time>2014-08-12T16:31:51Z</time></trkpt>
<trkpt lat="25.663289" lon="100.278089">
<time>2014-08-12T16:31:52Z</time></trkpt>
<trkpt lat="25.663349" lon="100.278209">
<time>2014-08-12T16:31:53Z</time></trkpt>
<trkpt lat="25.663439" lon="100.278368">
<time>2014-08-12T16:31:54Z</time></trkpt>
<trkpt lat="25.663519" lon="100.278488">
<time>2014-08-12T16:31:55Z</time></trkpt>
<trkpt lat="25.663619" lon="100.278598">
<time>2014-08-12T16:31:56Z</time></trkpt>
<trkpt lat="25.663729" lon="100.278708">
<time>2014-08-12T16:31:57Z</time></trkpt>
<trkpt lat="25.663839" lon="100.278818">
<time>2014-08-12T16:31:58Z</time></trkpt>
<trkpt lat="25.664059" lon="100.279018">
<time>2014-08-12T16:31:59Z</time></trkpt>
<trkpt lat="25.664219" lon="100.279177">
<time>2014-08-12T16:32:00Z</time></trkpt>
<trkpt lat="25.664289" lon="100.279257">
<time>2014-08-12T16:32:01Z</time></trkpt>
<trkpt lat="25.664349" lon="100.279327">
<time>2014-08-12T16:32:02Z</time></trkpt>
<trkpt lat="25.664389" lon="100.279397">
<time>2014-08-12T16:32:03Z</time></trkpt>
<trkpt lat="25.664458" lon="100.279517">
<time>2014-08-12T16:32:04Z</time></trkpt>
<trkpt lat="25.664508" lon="100.279607">
<time>2014-08-12T16:32:05Z</time></trkpt>
<trkpt lat="25.664538" lon="100.279677">
<time>2014-08-12T16:32:06Z</time></trkpt>
<trkpt lat="25.664588" lon="100.279797">
<time>2014-08-12T16:32:07Z</time></trkpt>
<trkpt lat="25.664618" lon="100.279887">
<time>2014-08-12T16:32:08Z</time></trkpt>
<trkpt lat="25.664658" lon="100.280026">
<time>2014-08-12T16:32:09Z</time></trkpt>
<trkpt lat="25.664708" lon="100.280216">
<time>2014-08-12T16:32:10Z</time></trkpt>
<trkpt lat="25.664738" lon="100.280346">
<time>2014-08-12T16:32:11Z</time></trkpt>
<trkpt lat="25.664797" lon="100.280636">
<time>2014-08-12T16:32:12Z</time></trkpt>
<trkpt lat="25.664817" lon="100.280755">
<time>2014-08-12T16:32:13Z</time></trkpt>
<trkpt lat="25.664827" lon="100.280885">
<time>2014-08-12T16:32:14Z</time></trkpt>
<trkpt lat="25.664847" lon="100.281055">
<time>2014-08-12T16:32:15Z</time></trkpt>
<trkpt lat="25.664867" lon="100.281285">
<time>2014-08-12T16:32:16Z</time></trkpt>
<trkpt lat="25.664886" lon="100.281425">
<time>2014-08-12T16:32:17Z</time></trkpt>
<trkpt lat="25.664896" lon="100.281564">
<time>2014-08-12T16:32:18Z</time></trkpt>
<trkpt lat="25.664926" lon="100.281764">
<time>2014-08-12T16:32:19Z</time></trkpt>
<trkpt lat="25.664956" lon="100.281954">
<time>2014-08-12T16:32:20Z</time></trkpt>
<trkpt lat="25.664986" lon="100.282084">
<time>2014-08-12T16:32:21Z</time></trkpt>
<trkpt lat="25.665055" lon="100.282423">
<time>2014-08-12T16:32:22Z</time></trkpt>
<trkpt lat="25.665095" lon="100.282573">
<time>2014-08-12T16:32:23Z</time></trkpt>
<trkpt lat="25.665175" lon="100.282853">
<time>2014-08-12T16:32:24Z</time></trkpt>
<trkpt lat="25.665195" lon="100.282952">
<time>2014-08-12T16:32:25Z</time></trkpt>
<trkpt lat="25.665215" lon="100.283062">
<time>2014-08-12T16:32:26Z</time></trkpt>
<trkpt lat="25.665215" lon="100.283162">
<time>2014-08-12T16:32:27Z</time></trkpt>
<trkpt lat="25.665214" lon="100.283242">
<time>2014-08-12T16:32:28Z</time></trkpt>
<trkpt lat="25.665214" lon="100.283282">
<time>2014-08-12T16:32:29Z</time></trkpt>
<trkpt lat="25.665204" lon="100.283372">
<time>2014-08-12T16:32:30Z</time></trkpt>
<trkpt lat="25.665194" lon="100.283412">
<time>2014-08-12T16:32:31Z</time></trkpt>
<trkpt lat="25.665154" lon="100.283542">
<time>2014-08-12T16:32:32Z</time></trkpt>
<trkpt lat="25.665044" lon="100.283771">
<time>2014-08-12T16:32:33Z</time></trkpt>
<trkpt lat="25.664783" lon="100.284301">
<time>2014-08-12T16:32:34Z</time></trkpt>
<trkpt lat="25.664462" lon="100.28493">
<time>2014-08-12T16:32:35Z</time></trkpt>
<trkpt lat="25.664181" lon="100.285479">
<time>2014-08-12T16:32:36Z</time></trkpt>
<trkpt lat="25.66395" lon="100.285958">
<time>2014-08-12T16:32:37Z</time></trkpt>
<trkpt lat="25.66373" lon="100.286388">
<time>2014-08-12T16:32:38Z</time></trkpt>
<trkpt lat="25.663479" lon="100.286917">
<time>2014-08-12T16:32:39Z</time></trkpt>
<trkpt lat="25.663268" lon="100.287316">
<time>2014-08-12T16:32:40Z</time></trkpt>
<trkpt lat="25.663228" lon="100.287386">
<time>2014-08-12T16:32:41Z</time></trkpt>
<trkpt lat="25.663198" lon="100.287446">
<time>2014-08-12T16:32:42Z</time></trkpt>
<trkpt lat="25.663118" lon="100.287566">
<time>2014-08-12T16:32:43Z</time></trkpt>
<trkpt lat="25.662968" lon="100.287765">
<time>2014-08-12T16:32:44Z</time></trkpt>
<trkpt lat="25.662877" lon="100.287865">
<time>2014-08-12T16:32:45Z</time></trkpt>
<trkpt lat="25.662677" lon="100.288075">
<time>2014-08-12T16:32:46Z</time></trkpt>
<trkpt lat="25.662346" lon="100.288414">
<time>2014-08-12T16:32:47Z</time></trkpt>
<trkpt lat="25.661916" lon="100.288854">
<time>2014-08-12T16:32:48Z</time></trkpt>
<trkpt lat="25.661495" lon="100.289273">
<time>2014-08-12T16:32:49Z</time></trkpt>
<trkpt lat="25.661074" lon="100.289683">
<time>2014-08-12T16:32:50Z</time></trkpt>
<trkpt lat="25.660703" lon="100.290032">
<time>2014-08-12T16:32:51Z</time></trkpt>
<trkpt lat="25.660593" lon="100.290132">
<time>2014-08-12T16:32:52Z</time></trkpt>
<trkpt lat="25.660453" lon="100.290232">
<time>2014-08-12T16:32:53Z</time></trkpt>
<trkpt lat="25.660243" lon="100.290351">
<time>2014-08-12T16:32:54Z</time></trkpt>
<trkpt lat="25.660163" lon="100.290381">
<time>2014-08-12T16:32:55Z</time></trkpt>
<trkpt lat="25.660122" lon="100.290391">
<time>2014-08-12T16:32:56Z</time></trkpt>
<trkpt lat="25.660042" lon="100.290401">
<time>2014-08-12T16:32:57Z</time></trkpt>
<trkpt lat="25.659922" lon="100.290401">
<time>2014-08-12T16:32:58Z</time></trkpt>
<trkpt lat="25.659772" lon="100.290391">
<time>2014-08-12T16:32:59Z</time></trkpt>
<trkpt lat="25.659772" lon="100.290391">
<time>2014-08-12T16:33:00Z</time></trkpt>
<trkpt lat="25.659692" lon="100.290341">
<time>2014-08-12T16:33:01Z</time></trkpt>
<trkpt lat="25.659652" lon="100.290312">
<time>2014-08-12T16:33:02Z</time></trkpt>
<trkpt lat="25.659242" lon="100.290082">
<time>2014-08-12T16:33:03Z</time></trkpt>
<trkpt lat="25.657742" lon="100.289543">
<time>2014-08-12T16:33:04Z</time></trkpt>
<trkpt lat="25.656722" lon="100.289183">
<time>2014-08-12T16:33:05Z</time></trkpt>
<trkpt lat="25.655933" lon="100.288864">
<time>2014-08-12T16:33:06Z</time></trkpt>
<trkpt lat="25.655573" lon="100.288694">
<time>2014-08-12T16:33:07Z</time></trkpt>
<trkpt lat="25.655533" lon="100.288674">
<time>2014-08-12T16:33:08Z</time></trkpt>
<trkpt lat="25.655003" lon="100.288285">
<time>2014-08-12T16:33:09Z</time></trkpt>
<trkpt lat="25.654983" lon="100.288255">
<time>2014-08-12T16:33:10Z</time></trkpt>
<trkpt lat="25.654953" lon="100.288235">
<time>2014-08-12T16:33:11Z</time></trkpt>
<trkpt lat="25.654643" lon="100.287876">
<time>2014-08-12T16:33:12Z</time></trkpt>
<trkpt lat="25.654294" lon="100.287336">
<time>2014-08-12T16:33:13Z</time></trkpt>
<trkpt lat="25.654074" lon="100.286777">
<time>2014-08-12T16:33:14Z</time></trkpt>
<trkpt lat="25.653676" lon="100.28501">
<time>2014-08-12T16:33:15Z</time></trkpt>
<trkpt lat="25.653577" lon="100.2847">
<time>2014-08-12T16:33:16Z</time></trkpt>
<trkpt lat="25.653387" lon="100.284331">
<time>2014-08-12T16:33:17Z</time></trkpt>
<trkpt lat="25.653197" lon="100.284051">
<time>2014-08-12T16:33:18Z</time></trkpt>
<trkpt lat="25.653118" lon="100.283961">
<time>2014-08-12T16:33:19Z</time></trkpt>
<trkpt lat="25.652988" lon="100.283852">
<time>2014-08-12T16:33:20Z</time></trkpt>
<trkpt lat="25.652768" lon="100.283662">
<time>2014-08-12T16:33:21Z</time></trkpt>
<trkpt lat="25.652398" lon="100.283422">
<time>2014-08-12T16:33:22Z</time></trkpt>
<trkpt lat="25.651878" lon="100.283252">
<time>2014-08-12T16:33:23Z</time></trkpt>
<trkpt lat="25.651848" lon="100.283242">
<time>2014-08-12T16:33:24Z</time></trkpt>
<trkpt lat="25.651147" lon="100.283173">
<time>2014-08-12T16:33:25Z</time></trkpt>
<trkpt lat="25.648196" lon="100.283282">
<time>2014-08-12T16:33:26Z</time></trkpt>
<trkpt lat="25.646735" lon="100.283342">
<time>2014-08-12T16:33:27Z</time></trkpt>
<trkpt lat="25.645985" lon="100.283312">
<time>2014-08-12T16:33:28Z</time></trkpt>
<trkpt lat="25.645395" lon="100.283233">
<time>2014-08-12T16:33:29Z</time></trkpt>
<trkpt lat="25.644985" lon="100.283133">
<time>2014-08-12T16:33:30Z</time></trkpt>
<trkpt lat="25.644754" lon="100.283073">
<time>2014-08-12T16:33:31Z</time></trkpt>
<trkpt lat="25.644074" lon="100.282773">
<time>2014-08-12T16:33:32Z</time></trkpt>
<trkpt lat="25.643565" lon="100.282484">
<time>2014-08-12T16:33:33Z</time></trkpt>
<trkpt lat="25.643005" lon="100.282024">
<time>2014-08-12T16:33:34Z</time></trkpt>
<trkpt lat="25.642895" lon="100.281894">
<time>2014-08-12T16:33:35Z</time></trkpt>
<trkpt lat="25.642455" lon="100.281375">
<time>2014-08-12T16:33:36Z</time></trkpt>
<trkpt lat="25.642335" lon="100.281235">
<time>2014-08-12T16:33:37Z</time></trkpt>
<trkpt lat="25.641766" lon="100.280456">
<time>2014-08-12T16:33:38Z</time></trkpt>
<trkpt lat="25.641117" lon="100.279538">
<time>2014-08-12T16:33:39Z</time></trkpt>
<trkpt lat="25.640577" lon="100.278779">
<time>2014-08-12T16:33:40Z</time></trkpt>
<trkpt lat="25.639678" lon="100.27772">
<time>2014-08-12T16:33:41Z</time></trkpt>
<trkpt lat="25.639128" lon="100.27721">
<time>2014-08-12T16:33:42Z</time></trkpt>
<trkpt lat="25.638369" lon="100.276581">
<time>2014-08-12T16:33:43Z</time></trkpt>
<trkpt lat="25.638019" lon="100.276322">
<time>2014-08-12T16:33:44Z</time></trkpt>
<trkpt lat="25.637909" lon="100.276252">
<time>2014-08-12T16:33:45Z</time></trkpt>
<trkpt lat="25.636879" lon="100.275662">
<time>2014-08-12T16:33:46Z</time></trkpt>
<trkpt lat="25.634209" lon="100.274164">
<time>2014-08-12T16:33:47Z</time></trkpt>
<trkpt lat="25.633989" lon="100.274044">
<time>2014-08-12T16:33:48Z</time></trkpt>
<trkpt lat="25.630479" lon="100.272146">
<time>2014-08-12T16:33:49Z</time></trkpt>
<trkpt lat="25.629859" lon="100.271817">
<time>2014-08-12T16:33:50Z</time></trkpt>
<trkpt lat="25.629359" lon="100.271617">
<time>2014-08-12T16:33:51Z</time></trkpt>
<trkpt lat="25.628299" lon="100.271277">
<time>2014-08-12T16:33:52Z</time></trkpt>
<trkpt lat="25.626768" lon="100.270977">
<time>2014-08-12T16:33:53Z</time></trkpt>
<trkpt lat="25.626288" lon="100.270898">
<time>2014-08-12T16:33:54Z</time></trkpt>
<trkpt lat="25.625378" lon="100.270728">
<time>2014-08-12T16:33:55Z</time></trkpt>
<trkpt lat="25.624968" lon="100.270668">
<time>2014-08-12T16:33:56Z</time></trkpt>
<trkpt lat="25.623077" lon="100.270348">
<time>2014-08-12T16:33:57Z</time></trkpt>
<trkpt lat="25.621116" lon="100.270028">
<time>2014-08-12T16:33:58Z</time></trkpt>
<trkpt lat="25.620426" lon="100.269919">
<time>2014-08-12T16:33:59Z</time></trkpt>
<trkpt lat="25.618155" lon="100.269539">
<time>2014-08-12T16:34:00Z</time></trkpt>
<trkpt lat="25.617835" lon="100.269469">
<time>2014-08-12T16:34:01Z</time></trkpt>
<trkpt lat="25.617725" lon="100.269439">
<time>2014-08-12T16:34:02Z</time></trkpt>
<trkpt lat="25.616165" lon="100.26895">
<time>2014-08-12T16:34:03Z</time></trkpt>
<trkpt lat="25.615695" lon="100.26871">
<time>2014-08-12T16:34:04Z</time></trkpt>
<trkpt lat="25.614885" lon="100.2683">
<time>2014-08-12T16:34:05Z</time></trkpt>
<trkpt lat="25.614015" lon="100.267661">
<time>2014-08-12T16:34:06Z</time></trkpt>
<trkpt lat="25.613295" lon="100.267091">
<time>2014-08-12T16:34:07Z</time></trkpt>
<trkpt lat="25.612535" lon="100.266302">
<time>2014-08-12T16:34:08Z</time></trkpt>
<trkpt lat="25.612455" lon="100.266222">
<time>2014-08-12T16:34:09Z</time></trkpt>
<trkpt lat="25.612385" lon="100.266142">
<time>2014-08-12T16:34:10Z</time></trkpt>
<trkpt lat="25.612195" lon="100.265912">
<time>2014-08-12T16:34:11Z</time></trkpt>
<trkpt lat="25.612035" lon="100.265732">
<time>2014-08-12T16:34:12Z</time></trkpt>
<trkpt lat="25.611955" lon="100.265632">
<time>2014-08-12T16:34:13Z</time></trkpt>
<trkpt lat="25.611376" lon="100.264783">
<time>2014-08-12T16:34:14Z</time></trkpt>
<trkpt lat="25.610716" lon="100.263634">
<time>2014-08-12T16:34:15Z</time></trkpt>
<trkpt lat="25.610086" lon="100.262355">
<time>2014-08-12T16:34:16Z</time></trkpt>
<trkpt lat="25.609647" lon="100.261445">
<time>2014-08-12T16:34:17Z</time></trkpt>
<trkpt lat="25.609297" lon="100.260815">
<time>2014-08-12T16:34:18Z</time></trkpt>
<trkpt lat="25.608767" lon="100.260076">
<time>2014-08-12T16:34:19Z</time></trkpt>
<trkpt lat="25.608167" lon="100.259406">
<time>2014-08-12T16:34:20Z</time></trkpt>
<trkpt lat="25.607937" lon="100.259186">
<time>2014-08-12T16:34:21Z</time></trkpt>
<trkpt lat="25.607557" lon="100.258836">
<time>2014-08-12T16:34:22Z</time></trkpt>
<trkpt lat="25.606977" lon="100.258387">
<time>2014-08-12T16:34:23Z</time></trkpt>
<trkpt lat="25.606907" lon="100.258327">
<time>2014-08-12T16:34:24Z</time></trkpt>
<trkpt lat="25.606867" lon="100.258297">
<time>2014-08-12T16:34:25Z</time></trkpt>
<trkpt lat="25.606847" lon="100.258287">
<time>2014-08-12T16:34:26Z</time></trkpt>
<trkpt lat="25.605926" lon="100.257697">
<time>2014-08-12T16:34:27Z</time></trkpt>
<trkpt lat="25.605016" lon="100.256987">
<time>2014-08-12T16:34:28Z</time></trkpt>
<trkpt lat="25.604326" lon="100.256298">
<time>2014-08-12T16:34:29Z</time></trkpt>
<trkpt lat="25.603836" lon="100.255538">
<time>2014-08-12T16:34:30Z</time></trkpt>
<trkpt lat="25.603546" lon="100.255068">
<time>2014-08-12T16:34:31Z</time></trkpt>
<trkpt lat="25.603546" lon="100.255068">
<time>2014-08-12T16:34:32Z</time></trkpt>
<trkpt lat="25.602966" lon="100.253228">
<time>2014-08-12T16:34:33Z</time></trkpt>
<trkpt lat="25.602876" lon="100.253059">
<time>2014-08-12T16:34:34Z</time></trkpt>
<trkpt lat="25.602636" lon="100.252259">
<time>2014-08-12T16:34:35Z</time></trkpt>
<trkpt lat="25.602566" lon="100.252039">
<time>2014-08-12T16:34:36Z</time></trkpt>
<trkpt lat="25.602406" lon="100.251499">
<time>2014-08-12T16:34:37Z</time></trkpt>
<trkpt lat="25.601906" lon="100.250019">
<time>2014-08-12T16:34:38Z</time></trkpt>
<trkpt lat="25.601436" lon="100.248479">
<time>2014-08-12T16:34:39Z</time></trkpt>
<trkpt lat="25.601276" lon="100.247939">
<time>2014-08-12T16:34:40Z</time></trkpt>
<trkpt lat="25.601206" lon="100.247719">
<time>2014-08-12T16:34:41Z</time></trkpt>
<trkpt lat="25.601206" lon="100.247719">
<time>2014-08-12T16:34:42Z</time></trkpt>
<trkpt lat="25.601056" lon="100.247759">
<time>2014-08-12T16:34:43Z</time></trkpt>
<trkpt lat="25.600215" lon="100.248009">
<time>2014-08-12T16:34:44Z</time></trkpt>
<trkpt lat="25.600075" lon="100.248039">
<time>2014-08-12T16:34:45Z</time></trkpt>
<trkpt lat="25.600075" lon="100.248039">
<time>2014-08-12T16:34:46Z</time></trkpt>
<trkpt lat="25.599805" lon="100.247089">
<time>2014-08-12T16:34:47Z</time></trkpt>
<trkpt lat="25.599635" lon="100.246479">
<time>2014-08-12T16:34:48Z</time></trkpt>
<trkpt lat="25.599635" lon="100.246479">
<time>2014-08-12T16:34:49Z</time></trkpt>
<trkpt lat="25.599425" lon="100.246549">
<time>2014-08-12T16:34:50Z</time></trkpt>
<trkpt lat="25.599265" lon="100.246569">
<time>2014-08-12T16:34:51Z</time></trkpt>
<trkpt lat="25.598915" lon="100.246579">
<time>2014-08-12T16:34:52Z</time></trkpt>
<trkpt lat="25.598805" lon="100.246589">
<time>2014-08-12T16:34:53Z</time></trkpt>
<trkpt lat="25.598755" lon="100.246589">
<time>2014-08-12T16:34:54Z</time></trkpt>
<trkpt lat="25.598485" lon="100.246639">
<time>2014-08-12T16:34:55Z</time></trkpt>
<trkpt lat="25.597564" lon="100.246929">
<time>2014-08-12T16:34:56Z</time></trkpt>
<trkpt lat="25.597484" lon="100.246949">
<time>2014-08-12T16:34:57Z</time></trkpt>
<trkpt lat="25.597404" lon="100.246989">
<time>2014-08-12T16:34:58Z</time></trkpt>
<trkpt lat="25.597344" lon="100.247029">
<time>2014-08-12T16:34:59Z</time></trkpt>
<trkpt lat="25.597294" lon="100.247079">
<time>2014-08-12T16:35:00Z</time></trkpt>
<trkpt lat="25.597294" lon="100.247079">
<time>2014-08-12T16:35:01Z</time></trkpt>
<trkpt lat="25.597314" lon="100.247029">
<time>2014-08-12T16:35:02Z</time></trkpt>
<trkpt lat="25.597324" lon="100.246969">
<time>2014-08-12T16:35:03Z</time></trkpt>
<trkpt lat="25.597334" lon="100.246919">
<time>2014-08-12T16:35:04Z</time></trkpt>
<trkpt lat="25.597334" lon="100.246859">
<time>2014-08-12T16:35:05Z</time></trkpt>
<trkpt lat="25.597334" lon="100.246809">
<time>2014-08-12T16:35:06Z</time></trkpt>
<trkpt lat="25.597314" lon="100.246769">
<time>2014-08-12T16:35:07Z</time></trkpt>
<trkpt lat="25.597304" lon="100.246729">
<time>2014-08-12T16:35:08Z</time></trkpt>
<trkpt lat="25.597274" lon="100.246689">
<time>2014-08-12T16:35:09Z</time></trkpt>
<trkpt lat="25.597254" lon="100.246659">
<time>2014-08-12T16:35:10Z</time></trkpt>
<trkpt lat="25.597224" lon="100.246639">
<time>2014-08-12T16:35:11Z</time></trkpt>
<trkpt lat="25.597174" lon="100.246609">
<time>2014-08-12T16:35:12Z</time></trkpt>
<trkpt lat="25.597144" lon="100.246599">
<time>2014-08-12T16:35:13Z</time></trkpt>
<trkpt lat="25.597134" lon="100.246599">
<time>2014-08-12T16:35:14Z</time></trkpt>
<trkpt lat="25.597084" lon="100.246589">
<time>2014-08-12T16:35:15Z</time></trkpt>
<trkpt lat="25.597064" lon="100.246589">
<time>2014-08-12T16:35:16Z</time></trkpt>
<trkpt lat="25.597034" lon="100.246549">
<time>2014-08-12T16:35:17Z</time></trkpt>
<trkpt lat="25.596994" lon="100.246499">
<time>2014-08-12T16:35:18Z</time></trkpt>
<trkpt lat="25.596964" lon="100.246449">
<time>2014-08-12T16:35:19Z</time></trkpt>
<trkpt lat="25.596944" lon="100.246389">
<time>2014-08-12T16:35:20Z</time></trkpt>
<trkpt lat="25.596494" lon="100.244839">
<time>2014-08-12T16:35:21Z</time></trkpt>
<trkpt lat="25.596013" lon="100.243169">
<time>2014-08-12T16:35:22Z</time></trkpt>
<trkpt lat="25.595552" lon="100.241548">
<time>2014-08-12T16:35:23Z</time></trkpt>
<trkpt lat="25.595442" lon="100.241158">
<time>2014-08-12T16:35:24Z</time></trkpt>
<trkpt lat="25.595022" lon="100.239698">
<time>2014-08-12T16:35:25Z</time></trkpt>
<trkpt lat="25.594781" lon="100.238837">
<time>2014-08-12T16:35:26Z</time></trkpt>
<trkpt lat="25.594761" lon="100.238607">
<time>2014-08-12T16:35:27Z</time></trkpt>
<trkpt lat="25.594731" lon="100.238207">
<time>2014-08-12T16:35:28Z</time></trkpt>
<trkpt lat="25.594731" lon="100.238197">
<time>2014-08-12T16:35:29Z</time></trkpt>
<trkpt lat="25.594721" lon="100.237977">
<time>2014-08-12T16:35:30Z</time></trkpt>
<trkpt lat="25.594721" lon="100.237967">
<time>2014-08-12T16:35:31Z</time></trkpt>
<trkpt lat="25.594711" lon="100.237577">
<time>2014-08-12T16:35:32Z</time></trkpt>
<trkpt lat="25.594537" lon="100.231523">
<time>2014-08-12T16:35:33Z</time></trkpt>
<trkpt lat="25.594527" lon="100.231433">
<time>2014-08-12T16:35:34Z</time></trkpt>
<trkpt lat="25.594476" lon="100.228982">
<time>2014-08-12T16:35:35Z</time></trkpt>
<trkpt lat="25.594465" lon="100.228221">
<time>2014-08-12T16:35:36Z</time></trkpt>
<trkpt lat="25.594413" lon="100.225148">
<time>2014-08-12T16:35:37Z</time></trkpt>
<trkpt lat="25.594413" lon="100.225088">
<time>2014-08-12T16:35:38Z</time></trkpt>
<trkpt lat="25.594412" lon="100.224878">
<time>2014-08-12T16:35:39Z</time></trkpt></trkseg></trk></gpx>